<?xml version="1.0" encoding="UTF-8" standalone="no" ?>
<gpx xmlns="http://www.topografix.com/GPX/1/1" xmlns:xsi="http://www.w3.org/2001/XMLSchema-instance" xsi:schemaLocation="http://www.topografix.com/GPX/1/1 http://www.topografix.com/GPX/1/1/gpx.xsd" version="1.1" creator="VisuGPX - https://www.visugpx.com">
  <metadata>
    <name>Rando de St Pancre (Meurthe et Moselle)le 03 juillet 2011</name>
    <desc><![CDATA[Belle rando officielle de St Pancre, a faire par beau temps de préférence]]></desc>
  </metadata>
  <trk>
    <name><![CDATA[ST PANCRE]]></name>
    <trkseg>
      <trkpt lat="49.52892" lon="5.64147">
        <ele>262</ele>
        <time>2011-07-03T06:37:22.000Z</time>
      </trkpt>
      <trkpt lat="49.52894" lon="5.64156">
        <ele>261</ele>
        <time>2011-07-03T06:37:46.000Z</time>
      </trkpt>
      <trkpt lat="49.52899" lon="5.64173">
        <ele>260</ele>
        <time>2011-07-03T06:37:54.000Z</time>
      </trkpt>
      <trkpt lat="49.52908" lon="5.64182">
        <ele>259</ele>
        <time>2011-07-03T06:37:58.000Z</time>
      </trkpt>
      <trkpt lat="49.52909" lon="5.6419">
        <ele>259</ele>
        <time>2011-07-03T06:38:00.000Z</time>
      </trkpt>
      <trkpt lat="49.52912" lon="5.64189">
        <ele>259</ele>
        <time>2011-07-03T06:38:05.000Z</time>
      </trkpt>
      <trkpt lat="49.52908" lon="5.64185">
        <ele>260</ele>
        <time>2011-07-03T06:38:10.000Z</time>
      </trkpt>
      <trkpt lat="49.52909" lon="5.64195">
        <ele>260</ele>
        <time>2011-07-03T06:38:13.000Z</time>
      </trkpt>
      <trkpt lat="49.5291" lon="5.64206">
        <ele>261</ele>
        <time>2011-07-03T06:38:16.000Z</time>
      </trkpt>
      <trkpt lat="49.5291" lon="5.64213">
        <ele>261</ele>
        <time>2011-07-03T06:38:18.000Z</time>
      </trkpt>
      <trkpt lat="49.52908" lon="5.64286">
        <ele>264</ele>
        <time>2011-07-03T06:38:35.000Z</time>
      </trkpt>
      <trkpt lat="49.52908" lon="5.64291">
        <ele>265</ele>
        <time>2011-07-03T06:38:36.000Z</time>
      </trkpt>
      <trkpt lat="49.52908" lon="5.64365">
        <ele>268</ele>
        <time>2011-07-03T06:38:51.000Z</time>
      </trkpt>
      <trkpt lat="49.52908" lon="5.6437">
        <ele>268</ele>
        <time>2011-07-03T06:38:52.000Z</time>
      </trkpt>
      <trkpt lat="49.52908" lon="5.64445">
        <ele>271</ele>
        <time>2011-07-03T06:39:06.000Z</time>
      </trkpt>
      <trkpt lat="49.52908" lon="5.64451">
        <ele>271</ele>
        <time>2011-07-03T06:39:07.000Z</time>
      </trkpt>
      <trkpt lat="49.52908" lon="5.64527">
        <ele>270</ele>
        <time>2011-07-03T06:39:18.000Z</time>
      </trkpt>
      <trkpt lat="49.52908" lon="5.64534">
        <ele>270</ele>
        <time>2011-07-03T06:39:19.000Z</time>
      </trkpt>
      <trkpt lat="49.52912" lon="5.64607">
        <ele>270</ele>
        <time>2011-07-03T06:39:29.000Z</time>
      </trkpt>
      <trkpt lat="49.52913" lon="5.64614">
        <ele>270</ele>
        <time>2011-07-03T06:39:30.000Z</time>
      </trkpt>
      <trkpt lat="49.52916" lon="5.64641">
        <ele>271</ele>
        <time>2011-07-03T06:39:34.000Z</time>
      </trkpt>
      <trkpt lat="49.52923" lon="5.64717">
        <ele>273</ele>
        <time>2011-07-03T06:39:45.000Z</time>
      </trkpt>
      <trkpt lat="49.52924" lon="5.64724">
        <ele>273</ele>
        <time>2011-07-03T06:39:46.000Z</time>
      </trkpt>
      <trkpt lat="49.52932" lon="5.64798">
        <ele>275</ele>
        <time>2011-07-03T06:39:57.000Z</time>
      </trkpt>
      <trkpt lat="49.52932" lon="5.64805">
        <ele>275</ele>
        <time>2011-07-03T06:39:58.000Z</time>
      </trkpt>
      <trkpt lat="49.52934" lon="5.64847">
        <ele>277</ele>
        <time>2011-07-03T06:40:04.000Z</time>
      </trkpt>
      <trkpt lat="49.52933" lon="5.64904">
        <ele>280</ele>
        <time>2011-07-03T06:40:13.000Z</time>
      </trkpt>
      <trkpt lat="49.52936" lon="5.64919">
        <ele>281</ele>
        <time>2011-07-03T06:40:16.000Z</time>
      </trkpt>
      <trkpt lat="49.52942" lon="5.64961">
        <ele>282</ele>
        <time>2011-07-03T06:40:24.000Z</time>
      </trkpt>
      <trkpt lat="49.52935" lon="5.65029">
        <ele>284</ele>
        <time>2011-07-03T06:40:38.000Z</time>
      </trkpt>
      <trkpt lat="49.52933" lon="5.65031">
        <ele>284</ele>
        <time>2011-07-03T06:40:39.000Z</time>
      </trkpt>
      <trkpt lat="49.52927" lon="5.65034">
        <ele>285</ele>
        <time>2011-07-03T06:40:42.000Z</time>
      </trkpt>
      <trkpt lat="49.52921" lon="5.65031">
        <ele>284</ele>
        <time>2011-07-03T06:40:46.000Z</time>
      </trkpt>
      <trkpt lat="49.52905" lon="5.65016">
        <ele>283</ele>
        <time>2011-07-03T06:40:56.000Z</time>
      </trkpt>
      <trkpt lat="49.52899" lon="5.65023">
        <ele>283</ele>
        <time>2011-07-03T06:41:00.000Z</time>
      </trkpt>
      <trkpt lat="49.52897" lon="5.65047">
        <ele>284</ele>
        <time>2011-07-03T06:41:08.000Z</time>
      </trkpt>
      <trkpt lat="49.52898" lon="5.65119">
        <ele>296</ele>
        <time>2011-07-03T06:41:34.000Z</time>
      </trkpt>
      <trkpt lat="49.52898" lon="5.65121">
        <ele>297</ele>
        <time>2011-07-03T06:41:35.000Z</time>
      </trkpt>
      <trkpt lat="49.52898" lon="5.65134">
        <ele>302</ele>
        <time>2011-07-03T06:41:40.000Z</time>
      </trkpt>
      <trkpt lat="49.52892" lon="5.65154">
        <ele>307</ele>
        <time>2011-07-03T06:41:50.000Z</time>
      </trkpt>
      <trkpt lat="49.52881" lon="5.65179">
        <ele>313</ele>
        <time>2011-07-03T06:42:05.000Z</time>
      </trkpt>
      <trkpt lat="49.52878" lon="5.65191">
        <ele>316</ele>
        <time>2011-07-03T06:42:11.000Z</time>
      </trkpt>
      <trkpt lat="49.52872" lon="5.65206">
        <ele>319</ele>
        <time>2011-07-03T06:42:19.000Z</time>
      </trkpt>
      <trkpt lat="49.52869" lon="5.65216">
        <ele>321</ele>
        <time>2011-07-03T06:42:25.000Z</time>
      </trkpt>
      <trkpt lat="49.52866" lon="5.65225">
        <ele>323</ele>
        <time>2011-07-03T06:42:29.000Z</time>
      </trkpt>
      <trkpt lat="49.52864" lon="5.65239">
        <ele>325</ele>
        <time>2011-07-03T06:42:35.000Z</time>
      </trkpt>
      <trkpt lat="49.52859" lon="5.65247">
        <ele>325</ele>
        <time>2011-07-03T06:42:39.000Z</time>
      </trkpt>
      <trkpt lat="49.52855" lon="5.65261">
        <ele>325</ele>
        <time>2011-07-03T06:42:45.000Z</time>
      </trkpt>
      <trkpt lat="49.52852" lon="5.65269">
        <ele>326</ele>
        <time>2011-07-03T06:42:49.000Z</time>
      </trkpt>
      <trkpt lat="49.52847" lon="5.65276">
        <ele>325</ele>
        <time>2011-07-03T06:42:53.000Z</time>
      </trkpt>
      <trkpt lat="49.52843" lon="5.65284">
        <ele>324</ele>
        <time>2011-07-03T06:42:57.000Z</time>
      </trkpt>
      <trkpt lat="49.52839" lon="5.6529">
        <ele>323</ele>
        <time>2011-07-03T06:43:01.000Z</time>
      </trkpt>
      <trkpt lat="49.5283" lon="5.65297">
        <ele>322</ele>
        <time>2011-07-03T06:43:07.000Z</time>
      </trkpt>
      <trkpt lat="49.52811" lon="5.65307">
        <ele>321</ele>
        <time>2011-07-03T06:43:21.000Z</time>
      </trkpt>
      <trkpt lat="49.52774" lon="5.65329">
        <ele>322</ele>
        <time>2011-07-03T06:43:45.000Z</time>
      </trkpt>
      <trkpt lat="49.52753" lon="5.6535">
        <ele>321</ele>
        <time>2011-07-03T06:43:59.000Z</time>
      </trkpt>
      <trkpt lat="49.5274" lon="5.65371">
        <ele>321</ele>
        <time>2011-07-03T06:44:09.000Z</time>
      </trkpt>
      <trkpt lat="49.52736" lon="5.65379">
        <ele>322</ele>
        <time>2011-07-03T06:44:13.000Z</time>
      </trkpt>
      <trkpt lat="49.52705" lon="5.65433">
        <ele>326</ele>
        <time>2011-07-03T06:44:38.000Z</time>
      </trkpt>
      <trkpt lat="49.52703" lon="5.65436">
        <ele>326</ele>
        <time>2011-07-03T06:44:39.000Z</time>
      </trkpt>
      <trkpt lat="49.52675" lon="5.6547">
        <ele>329</ele>
        <time>2011-07-03T06:44:57.000Z</time>
      </trkpt>
      <trkpt lat="49.52637" lon="5.6551">
        <ele>334</ele>
        <time>2011-07-03T06:45:22.000Z</time>
      </trkpt>
      <trkpt lat="49.52636" lon="5.65511">
        <ele>335</ele>
        <time>2011-07-03T06:45:23.000Z</time>
      </trkpt>
      <trkpt lat="49.5262" lon="5.65533">
        <ele>344</ele>
        <time>2011-07-03T06:45:37.000Z</time>
      </trkpt>
      <trkpt lat="49.52607" lon="5.6555">
        <ele>348</ele>
        <time>2011-07-03T06:45:46.000Z</time>
      </trkpt>
      <trkpt lat="49.52601" lon="5.65562">
        <ele>350</ele>
        <time>2011-07-03T06:45:52.000Z</time>
      </trkpt>
      <trkpt lat="49.52592" lon="5.65582">
        <ele>359</ele>
        <time>2011-07-03T06:46:02.000Z</time>
      </trkpt>
      <trkpt lat="49.52581" lon="5.65616">
        <ele>365</ele>
        <time>2011-07-03T06:46:16.000Z</time>
      </trkpt>
      <trkpt lat="49.52578" lon="5.65631">
        <ele>366</ele>
        <time>2011-07-03T06:46:22.000Z</time>
      </trkpt>
      <trkpt lat="49.5257" lon="5.65657">
        <ele>366</ele>
        <time>2011-07-03T06:46:31.000Z</time>
      </trkpt>
      <trkpt lat="49.52567" lon="5.65675">
        <ele>363</ele>
        <time>2011-07-03T06:46:37.000Z</time>
      </trkpt>
      <trkpt lat="49.5256" lon="5.65703">
        <ele>367</ele>
        <time>2011-07-03T06:46:45.000Z</time>
      </trkpt>
      <trkpt lat="49.52549" lon="5.65772">
        <ele>367</ele>
        <time>2011-07-03T06:47:03.000Z</time>
      </trkpt>
      <trkpt lat="49.52549" lon="5.65775">
        <ele>368</ele>
        <time>2011-07-03T06:47:04.000Z</time>
      </trkpt>
      <trkpt lat="49.52549" lon="5.65778">
        <ele>369</ele>
        <time>2011-07-03T06:47:05.000Z</time>
      </trkpt>
      <trkpt lat="49.52547" lon="5.65789">
        <ele>373</ele>
        <time>2011-07-03T06:47:08.000Z</time>
      </trkpt>
      <trkpt lat="49.52537" lon="5.65847">
        <ele>389</ele>
        <time>2011-07-03T06:47:25.000Z</time>
      </trkpt>
      <trkpt lat="49.52537" lon="5.65862">
        <ele>390</ele>
        <time>2011-07-03T06:47:29.000Z</time>
      </trkpt>
      <trkpt lat="49.52538" lon="5.65874">
        <ele>393</ele>
        <time>2011-07-03T06:47:33.000Z</time>
      </trkpt>
      <trkpt lat="49.52539" lon="5.65888">
        <ele>395</ele>
        <time>2011-07-03T06:47:37.000Z</time>
      </trkpt>
      <trkpt lat="49.52538" lon="5.65901">
        <ele>396</ele>
        <time>2011-07-03T06:47:41.000Z</time>
      </trkpt>
      <trkpt lat="49.52534" lon="5.6593">
        <ele>397</ele>
        <time>2011-07-03T06:47:51.000Z</time>
      </trkpt>
      <trkpt lat="49.52532" lon="5.65943">
        <ele>396</ele>
        <time>2011-07-03T06:47:55.000Z</time>
      </trkpt>
      <trkpt lat="49.52529" lon="5.65955">
        <ele>396</ele>
        <time>2011-07-03T06:47:59.000Z</time>
      </trkpt>
      <trkpt lat="49.52516" lon="5.65997">
        <ele>393</ele>
        <time>2011-07-03T06:48:12.000Z</time>
      </trkpt>
      <trkpt lat="49.52508" lon="5.66019">
        <ele>392</ele>
        <time>2011-07-03T06:48:18.000Z</time>
      </trkpt>
      <trkpt lat="49.52488" lon="5.66059">
        <ele>392</ele>
        <time>2011-07-03T06:48:30.000Z</time>
      </trkpt>
      <trkpt lat="49.52458" lon="5.66116">
        <ele>393</ele>
        <time>2011-07-03T06:48:48.000Z</time>
      </trkpt>
      <trkpt lat="49.52457" lon="5.66118">
        <ele>393</ele>
        <time>2011-07-03T06:48:49.000Z</time>
      </trkpt>
      <trkpt lat="49.52427" lon="5.66177">
        <ele>391</ele>
        <time>2011-07-03T06:49:01.000Z</time>
      </trkpt>
      <trkpt lat="49.52422" lon="5.66186">
        <ele>391</ele>
        <time>2011-07-03T06:49:02.000Z</time>
      </trkpt>
      <trkpt lat="49.52394" lon="5.66243">
        <ele>385</ele>
        <time>2011-07-03T06:49:08.000Z</time>
      </trkpt>
      <trkpt lat="49.5239" lon="5.66252">
        <ele>384</ele>
        <time>2011-07-03T06:49:09.000Z</time>
      </trkpt>
      <trkpt lat="49.52387" lon="5.66261">
        <ele>383</ele>
        <time>2011-07-03T06:49:10.000Z</time>
      </trkpt>
      <trkpt lat="49.52375" lon="5.66305">
        <ele>378</ele>
        <time>2011-07-03T06:49:17.000Z</time>
      </trkpt>
      <trkpt lat="49.52374" lon="5.66317">
        <ele>378</ele>
        <time>2011-07-03T06:49:20.000Z</time>
      </trkpt>
      <trkpt lat="49.52371" lon="5.66328">
        <ele>379</ele>
        <time>2011-07-03T06:49:23.000Z</time>
      </trkpt>
      <trkpt lat="49.5237" lon="5.66339">
        <ele>380</ele>
        <time>2011-07-03T06:49:26.000Z</time>
      </trkpt>
      <trkpt lat="49.52364" lon="5.66369">
        <ele>386</ele>
        <time>2011-07-03T06:49:33.000Z</time>
      </trkpt>
      <trkpt lat="49.52359" lon="5.66379">
        <ele>389</ele>
        <time>2011-07-03T06:49:36.000Z</time>
      </trkpt>
      <trkpt lat="49.52353" lon="5.66395">
        <ele>391</ele>
        <time>2011-07-03T06:49:39.000Z</time>
      </trkpt>
      <trkpt lat="49.52341" lon="5.66418">
        <ele>394</ele>
        <time>2011-07-03T06:49:44.000Z</time>
      </trkpt>
      <trkpt lat="49.52328" lon="5.6644">
        <ele>402</ele>
        <time>2011-07-03T06:49:51.000Z</time>
      </trkpt>
      <trkpt lat="49.52288" lon="5.66484">
        <ele>408</ele>
        <time>2011-07-03T06:50:06.000Z</time>
      </trkpt>
      <trkpt lat="49.52284" lon="5.66489">
        <ele>408</ele>
        <time>2011-07-03T06:50:07.000Z</time>
      </trkpt>
      <trkpt lat="49.52244" lon="5.66528">
        <ele>405</ele>
        <time>2011-07-03T06:50:14.000Z</time>
      </trkpt>
      <trkpt lat="49.52238" lon="5.66535">
        <ele>405</ele>
        <time>2011-07-03T06:50:15.000Z</time>
      </trkpt>
      <trkpt lat="49.52201" lon="5.66574">
        <ele>403</ele>
        <time>2011-07-03T06:50:22.000Z</time>
      </trkpt>
      <trkpt lat="49.52197" lon="5.66579">
        <ele>402</ele>
        <time>2011-07-03T06:50:23.000Z</time>
      </trkpt>
      <trkpt lat="49.52156" lon="5.66623">
        <ele>397</ele>
        <time>2011-07-03T06:50:32.000Z</time>
      </trkpt>
      <trkpt lat="49.52151" lon="5.66627">
        <ele>396</ele>
        <time>2011-07-03T06:50:33.000Z</time>
      </trkpt>
      <trkpt lat="49.52108" lon="5.66666">
        <ele>398</ele>
        <time>2011-07-03T06:50:42.000Z</time>
      </trkpt>
      <trkpt lat="49.52103" lon="5.66672">
        <ele>399</ele>
        <time>2011-07-03T06:50:43.000Z</time>
      </trkpt>
      <trkpt lat="49.52084" lon="5.66699">
        <ele>399</ele>
        <time>2011-07-03T06:50:47.000Z</time>
      </trkpt>
      <trkpt lat="49.52062" lon="5.66742">
        <ele>394</ele>
        <time>2011-07-03T06:50:52.000Z</time>
      </trkpt>
      <trkpt lat="49.52045" lon="5.66791">
        <ele>388</ele>
        <time>2011-07-03T06:50:58.000Z</time>
      </trkpt>
      <trkpt lat="49.52032" lon="5.66816">
        <ele>391</ele>
        <time>2011-07-03T06:51:03.000Z</time>
      </trkpt>
      <trkpt lat="49.52029" lon="5.66825">
        <ele>392</ele>
        <time>2011-07-03T06:51:05.000Z</time>
      </trkpt>
      <trkpt lat="49.52022" lon="5.66842">
        <ele>400</ele>
        <time>2011-07-03T06:51:11.000Z</time>
      </trkpt>
      <trkpt lat="49.52019" lon="5.66837">
        <ele>409</ele>
        <time>2011-07-03T06:51:19.000Z</time>
      </trkpt>
      <trkpt lat="49.52018" lon="5.66828">
        <ele>411</ele>
        <time>2011-07-03T06:51:23.000Z</time>
      </trkpt>
      <trkpt lat="49.52016" lon="5.6681">
        <ele>408</ele>
        <time>2011-07-03T06:51:31.000Z</time>
      </trkpt>
      <trkpt lat="49.52" lon="5.66776">
        <ele>404</ele>
        <time>2011-07-03T06:51:40.000Z</time>
      </trkpt>
      <trkpt lat="49.51974" lon="5.66713">
        <ele>388</ele>
        <time>2011-07-03T06:51:50.000Z</time>
      </trkpt>
      <trkpt lat="49.51971" lon="5.66706">
        <ele>387</ele>
        <time>2011-07-03T06:51:51.000Z</time>
      </trkpt>
      <trkpt lat="49.51953" lon="5.66652">
        <ele>377</ele>
        <time>2011-07-03T06:51:58.000Z</time>
      </trkpt>
      <trkpt lat="49.51949" lon="5.66644">
        <ele>377</ele>
        <time>2011-07-03T06:51:59.000Z</time>
      </trkpt>
      <trkpt lat="49.51931" lon="5.6661">
        <ele>380</ele>
        <time>2011-07-03T06:52:04.000Z</time>
      </trkpt>
      <trkpt lat="49.51913" lon="5.66578">
        <ele>387</ele>
        <time>2011-07-03T06:52:09.000Z</time>
      </trkpt>
      <trkpt lat="49.51905" lon="5.66531">
        <ele>390</ele>
        <time>2011-07-03T06:52:16.000Z</time>
      </trkpt>
      <trkpt lat="49.51889" lon="5.66497">
        <ele>392</ele>
        <time>2011-07-03T06:52:23.000Z</time>
      </trkpt>
      <trkpt lat="49.51878" lon="5.66477">
        <ele>394</ele>
        <time>2011-07-03T06:52:27.000Z</time>
      </trkpt>
      <trkpt lat="49.51876" lon="5.66466">
        <ele>394</ele>
        <time>2011-07-03T06:52:29.000Z</time>
      </trkpt>
      <trkpt lat="49.51869" lon="5.66445">
        <ele>396</ele>
        <time>2011-07-03T06:52:32.000Z</time>
      </trkpt>
      <trkpt lat="49.51853" lon="5.66424">
        <ele>398</ele>
        <time>2011-07-03T06:52:36.000Z</time>
      </trkpt>
      <trkpt lat="49.51822" lon="5.66392">
        <ele>401</ele>
        <time>2011-07-03T06:52:43.000Z</time>
      </trkpt>
      <trkpt lat="49.51795" lon="5.66361">
        <ele>403</ele>
        <time>2011-07-03T06:52:50.000Z</time>
      </trkpt>
      <trkpt lat="49.51772" lon="5.6633">
        <ele>409</ele>
        <time>2011-07-03T06:52:57.000Z</time>
      </trkpt>
      <trkpt lat="49.51753" lon="5.66318">
        <ele>411</ele>
        <time>2011-07-03T06:53:02.000Z</time>
      </trkpt>
      <trkpt lat="49.51742" lon="5.663">
        <ele>413</ele>
        <time>2011-07-03T06:53:06.000Z</time>
      </trkpt>
      <trkpt lat="49.51722" lon="5.66232">
        <ele>414</ele>
        <time>2011-07-03T06:53:17.000Z</time>
      </trkpt>
      <trkpt lat="49.5172" lon="5.66226">
        <ele>413</ele>
        <time>2011-07-03T06:53:18.000Z</time>
      </trkpt>
      <trkpt lat="49.51716" lon="5.66216">
        <ele>410</ele>
        <time>2011-07-03T06:53:20.000Z</time>
      </trkpt>
      <trkpt lat="49.51714" lon="5.66204">
        <ele>407</ele>
        <time>2011-07-03T06:53:22.000Z</time>
      </trkpt>
      <trkpt lat="49.51708" lon="5.66187">
        <ele>404</ele>
        <time>2011-07-03T06:53:25.000Z</time>
      </trkpt>
      <trkpt lat="49.51699" lon="5.66163">
        <ele>399</ele>
        <time>2011-07-03T06:53:29.000Z</time>
      </trkpt>
      <trkpt lat="49.51693" lon="5.66131">
        <ele>399</ele>
        <time>2011-07-03T06:53:33.000Z</time>
      </trkpt>
      <trkpt lat="49.51683" lon="5.66093">
        <ele>400</ele>
        <time>2011-07-03T06:53:39.000Z</time>
      </trkpt>
      <trkpt lat="49.5165" lon="5.66045">
        <ele>399</ele>
        <time>2011-07-03T06:53:47.000Z</time>
      </trkpt>
      <trkpt lat="49.51648" lon="5.66042">
        <ele>398</ele>
        <time>2011-07-03T06:53:48.000Z</time>
      </trkpt>
      <trkpt lat="49.51634" lon="5.66022">
        <ele>410</ele>
        <time>2011-07-03T06:54:06.000Z</time>
      </trkpt>
      <trkpt lat="49.51628" lon="5.66031">
        <ele>409</ele>
        <time>2011-07-03T06:54:18.000Z</time>
      </trkpt>
      <trkpt lat="49.51623" lon="5.66035">
        <ele>408</ele>
        <time>2011-07-03T06:54:20.000Z</time>
      </trkpt>
      <trkpt lat="49.51611" lon="5.66048">
        <ele>408</ele>
        <time>2011-07-03T06:54:28.000Z</time>
      </trkpt>
      <trkpt lat="49.51607" lon="5.66042">
        <ele>408</ele>
        <time>2011-07-03T06:54:30.000Z</time>
      </trkpt>
      <trkpt lat="49.51592" lon="5.66019">
        <ele>408</ele>
        <time>2011-07-03T06:54:36.000Z</time>
      </trkpt>
      <trkpt lat="49.51583" lon="5.66007">
        <ele>407</ele>
        <time>2011-07-03T06:54:40.000Z</time>
      </trkpt>
      <trkpt lat="49.51576" lon="5.65998">
        <ele>404</ele>
        <time>2011-07-03T06:54:43.000Z</time>
      </trkpt>
      <trkpt lat="49.51539" lon="5.65946">
        <ele>396</ele>
        <time>2011-07-03T06:54:53.000Z</time>
      </trkpt>
      <trkpt lat="49.51535" lon="5.6594">
        <ele>396</ele>
        <time>2011-07-03T06:54:54.000Z</time>
      </trkpt>
      <trkpt lat="49.51503" lon="5.65889">
        <ele>392</ele>
        <time>2011-07-03T06:55:03.000Z</time>
      </trkpt>
      <trkpt lat="49.515" lon="5.65886">
        <ele>392</ele>
        <time>2011-07-03T06:55:04.000Z</time>
      </trkpt>
      <trkpt lat="49.51496" lon="5.65877">
        <ele>393</ele>
        <time>2011-07-03T06:55:06.000Z</time>
      </trkpt>
      <trkpt lat="49.51492" lon="5.65867">
        <ele>395</ele>
        <time>2011-07-03T06:55:08.000Z</time>
      </trkpt>
      <trkpt lat="49.51477" lon="5.65841">
        <ele>397</ele>
        <time>2011-07-03T06:55:13.000Z</time>
      </trkpt>
      <trkpt lat="49.51464" lon="5.65823">
        <ele>398</ele>
        <time>2011-07-03T06:55:17.000Z</time>
      </trkpt>
      <trkpt lat="49.51454" lon="5.65807">
        <ele>398</ele>
        <time>2011-07-03T06:55:20.000Z</time>
      </trkpt>
      <trkpt lat="49.51436" lon="5.65772">
        <ele>400</ele>
        <time>2011-07-03T06:55:26.000Z</time>
      </trkpt>
      <trkpt lat="49.51433" lon="5.65761">
        <ele>401</ele>
        <time>2011-07-03T06:55:28.000Z</time>
      </trkpt>
      <trkpt lat="49.51437" lon="5.65747">
        <ele>400</ele>
        <time>2011-07-03T06:55:32.000Z</time>
      </trkpt>
      <trkpt lat="49.51441" lon="5.65741">
        <ele>399</ele>
        <time>2011-07-03T06:55:34.000Z</time>
      </trkpt>
      <trkpt lat="49.51445" lon="5.65735">
        <ele>397</ele>
        <time>2011-07-03T06:55:36.000Z</time>
      </trkpt>
      <trkpt lat="49.51457" lon="5.65728">
        <ele>393</ele>
        <time>2011-07-03T06:55:40.000Z</time>
      </trkpt>
      <trkpt lat="49.51502" lon="5.65688">
        <ele>385</ele>
        <time>2011-07-03T06:55:55.000Z</time>
      </trkpt>
      <trkpt lat="49.51506" lon="5.65685">
        <ele>385</ele>
        <time>2011-07-03T06:55:56.000Z</time>
      </trkpt>
      <trkpt lat="49.51549" lon="5.65653">
        <ele>384</ele>
        <time>2011-07-03T06:56:04.000Z</time>
      </trkpt>
      <trkpt lat="49.51553" lon="5.65649">
        <ele>384</ele>
        <time>2011-07-03T06:56:05.000Z</time>
      </trkpt>
      <trkpt lat="49.51594" lon="5.65615">
        <ele>385</ele>
        <time>2011-07-03T06:56:15.000Z</time>
      </trkpt>
      <trkpt lat="49.51598" lon="5.65612">
        <ele>385</ele>
        <time>2011-07-03T06:56:16.000Z</time>
      </trkpt>
      <trkpt lat="49.51641" lon="5.65587">
        <ele>386</ele>
        <time>2011-07-03T06:56:25.000Z</time>
      </trkpt>
      <trkpt lat="49.51647" lon="5.65585">
        <ele>386</ele>
        <time>2011-07-03T06:56:26.000Z</time>
      </trkpt>
      <trkpt lat="49.51733" lon="5.65566">
        <ele>394</ele>
        <time>2011-07-03T06:56:41.000Z</time>
      </trkpt>
      <trkpt lat="49.51737" lon="5.65565">
        <ele>394</ele>
        <time>2011-07-03T06:56:42.000Z</time>
      </trkpt>
      <trkpt lat="49.51757" lon="5.65552">
        <ele>395</ele>
        <time>2011-07-03T06:56:47.000Z</time>
      </trkpt>
      <trkpt lat="49.5179" lon="5.65503">
        <ele>393</ele>
        <time>2011-07-03T06:56:55.000Z</time>
      </trkpt>
      <trkpt lat="49.51794" lon="5.65499">
        <ele>392</ele>
        <time>2011-07-03T06:56:56.000Z</time>
      </trkpt>
      <trkpt lat="49.51832" lon="5.65466">
        <ele>392</ele>
        <time>2011-07-03T06:57:06.000Z</time>
      </trkpt>
      <trkpt lat="49.51839" lon="5.65462">
        <ele>392</ele>
        <time>2011-07-03T06:57:08.000Z</time>
      </trkpt>
      <trkpt lat="49.51859" lon="5.65448">
        <ele>390</ele>
        <time>2011-07-03T06:57:15.000Z</time>
      </trkpt>
      <trkpt lat="49.51868" lon="5.65431">
        <ele>390</ele>
        <time>2011-07-03T06:57:20.000Z</time>
      </trkpt>
      <trkpt lat="49.51872" lon="5.65417">
        <ele>390</ele>
        <time>2011-07-03T06:57:23.000Z</time>
      </trkpt>
      <trkpt lat="49.51875" lon="5.65407">
        <ele>390</ele>
        <time>2011-07-03T06:57:25.000Z</time>
      </trkpt>
      <trkpt lat="49.5188" lon="5.65395">
        <ele>389</ele>
        <time>2011-07-03T06:57:28.000Z</time>
      </trkpt>
      <trkpt lat="49.51894" lon="5.65368">
        <ele>388</ele>
        <time>2011-07-03T06:57:36.000Z</time>
      </trkpt>
      <trkpt lat="49.51899" lon="5.65362">
        <ele>389</ele>
        <time>2011-07-03T06:57:38.000Z</time>
      </trkpt>
      <trkpt lat="49.51911" lon="5.65351">
        <ele>390</ele>
        <time>2011-07-03T06:57:44.000Z</time>
      </trkpt>
      <trkpt lat="49.51916" lon="5.65344">
        <ele>391</ele>
        <time>2011-07-03T06:57:47.000Z</time>
      </trkpt>
      <trkpt lat="49.51943" lon="5.65307">
        <ele>395</ele>
        <time>2011-07-03T06:57:59.000Z</time>
      </trkpt>
      <trkpt lat="49.51955" lon="5.65294">
        <ele>395</ele>
        <time>2011-07-03T06:58:03.000Z</time>
      </trkpt>
      <trkpt lat="49.5196" lon="5.65286">
        <ele>396</ele>
        <time>2011-07-03T06:58:05.000Z</time>
      </trkpt>
      <trkpt lat="49.51965" lon="5.65262">
        <ele>403</ele>
        <time>2011-07-03T06:58:11.000Z</time>
      </trkpt>
      <trkpt lat="49.51973" lon="5.65253">
        <ele>405</ele>
        <time>2011-07-03T06:58:16.000Z</time>
      </trkpt>
      <trkpt lat="49.51985" lon="5.65253">
        <ele>407</ele>
        <time>2011-07-03T06:58:20.000Z</time>
      </trkpt>
      <trkpt lat="49.5199" lon="5.6526">
        <ele>407</ele>
        <time>2011-07-03T06:58:23.000Z</time>
      </trkpt>
      <trkpt lat="49.51995" lon="5.65268">
        <ele>407</ele>
        <time>2011-07-03T06:58:25.000Z</time>
      </trkpt>
      <trkpt lat="49.52007" lon="5.65276">
        <ele>404</ele>
        <time>2011-07-03T06:58:29.000Z</time>
      </trkpt>
      <trkpt lat="49.52015" lon="5.65287">
        <ele>404</ele>
        <time>2011-07-03T06:58:32.000Z</time>
      </trkpt>
      <trkpt lat="49.52018" lon="5.65294">
        <ele>404</ele>
        <time>2011-07-03T06:58:34.000Z</time>
      </trkpt>
      <trkpt lat="49.52023" lon="5.65303">
        <ele>404</ele>
        <time>2011-07-03T06:58:37.000Z</time>
      </trkpt>
      <trkpt lat="49.52038" lon="5.6532">
        <ele>404</ele>
        <time>2011-07-03T06:58:42.000Z</time>
      </trkpt>
      <trkpt lat="49.52047" lon="5.65331">
        <ele>405</ele>
        <time>2011-07-03T06:58:45.000Z</time>
      </trkpt>
      <trkpt lat="49.52057" lon="5.65348">
        <ele>406</ele>
        <time>2011-07-03T06:58:49.000Z</time>
      </trkpt>
      <trkpt lat="49.52066" lon="5.65354">
        <ele>404</ele>
        <time>2011-07-03T06:58:52.000Z</time>
      </trkpt>
      <trkpt lat="49.52092" lon="5.6536">
        <ele>402</ele>
        <time>2011-07-03T06:59:01.000Z</time>
      </trkpt>
      <trkpt lat="49.52096" lon="5.65367">
        <ele>405</ele>
        <time>2011-07-03T06:59:04.000Z</time>
      </trkpt>
      <trkpt lat="49.52108" lon="5.65381">
        <ele>415</ele>
        <time>2011-07-03T06:59:10.000Z</time>
      </trkpt>
      <trkpt lat="49.52122" lon="5.65388">
        <ele>420</ele>
        <time>2011-07-03T06:59:14.000Z</time>
      </trkpt>
      <trkpt lat="49.52128" lon="5.65395">
        <ele>421</ele>
        <time>2011-07-03T06:59:16.000Z</time>
      </trkpt>
      <trkpt lat="49.52149" lon="5.65433">
        <ele>415</ele>
        <time>2011-07-03T06:59:27.000Z</time>
      </trkpt>
      <trkpt lat="49.52172" lon="5.65478">
        <ele>407</ele>
        <time>2011-07-03T06:59:34.000Z</time>
      </trkpt>
      <trkpt lat="49.52175" lon="5.65484">
        <ele>406</ele>
        <time>2011-07-03T06:59:37.000Z</time>
      </trkpt>
      <trkpt lat="49.52179" lon="5.65496">
        <ele>405</ele>
        <time>2011-07-03T06:59:41.000Z</time>
      </trkpt>
      <trkpt lat="49.52186" lon="5.65519">
        <ele>405</ele>
        <time>2011-07-03T06:59:45.000Z</time>
      </trkpt>
      <trkpt lat="49.52223" lon="5.65568">
        <ele>404</ele>
        <time>2011-07-03T06:59:55.000Z</time>
      </trkpt>
      <trkpt lat="49.52227" lon="5.65573">
        <ele>404</ele>
        <time>2011-07-03T06:59:56.000Z</time>
      </trkpt>
      <trkpt lat="49.52262" lon="5.65618">
        <ele>405</ele>
        <time>2011-07-03T07:00:06.000Z</time>
      </trkpt>
      <trkpt lat="49.52266" lon="5.65622">
        <ele>405</ele>
        <time>2011-07-03T07:00:07.000Z</time>
      </trkpt>
      <trkpt lat="49.52298" lon="5.65672">
        <ele>394</ele>
        <time>2011-07-03T07:00:17.000Z</time>
      </trkpt>
      <trkpt lat="49.52303" lon="5.65677">
        <ele>393</ele>
        <time>2011-07-03T07:00:18.000Z</time>
      </trkpt>
      <trkpt lat="49.52337" lon="5.6573">
        <ele>399</ele>
        <time>2011-07-03T07:00:29.000Z</time>
      </trkpt>
      <trkpt lat="49.52339" lon="5.65733">
        <ele>400</ele>
        <time>2011-07-03T07:00:30.000Z</time>
      </trkpt>
      <trkpt lat="49.52341" lon="5.65735">
        <ele>400</ele>
        <time>2011-07-03T07:00:31.000Z</time>
      </trkpt>
      <trkpt lat="49.52362" lon="5.65762">
        <ele>402</ele>
        <time>2011-07-03T07:00:39.000Z</time>
      </trkpt>
      <trkpt lat="49.5237" lon="5.65764">
        <ele>402</ele>
        <time>2011-07-03T07:00:41.000Z</time>
      </trkpt>
      <trkpt lat="49.52379" lon="5.65763">
        <ele>398</ele>
        <time>2011-07-03T07:00:45.000Z</time>
      </trkpt>
      <trkpt lat="49.52401" lon="5.65759">
        <ele>387</ele>
        <time>2011-07-03T07:00:51.000Z</time>
      </trkpt>
      <trkpt lat="49.52448" lon="5.65764">
        <ele>380</ele>
        <time>2011-07-03T07:00:59.000Z</time>
      </trkpt>
      <trkpt lat="49.52453" lon="5.65764">
        <ele>379</ele>
        <time>2011-07-03T07:01:00.000Z</time>
      </trkpt>
      <trkpt lat="49.52457" lon="5.65762">
        <ele>379</ele>
        <time>2011-07-03T07:01:01.000Z</time>
      </trkpt>
      <trkpt lat="49.52466" lon="5.65746">
        <ele>379</ele>
        <time>2011-07-03T07:01:04.000Z</time>
      </trkpt>
      <trkpt lat="49.5247" lon="5.65729">
        <ele>378</ele>
        <time>2011-07-03T07:01:07.000Z</time>
      </trkpt>
      <trkpt lat="49.52471" lon="5.6571">
        <ele>369</ele>
        <time>2011-07-03T07:01:13.000Z</time>
      </trkpt>
      <trkpt lat="49.52473" lon="5.65701">
        <ele>365</ele>
        <time>2011-07-03T07:01:16.000Z</time>
      </trkpt>
      <trkpt lat="49.52482" lon="5.65672">
        <ele>361</ele>
        <time>2011-07-03T07:01:22.000Z</time>
      </trkpt>
      <trkpt lat="49.52484" lon="5.65661">
        <ele>363</ele>
        <time>2011-07-03T07:01:24.000Z</time>
      </trkpt>
      <trkpt lat="49.52485" lon="5.65625">
        <ele>371</ele>
        <time>2011-07-03T07:01:30.000Z</time>
      </trkpt>
      <trkpt lat="49.52479" lon="5.65616">
        <ele>376</ele>
        <time>2011-07-03T07:01:36.000Z</time>
      </trkpt>
      <trkpt lat="49.52476" lon="5.65606">
        <ele>380</ele>
        <time>2011-07-03T07:01:40.000Z</time>
      </trkpt>
      <trkpt lat="49.52468" lon="5.6558">
        <ele>383</ele>
        <time>2011-07-03T07:01:49.000Z</time>
      </trkpt>
      <trkpt lat="49.52471" lon="5.65555">
        <ele>381</ele>
        <time>2011-07-03T07:01:55.000Z</time>
      </trkpt>
      <trkpt lat="49.5247" lon="5.65538">
        <ele>380</ele>
        <time>2011-07-03T07:01:58.000Z</time>
      </trkpt>
      <trkpt lat="49.52471" lon="5.65512">
        <ele>381</ele>
        <time>2011-07-03T07:02:02.000Z</time>
      </trkpt>
      <trkpt lat="49.52464" lon="5.65449">
        <ele>382</ele>
        <time>2011-07-03T07:02:12.000Z</time>
      </trkpt>
      <trkpt lat="49.52451" lon="5.65388">
        <ele>385</ele>
        <time>2011-07-03T07:02:22.000Z</time>
      </trkpt>
      <trkpt lat="49.52449" lon="5.65373">
        <ele>386</ele>
        <time>2011-07-03T07:02:25.000Z</time>
      </trkpt>
      <trkpt lat="49.52433" lon="5.6531">
        <ele>389</ele>
        <time>2011-07-03T07:02:34.000Z</time>
      </trkpt>
      <trkpt lat="49.5243" lon="5.65304">
        <ele>389</ele>
        <time>2011-07-03T07:02:35.000Z</time>
      </trkpt>
      <trkpt lat="49.52429" lon="5.65296">
        <ele>389</ele>
        <time>2011-07-03T07:02:36.000Z</time>
      </trkpt>
      <trkpt lat="49.52425" lon="5.65267">
        <ele>390</ele>
        <time>2011-07-03T07:02:39.000Z</time>
      </trkpt>
      <trkpt lat="49.52419" lon="5.65245">
        <ele>388</ele>
        <time>2011-07-03T07:02:43.000Z</time>
      </trkpt>
      <trkpt lat="49.5242" lon="5.65238">
        <ele>385</ele>
        <time>2011-07-03T07:02:45.000Z</time>
      </trkpt>
      <trkpt lat="49.52433" lon="5.65222">
        <ele>370</ele>
        <time>2011-07-03T07:02:51.000Z</time>
      </trkpt>
      <trkpt lat="49.52439" lon="5.6521">
        <ele>363</ele>
        <time>2011-07-03T07:02:54.000Z</time>
      </trkpt>
      <trkpt lat="49.52442" lon="5.65197">
        <ele>361</ele>
        <time>2011-07-03T07:02:57.000Z</time>
      </trkpt>
      <trkpt lat="49.52431" lon="5.65168">
        <ele>362</ele>
        <time>2011-07-03T07:03:03.000Z</time>
      </trkpt>
      <trkpt lat="49.5242" lon="5.6514">
        <ele>361</ele>
        <time>2011-07-03T07:03:08.000Z</time>
      </trkpt>
      <trkpt lat="49.52378" lon="5.65056">
        <ele>367</ele>
        <time>2011-07-03T07:03:24.000Z</time>
      </trkpt>
      <trkpt lat="49.52378" lon="5.65056">
        <ele>368</ele>
        <time>2011-07-03T07:03:25.000Z</time>
      </trkpt>
      <trkpt lat="49.52381" lon="5.65051">
        <ele>375</ele>
        <time>2011-07-03T07:03:29.000Z</time>
      </trkpt>
      <trkpt lat="49.5238" lon="5.65043">
        <ele>382</ele>
        <time>2011-07-03T07:03:39.000Z</time>
      </trkpt>
      <trkpt lat="49.52375" lon="5.65037">
        <ele>383</ele>
        <time>2011-07-03T07:03:45.000Z</time>
      </trkpt>
      <trkpt lat="49.52365" lon="5.65022">
        <ele>384</ele>
        <time>2011-07-03T07:03:50.000Z</time>
      </trkpt>
      <trkpt lat="49.52354" lon="5.65018">
        <ele>382</ele>
        <time>2011-07-03T07:03:54.000Z</time>
      </trkpt>
      <trkpt lat="49.52339" lon="5.65024">
        <ele>368</ele>
        <time>2011-07-03T07:04:02.000Z</time>
      </trkpt>
      <trkpt lat="49.52328" lon="5.65028">
        <ele>364</ele>
        <time>2011-07-03T07:04:08.000Z</time>
      </trkpt>
      <trkpt lat="49.52319" lon="5.65022">
        <ele>365</ele>
        <time>2011-07-03T07:04:15.000Z</time>
      </trkpt>
      <trkpt lat="49.52308" lon="5.65021">
        <ele>368</ele>
        <time>2011-07-03T07:04:21.000Z</time>
      </trkpt>
      <trkpt lat="49.52284" lon="5.65022">
        <ele>385</ele>
        <time>2011-07-03T07:04:41.000Z</time>
      </trkpt>
      <trkpt lat="49.52277" lon="5.65022">
        <ele>387</ele>
        <time>2011-07-03T07:04:46.000Z</time>
      </trkpt>
      <trkpt lat="49.52263" lon="5.65019">
        <ele>385</ele>
        <time>2011-07-03T07:04:57.000Z</time>
      </trkpt>
      <trkpt lat="49.52256" lon="5.65017">
        <ele>384</ele>
        <time>2011-07-03T07:05:07.000Z</time>
      </trkpt>
      <trkpt lat="49.52242" lon="5.65019">
        <ele>389</ele>
        <time>2011-07-03T07:05:24.000Z</time>
      </trkpt>
      <trkpt lat="49.52237" lon="5.65015">
        <ele>391</ele>
        <time>2011-07-03T07:05:29.000Z</time>
      </trkpt>
      <trkpt lat="49.52229" lon="5.65012">
        <ele>392</ele>
        <time>2011-07-03T07:05:34.000Z</time>
      </trkpt>
      <trkpt lat="49.5222" lon="5.65013">
        <ele>392</ele>
        <time>2011-07-03T07:05:38.000Z</time>
      </trkpt>
      <trkpt lat="49.52197" lon="5.65021">
        <ele>396</ele>
        <time>2011-07-03T07:05:55.000Z</time>
      </trkpt>
      <trkpt lat="49.5219" lon="5.65018">
        <ele>396</ele>
        <time>2011-07-03T07:05:58.000Z</time>
      </trkpt>
      <trkpt lat="49.52176" lon="5.65017">
        <ele>397</ele>
        <time>2011-07-03T07:06:03.000Z</time>
      </trkpt>
      <trkpt lat="49.52173" lon="5.65023">
        <ele>398</ele>
        <time>2011-07-03T07:06:09.000Z</time>
      </trkpt>
      <trkpt lat="49.52167" lon="5.65054">
        <ele>397</ele>
        <time>2011-07-03T07:06:20.000Z</time>
      </trkpt>
      <trkpt lat="49.52165" lon="5.65065">
        <ele>398</ele>
        <time>2011-07-03T07:06:24.000Z</time>
      </trkpt>
      <trkpt lat="49.52167" lon="5.65076">
        <ele>403</ele>
        <time>2011-07-03T07:06:28.000Z</time>
      </trkpt>
      <trkpt lat="49.52172" lon="5.65094">
        <ele>409</ele>
        <time>2011-07-03T07:06:33.000Z</time>
      </trkpt>
      <trkpt lat="49.52172" lon="5.65102">
        <ele>410</ele>
        <time>2011-07-03T07:06:35.000Z</time>
      </trkpt>
      <trkpt lat="49.52171" lon="5.65116">
        <ele>412</ele>
        <time>2011-07-03T07:06:39.000Z</time>
      </trkpt>
      <trkpt lat="49.52172" lon="5.65126">
        <ele>412</ele>
        <time>2011-07-03T07:06:41.000Z</time>
      </trkpt>
      <trkpt lat="49.52173" lon="5.65135">
        <ele>412</ele>
        <time>2011-07-03T07:06:43.000Z</time>
      </trkpt>
      <trkpt lat="49.52177" lon="5.6518">
        <ele>413</ele>
        <time>2011-07-03T07:06:54.000Z</time>
      </trkpt>
      <trkpt lat="49.52171" lon="5.6519">
        <ele>414</ele>
        <time>2011-07-03T07:06:58.000Z</time>
      </trkpt>
      <trkpt lat="49.52153" lon="5.65207">
        <ele>413</ele>
        <time>2011-07-03T07:07:08.000Z</time>
      </trkpt>
      <trkpt lat="49.52149" lon="5.65217">
        <ele>410</ele>
        <time>2011-07-03T07:07:12.000Z</time>
      </trkpt>
      <trkpt lat="49.52143" lon="5.65239">
        <ele>404</ele>
        <time>2011-07-03T07:07:18.000Z</time>
      </trkpt>
      <trkpt lat="49.52128" lon="5.65257">
        <ele>404</ele>
        <time>2011-07-03T07:07:25.000Z</time>
      </trkpt>
      <trkpt lat="49.52121" lon="5.65263">
        <ele>408</ele>
        <time>2011-07-03T07:07:28.000Z</time>
      </trkpt>
      <trkpt lat="49.52114" lon="5.65271">
        <ele>413</ele>
        <time>2011-07-03T07:07:36.000Z</time>
      </trkpt>
      <trkpt lat="49.52101" lon="5.65267">
        <ele>412</ele>
        <time>2011-07-03T07:07:45.000Z</time>
      </trkpt>
      <trkpt lat="49.5209" lon="5.65255">
        <ele>414</ele>
        <time>2011-07-03T07:07:54.000Z</time>
      </trkpt>
      <trkpt lat="49.52082" lon="5.65262">
        <ele>414</ele>
        <time>2011-07-03T07:07:57.000Z</time>
      </trkpt>
      <trkpt lat="49.52077" lon="5.65262">
        <ele>412</ele>
        <time>2011-07-03T07:07:59.000Z</time>
      </trkpt>
      <trkpt lat="49.52047" lon="5.65249">
        <ele>409</ele>
        <time>2011-07-03T07:08:09.000Z</time>
      </trkpt>
      <trkpt lat="49.52037" lon="5.65238">
        <ele>409</ele>
        <time>2011-07-03T07:08:13.000Z</time>
      </trkpt>
      <trkpt lat="49.52032" lon="5.65217">
        <ele>412</ele>
        <time>2011-07-03T07:08:18.000Z</time>
      </trkpt>
      <trkpt lat="49.52028" lon="5.65195">
        <ele>412</ele>
        <time>2011-07-03T07:08:24.000Z</time>
      </trkpt>
      <trkpt lat="49.52011" lon="5.65169">
        <ele>420</ele>
        <time>2011-07-03T07:08:32.000Z</time>
      </trkpt>
      <trkpt lat="49.52004" lon="5.65158">
        <ele>423</ele>
        <time>2011-07-03T07:08:35.000Z</time>
      </trkpt>
      <trkpt lat="49.51997" lon="5.6515">
        <ele>424</ele>
        <time>2011-07-03T07:08:39.000Z</time>
      </trkpt>
      <trkpt lat="49.51992" lon="5.65153">
        <ele>424</ele>
        <time>2011-07-03T07:08:41.000Z</time>
      </trkpt>
      <trkpt lat="49.51969" lon="5.65164">
        <ele>413</ele>
        <time>2011-07-03T07:08:49.000Z</time>
      </trkpt>
      <trkpt lat="49.51945" lon="5.65165">
        <ele>406</ele>
        <time>2011-07-03T07:08:54.000Z</time>
      </trkpt>
      <trkpt lat="49.51933" lon="5.65157">
        <ele>401</ele>
        <time>2011-07-03T07:08:59.000Z</time>
      </trkpt>
      <trkpt lat="49.51906" lon="5.65141">
        <ele>397</ele>
        <time>2011-07-03T07:09:07.000Z</time>
      </trkpt>
      <trkpt lat="49.519" lon="5.65137">
        <ele>397</ele>
        <time>2011-07-03T07:09:09.000Z</time>
      </trkpt>
      <trkpt lat="49.51884" lon="5.65128">
        <ele>394</ele>
        <time>2011-07-03T07:09:14.000Z</time>
      </trkpt>
      <trkpt lat="49.51879" lon="5.65121">
        <ele>393</ele>
        <time>2011-07-03T07:09:16.000Z</time>
      </trkpt>
      <trkpt lat="49.51875" lon="5.65115">
        <ele>393</ele>
        <time>2011-07-03T07:09:18.000Z</time>
      </trkpt>
      <trkpt lat="49.51839" lon="5.65064">
        <ele>394</ele>
        <time>2011-07-03T07:09:31.000Z</time>
      </trkpt>
      <trkpt lat="49.51836" lon="5.65058">
        <ele>395</ele>
        <time>2011-07-03T07:09:32.000Z</time>
      </trkpt>
      <trkpt lat="49.51799" lon="5.6501">
        <ele>411</ele>
        <time>2011-07-03T07:09:42.000Z</time>
      </trkpt>
      <trkpt lat="49.51797" lon="5.65005">
        <ele>413</ele>
        <time>2011-07-03T07:09:43.000Z</time>
      </trkpt>
      <trkpt lat="49.51792" lon="5.64975">
        <ele>420</ele>
        <time>2011-07-03T07:09:48.000Z</time>
      </trkpt>
      <trkpt lat="49.51772" lon="5.64907">
        <ele>420</ele>
        <time>2011-07-03T07:09:58.000Z</time>
      </trkpt>
      <trkpt lat="49.51772" lon="5.64899">
        <ele>420</ele>
        <time>2011-07-03T07:09:59.000Z</time>
      </trkpt>
      <trkpt lat="49.51772" lon="5.64892">
        <ele>418</ele>
        <time>2011-07-03T07:10:00.000Z</time>
      </trkpt>
      <trkpt lat="49.51777" lon="5.6488">
        <ele>415</ele>
        <time>2011-07-03T07:10:02.000Z</time>
      </trkpt>
      <trkpt lat="49.51785" lon="5.64862">
        <ele>411</ele>
        <time>2011-07-03T07:10:05.000Z</time>
      </trkpt>
      <trkpt lat="49.51796" lon="5.64849">
        <ele>405</ele>
        <time>2011-07-03T07:10:08.000Z</time>
      </trkpt>
      <trkpt lat="49.51823" lon="5.64805">
        <ele>394</ele>
        <time>2011-07-03T07:10:18.000Z</time>
      </trkpt>
      <trkpt lat="49.51814" lon="5.64801">
        <ele>398</ele>
        <time>2011-07-03T07:10:21.000Z</time>
      </trkpt>
      <trkpt lat="49.51787" lon="5.64799">
        <ele>405</ele>
        <time>2011-07-03T07:10:27.000Z</time>
      </trkpt>
      <trkpt lat="49.5178" lon="5.64794">
        <ele>405</ele>
        <time>2011-07-03T07:10:29.000Z</time>
      </trkpt>
      <trkpt lat="49.51756" lon="5.64761">
        <ele>405</ele>
        <time>2011-07-03T07:10:36.000Z</time>
      </trkpt>
      <trkpt lat="49.51739" lon="5.64756">
        <ele>405</ele>
        <time>2011-07-03T07:10:39.000Z</time>
      </trkpt>
      <trkpt lat="49.51716" lon="5.64755">
        <ele>406</ele>
        <time>2011-07-03T07:10:44.000Z</time>
      </trkpt>
      <trkpt lat="49.51699" lon="5.6474">
        <ele>403</ele>
        <time>2011-07-03T07:10:48.000Z</time>
      </trkpt>
      <trkpt lat="49.51678" lon="5.64723">
        <ele>398</ele>
        <time>2011-07-03T07:10:53.000Z</time>
      </trkpt>
      <trkpt lat="49.51665" lon="5.64714">
        <ele>396</ele>
        <time>2011-07-03T07:10:56.000Z</time>
      </trkpt>
      <trkpt lat="49.51654" lon="5.64703">
        <ele>396</ele>
        <time>2011-07-03T07:10:59.000Z</time>
      </trkpt>
      <trkpt lat="49.51609" lon="5.64687">
        <ele>402</ele>
        <time>2011-07-03T07:11:09.000Z</time>
      </trkpt>
      <trkpt lat="49.51605" lon="5.64686">
        <ele>403</ele>
        <time>2011-07-03T07:11:10.000Z</time>
      </trkpt>
      <trkpt lat="49.51598" lon="5.64688">
        <ele>404</ele>
        <time>2011-07-03T07:11:12.000Z</time>
      </trkpt>
      <trkpt lat="49.51554" lon="5.64713">
        <ele>410</ele>
        <time>2011-07-03T07:11:27.000Z</time>
      </trkpt>
      <trkpt lat="49.51552" lon="5.64717">
        <ele>410</ele>
        <time>2011-07-03T07:11:28.000Z</time>
      </trkpt>
      <trkpt lat="49.51546" lon="5.64729">
        <ele>411</ele>
        <time>2011-07-03T07:11:31.000Z</time>
      </trkpt>
      <trkpt lat="49.51542" lon="5.64751">
        <ele>413</ele>
        <time>2011-07-03T07:11:36.000Z</time>
      </trkpt>
      <trkpt lat="49.51542" lon="5.64784">
        <ele>413</ele>
        <time>2011-07-03T07:11:41.000Z</time>
      </trkpt>
      <trkpt lat="49.51549" lon="5.64811">
        <ele>412</ele>
        <time>2011-07-03T07:11:45.000Z</time>
      </trkpt>
      <trkpt lat="49.51547" lon="5.64822">
        <ele>412</ele>
        <time>2011-07-03T07:11:47.000Z</time>
      </trkpt>
      <trkpt lat="49.51541" lon="5.64836">
        <ele>411</ele>
        <time>2011-07-03T07:11:50.000Z</time>
      </trkpt>
      <trkpt lat="49.51534" lon="5.64842">
        <ele>410</ele>
        <time>2011-07-03T07:11:52.000Z</time>
      </trkpt>
      <trkpt lat="49.51497" lon="5.64873">
        <ele>410</ele>
        <time>2011-07-03T07:12:02.000Z</time>
      </trkpt>
      <trkpt lat="49.51494" lon="5.64876">
        <ele>410</ele>
        <time>2011-07-03T07:12:03.000Z</time>
      </trkpt>
      <trkpt lat="49.51487" lon="5.64883">
        <ele>410</ele>
        <time>2011-07-03T07:12:05.000Z</time>
      </trkpt>
      <trkpt lat="49.51473" lon="5.64892">
        <ele>409</ele>
        <time>2011-07-03T07:12:09.000Z</time>
      </trkpt>
      <trkpt lat="49.51464" lon="5.64902">
        <ele>409</ele>
        <time>2011-07-03T07:12:12.000Z</time>
      </trkpt>
      <trkpt lat="49.51433" lon="5.64934">
        <ele>405</ele>
        <time>2011-07-03T07:12:20.000Z</time>
      </trkpt>
      <trkpt lat="49.51392" lon="5.64962">
        <ele>406</ele>
        <time>2011-07-03T07:12:28.000Z</time>
      </trkpt>
      <trkpt lat="49.51387" lon="5.64965">
        <ele>407</ele>
        <time>2011-07-03T07:12:29.000Z</time>
      </trkpt>
      <trkpt lat="49.51339" lon="5.64989">
        <ele>405</ele>
        <time>2011-07-03T07:12:38.000Z</time>
      </trkpt>
      <trkpt lat="49.51334" lon="5.64992">
        <ele>405</ele>
        <time>2011-07-03T07:12:39.000Z</time>
      </trkpt>
      <trkpt lat="49.51318" lon="5.64994">
        <ele>405</ele>
        <time>2011-07-03T07:12:42.000Z</time>
      </trkpt>
      <trkpt lat="49.513" lon="5.64996">
        <ele>406</ele>
        <time>2011-07-03T07:12:45.000Z</time>
      </trkpt>
      <trkpt lat="49.51289" lon="5.65005">
        <ele>406</ele>
        <time>2011-07-03T07:12:47.000Z</time>
      </trkpt>
      <trkpt lat="49.51247" lon="5.65044">
        <ele>404</ele>
        <time>2011-07-03T07:12:54.000Z</time>
      </trkpt>
      <trkpt lat="49.5124" lon="5.6505">
        <ele>403</ele>
        <time>2011-07-03T07:12:55.000Z</time>
      </trkpt>
      <trkpt lat="49.51203" lon="5.65079">
        <ele>398</ele>
        <time>2011-07-03T07:13:01.000Z</time>
      </trkpt>
      <trkpt lat="49.51197" lon="5.65084">
        <ele>397</ele>
        <time>2011-07-03T07:13:02.000Z</time>
      </trkpt>
      <trkpt lat="49.51152" lon="5.65119">
        <ele>393</ele>
        <time>2011-07-03T07:13:09.000Z</time>
      </trkpt>
      <trkpt lat="49.51146" lon="5.65124">
        <ele>393</ele>
        <time>2011-07-03T07:13:10.000Z</time>
      </trkpt>
      <trkpt lat="49.51104" lon="5.65159">
        <ele>391</ele>
        <time>2011-07-03T07:13:17.000Z</time>
      </trkpt>
      <trkpt lat="49.51098" lon="5.65163">
        <ele>391</ele>
        <time>2011-07-03T07:13:18.000Z</time>
      </trkpt>
      <trkpt lat="49.51084" lon="5.65178">
        <ele>391</ele>
        <time>2011-07-03T07:13:21.000Z</time>
      </trkpt>
      <trkpt lat="49.51067" lon="5.65211">
        <ele>391</ele>
        <time>2011-07-03T07:13:26.000Z</time>
      </trkpt>
      <trkpt lat="49.51057" lon="5.65242">
        <ele>392</ele>
        <time>2011-07-03T07:13:30.000Z</time>
      </trkpt>
      <trkpt lat="49.51057" lon="5.65259">
        <ele>392</ele>
        <time>2011-07-03T07:13:32.000Z</time>
      </trkpt>
      <trkpt lat="49.51065" lon="5.65291">
        <ele>392</ele>
        <time>2011-07-03T07:13:36.000Z</time>
      </trkpt>
      <trkpt lat="49.51072" lon="5.6531">
        <ele>392</ele>
        <time>2011-07-03T07:13:39.000Z</time>
      </trkpt>
      <trkpt lat="49.51082" lon="5.65327">
        <ele>394</ele>
        <time>2011-07-03T07:13:43.000Z</time>
      </trkpt>
      <trkpt lat="49.511" lon="5.65345">
        <ele>394</ele>
        <time>2011-07-03T07:13:49.000Z</time>
      </trkpt>
      <trkpt lat="49.51109" lon="5.6535">
        <ele>395</ele>
        <time>2011-07-03T07:13:51.000Z</time>
      </trkpt>
      <trkpt lat="49.51125" lon="5.65357">
        <ele>399</ele>
        <time>2011-07-03T07:13:55.000Z</time>
      </trkpt>
      <trkpt lat="49.51137" lon="5.65372">
        <ele>403</ele>
        <time>2011-07-03T07:13:58.000Z</time>
      </trkpt>
      <trkpt lat="49.51159" lon="5.65423">
        <ele>409</ele>
        <time>2011-07-03T07:14:06.000Z</time>
      </trkpt>
      <trkpt lat="49.51169" lon="5.65447">
        <ele>410</ele>
        <time>2011-07-03T07:14:10.000Z</time>
      </trkpt>
      <trkpt lat="49.51178" lon="5.65462">
        <ele>410</ele>
        <time>2011-07-03T07:14:13.000Z</time>
      </trkpt>
      <trkpt lat="49.51177" lon="5.65475">
        <ele>409</ele>
        <time>2011-07-03T07:14:15.000Z</time>
      </trkpt>
      <trkpt lat="49.51171" lon="5.65501">
        <ele>405</ele>
        <time>2011-07-03T07:14:19.000Z</time>
      </trkpt>
      <trkpt lat="49.51173" lon="5.65513">
        <ele>403</ele>
        <time>2011-07-03T07:14:21.000Z</time>
      </trkpt>
      <trkpt lat="49.51186" lon="5.65556">
        <ele>404</ele>
        <time>2011-07-03T07:14:28.000Z</time>
      </trkpt>
      <trkpt lat="49.51206" lon="5.65597">
        <ele>407</ele>
        <time>2011-07-03T07:14:35.000Z</time>
      </trkpt>
      <trkpt lat="49.51222" lon="5.65648">
        <ele>410</ele>
        <time>2011-07-03T07:14:43.000Z</time>
      </trkpt>
      <trkpt lat="49.51214" lon="5.65665">
        <ele>408</ele>
        <time>2011-07-03T07:14:46.000Z</time>
      </trkpt>
      <trkpt lat="49.51174" lon="5.65699">
        <ele>411</ele>
        <time>2011-07-03T07:14:56.000Z</time>
      </trkpt>
      <trkpt lat="49.5117" lon="5.65702">
        <ele>413</ele>
        <time>2011-07-03T07:14:57.000Z</time>
      </trkpt>
      <trkpt lat="49.51126" lon="5.65737">
        <ele>414</ele>
        <time>2011-07-03T07:15:08.000Z</time>
      </trkpt>
      <trkpt lat="49.5112" lon="5.65742">
        <ele>414</ele>
        <time>2011-07-03T07:15:09.000Z</time>
      </trkpt>
      <trkpt lat="49.51079" lon="5.65776">
        <ele>410</ele>
        <time>2011-07-03T07:15:17.000Z</time>
      </trkpt>
      <trkpt lat="49.51074" lon="5.6578">
        <ele>409</ele>
        <time>2011-07-03T07:15:18.000Z</time>
      </trkpt>
      <trkpt lat="49.51042" lon="5.65811">
        <ele>402</ele>
        <time>2011-07-03T07:15:24.000Z</time>
      </trkpt>
      <trkpt lat="49.5104" lon="5.65833">
        <ele>398</ele>
        <time>2011-07-03T07:15:27.000Z</time>
      </trkpt>
      <trkpt lat="49.51045" lon="5.65848">
        <ele>396</ele>
        <time>2011-07-03T07:15:29.000Z</time>
      </trkpt>
      <trkpt lat="49.51071" lon="5.65907">
        <ele>397</ele>
        <time>2011-07-03T07:15:37.000Z</time>
      </trkpt>
      <trkpt lat="49.51074" lon="5.65913">
        <ele>397</ele>
        <time>2011-07-03T07:15:38.000Z</time>
      </trkpt>
      <trkpt lat="49.51101" lon="5.65979">
        <ele>394</ele>
        <time>2011-07-03T07:15:47.000Z</time>
      </trkpt>
      <trkpt lat="49.51104" lon="5.65986">
        <ele>394</ele>
        <time>2011-07-03T07:15:48.000Z</time>
      </trkpt>
      <trkpt lat="49.51135" lon="5.66061">
        <ele>390</ele>
        <time>2011-07-03T07:15:58.000Z</time>
      </trkpt>
      <trkpt lat="49.51139" lon="5.66071">
        <ele>390</ele>
        <time>2011-07-03T07:15:59.000Z</time>
      </trkpt>
      <trkpt lat="49.51162" lon="5.66136">
        <ele>392</ele>
        <time>2011-07-03T07:16:06.000Z</time>
      </trkpt>
      <trkpt lat="49.51164" lon="5.66146">
        <ele>392</ele>
        <time>2011-07-03T07:16:07.000Z</time>
      </trkpt>
      <trkpt lat="49.51172" lon="5.66172">
        <ele>394</ele>
        <time>2011-07-03T07:16:10.000Z</time>
      </trkpt>
      <trkpt lat="49.51191" lon="5.66231">
        <ele>400</ele>
        <time>2011-07-03T07:16:18.000Z</time>
      </trkpt>
      <trkpt lat="49.51193" lon="5.66238">
        <ele>401</ele>
        <time>2011-07-03T07:16:19.000Z</time>
      </trkpt>
      <trkpt lat="49.51197" lon="5.66252">
        <ele>401</ele>
        <time>2011-07-03T07:16:21.000Z</time>
      </trkpt>
      <trkpt lat="49.51217" lon="5.66294">
        <ele>403</ele>
        <time>2011-07-03T07:16:28.000Z</time>
      </trkpt>
      <trkpt lat="49.51228" lon="5.66314">
        <ele>405</ele>
        <time>2011-07-03T07:16:32.000Z</time>
      </trkpt>
      <trkpt lat="49.51248" lon="5.66359">
        <ele>406</ele>
        <time>2011-07-03T07:16:39.000Z</time>
      </trkpt>
      <trkpt lat="49.51268" lon="5.6643">
        <ele>408</ele>
        <time>2011-07-03T07:16:47.000Z</time>
      </trkpt>
      <trkpt lat="49.5127" lon="5.66439">
        <ele>408</ele>
        <time>2011-07-03T07:16:48.000Z</time>
      </trkpt>
      <trkpt lat="49.51287" lon="5.66505">
        <ele>398</ele>
        <time>2011-07-03T07:16:57.000Z</time>
      </trkpt>
      <trkpt lat="49.51289" lon="5.66514">
        <ele>397</ele>
        <time>2011-07-03T07:16:58.000Z</time>
      </trkpt>
      <trkpt lat="49.5129" lon="5.66522">
        <ele>396</ele>
        <time>2011-07-03T07:16:59.000Z</time>
      </trkpt>
      <trkpt lat="49.51302" lon="5.66561">
        <ele>394</ele>
        <time>2011-07-03T07:17:04.000Z</time>
      </trkpt>
      <trkpt lat="49.51305" lon="5.66588">
        <ele>391</ele>
        <time>2011-07-03T07:17:07.000Z</time>
      </trkpt>
      <trkpt lat="49.51301" lon="5.66636">
        <ele>382</ele>
        <time>2011-07-03T07:17:12.000Z</time>
      </trkpt>
      <trkpt lat="49.51298" lon="5.66668">
        <ele>378</ele>
        <time>2011-07-03T07:17:15.000Z</time>
      </trkpt>
      <trkpt lat="49.51306" lon="5.6671">
        <ele>380</ele>
        <time>2011-07-03T07:17:20.000Z</time>
      </trkpt>
      <trkpt lat="49.51324" lon="5.66766">
        <ele>388</ele>
        <time>2011-07-03T07:17:27.000Z</time>
      </trkpt>
      <trkpt lat="49.51326" lon="5.66774">
        <ele>389</ele>
        <time>2011-07-03T07:17:28.000Z</time>
      </trkpt>
      <trkpt lat="49.51342" lon="5.66844">
        <ele>402</ele>
        <time>2011-07-03T07:17:37.000Z</time>
      </trkpt>
      <trkpt lat="49.51344" lon="5.6685">
        <ele>404</ele>
        <time>2011-07-03T07:17:38.000Z</time>
      </trkpt>
      <trkpt lat="49.5135" lon="5.66873">
        <ele>410</ele>
        <time>2011-07-03T07:17:42.000Z</time>
      </trkpt>
      <trkpt lat="49.51355" lon="5.66892">
        <ele>411</ele>
        <time>2011-07-03T07:17:45.000Z</time>
      </trkpt>
      <trkpt lat="49.51351" lon="5.66901">
        <ele>410</ele>
        <time>2011-07-03T07:17:47.000Z</time>
      </trkpt>
      <trkpt lat="49.5133" lon="5.66922">
        <ele>404</ele>
        <time>2011-07-03T07:17:52.000Z</time>
      </trkpt>
      <trkpt lat="49.51316" lon="5.66986">
        <ele>393</ele>
        <time>2011-07-03T07:17:59.000Z</time>
      </trkpt>
      <trkpt lat="49.51318" lon="5.66995">
        <ele>392</ele>
        <time>2011-07-03T07:18:00.000Z</time>
      </trkpt>
      <trkpt lat="49.5132" lon="5.67005">
        <ele>390</ele>
        <time>2011-07-03T07:18:01.000Z</time>
      </trkpt>
      <trkpt lat="49.51343" lon="5.67067">
        <ele>382</ele>
        <time>2011-07-03T07:18:08.000Z</time>
      </trkpt>
      <trkpt lat="49.51345" lon="5.67077">
        <ele>381</ele>
        <time>2011-07-03T07:18:09.000Z</time>
      </trkpt>
      <trkpt lat="49.51365" lon="5.67143">
        <ele>373</ele>
        <time>2011-07-03T07:18:16.000Z</time>
      </trkpt>
      <trkpt lat="49.51367" lon="5.67154">
        <ele>374</ele>
        <time>2011-07-03T07:18:17.000Z</time>
      </trkpt>
      <trkpt lat="49.51376" lon="5.67196">
        <ele>376</ele>
        <time>2011-07-03T07:18:22.000Z</time>
      </trkpt>
      <trkpt lat="49.51374" lon="5.67212">
        <ele>376</ele>
        <time>2011-07-03T07:18:24.000Z</time>
      </trkpt>
      <trkpt lat="49.51369" lon="5.67226">
        <ele>375</ele>
        <time>2011-07-03T07:18:26.000Z</time>
      </trkpt>
      <trkpt lat="49.51324" lon="5.6725">
        <ele>378</ele>
        <time>2011-07-03T07:18:33.000Z</time>
      </trkpt>
      <trkpt lat="49.51317" lon="5.67254">
        <ele>377</ele>
        <time>2011-07-03T07:18:34.000Z</time>
      </trkpt>
      <trkpt lat="49.51289" lon="5.67274">
        <ele>377</ele>
        <time>2011-07-03T07:18:39.000Z</time>
      </trkpt>
      <trkpt lat="49.51284" lon="5.67284">
        <ele>378</ele>
        <time>2011-07-03T07:18:41.000Z</time>
      </trkpt>
      <trkpt lat="49.51281" lon="5.67295">
        <ele>379</ele>
        <time>2011-07-03T07:18:43.000Z</time>
      </trkpt>
      <trkpt lat="49.51282" lon="5.67306">
        <ele>380</ele>
        <time>2011-07-03T07:18:45.000Z</time>
      </trkpt>
      <trkpt lat="49.51301" lon="5.67378">
        <ele>390</ele>
        <time>2011-07-03T07:18:53.000Z</time>
      </trkpt>
      <trkpt lat="49.51304" lon="5.67386">
        <ele>391</ele>
        <time>2011-07-03T07:18:54.000Z</time>
      </trkpt>
      <trkpt lat="49.51323" lon="5.67456">
        <ele>394</ele>
        <time>2011-07-03T07:19:03.000Z</time>
      </trkpt>
      <trkpt lat="49.51326" lon="5.67466">
        <ele>395</ele>
        <time>2011-07-03T07:19:04.000Z</time>
      </trkpt>
      <trkpt lat="49.51329" lon="5.67481">
        <ele>396</ele>
        <time>2011-07-03T07:19:06.000Z</time>
      </trkpt>
      <trkpt lat="49.51336" lon="5.67509">
        <ele>396</ele>
        <time>2011-07-03T07:19:10.000Z</time>
      </trkpt>
      <trkpt lat="49.51363" lon="5.67576">
        <ele>385</ele>
        <time>2011-07-03T07:19:19.000Z</time>
      </trkpt>
      <trkpt lat="49.51365" lon="5.67583">
        <ele>384</ele>
        <time>2011-07-03T07:19:20.000Z</time>
      </trkpt>
      <trkpt lat="49.51384" lon="5.67646">
        <ele>381</ele>
        <time>2011-07-03T07:19:29.000Z</time>
      </trkpt>
      <trkpt lat="49.51383" lon="5.67651">
        <ele>380</ele>
        <time>2011-07-03T07:19:30.000Z</time>
      </trkpt>
      <trkpt lat="49.51381" lon="5.67655">
        <ele>379</ele>
        <time>2011-07-03T07:19:31.000Z</time>
      </trkpt>
      <trkpt lat="49.51375" lon="5.67663">
        <ele>377</ele>
        <time>2011-07-03T07:19:33.000Z</time>
      </trkpt>
      <trkpt lat="49.51335" lon="5.67689">
        <ele>378</ele>
        <time>2011-07-03T07:19:42.000Z</time>
      </trkpt>
      <trkpt lat="49.5133" lon="5.67692">
        <ele>379</ele>
        <time>2011-07-03T07:19:43.000Z</time>
      </trkpt>
      <trkpt lat="49.51312" lon="5.67705">
        <ele>382</ele>
        <time>2011-07-03T07:19:48.000Z</time>
      </trkpt>
      <trkpt lat="49.51313" lon="5.67717">
        <ele>386</ele>
        <time>2011-07-03T07:19:51.000Z</time>
      </trkpt>
      <trkpt lat="49.51317" lon="5.67728">
        <ele>387</ele>
        <time>2011-07-03T07:19:53.000Z</time>
      </trkpt>
      <trkpt lat="49.51328" lon="5.67785">
        <ele>392</ele>
        <time>2011-07-03T07:20:03.000Z</time>
      </trkpt>
      <trkpt lat="49.51334" lon="5.678">
        <ele>394</ele>
        <time>2011-07-03T07:20:06.000Z</time>
      </trkpt>
      <trkpt lat="49.51344" lon="5.678">
        <ele>394</ele>
        <time>2011-07-03T07:20:08.000Z</time>
      </trkpt>
      <trkpt lat="49.51355" lon="5.67792">
        <ele>395</ele>
        <time>2011-07-03T07:20:11.000Z</time>
      </trkpt>
      <trkpt lat="49.51397" lon="5.67756">
        <ele>383</ele>
        <time>2011-07-03T07:20:22.000Z</time>
      </trkpt>
      <trkpt lat="49.51401" lon="5.67754">
        <ele>382</ele>
        <time>2011-07-03T07:20:23.000Z</time>
      </trkpt>
      <trkpt lat="49.51443" lon="5.67731">
        <ele>376</ele>
        <time>2011-07-03T07:20:35.000Z</time>
      </trkpt>
      <trkpt lat="49.51446" lon="5.67728">
        <ele>376</ele>
        <time>2011-07-03T07:20:36.000Z</time>
      </trkpt>
      <trkpt lat="49.5145" lon="5.67725">
        <ele>376</ele>
        <time>2011-07-03T07:20:37.000Z</time>
      </trkpt>
      <trkpt lat="49.51461" lon="5.67717">
        <ele>375</ele>
        <time>2011-07-03T07:20:40.000Z</time>
      </trkpt>
      <trkpt lat="49.51505" lon="5.67688">
        <ele>379</ele>
        <time>2011-07-03T07:20:50.000Z</time>
      </trkpt>
      <trkpt lat="49.5151" lon="5.67684">
        <ele>380</ele>
        <time>2011-07-03T07:20:51.000Z</time>
      </trkpt>
      <trkpt lat="49.51553" lon="5.67663">
        <ele>383</ele>
        <time>2011-07-03T07:21:01.000Z</time>
      </trkpt>
      <trkpt lat="49.51558" lon="5.67661">
        <ele>383</ele>
        <time>2011-07-03T07:21:02.000Z</time>
      </trkpt>
      <trkpt lat="49.5158" lon="5.67653">
        <ele>381</ele>
        <time>2011-07-03T07:21:06.000Z</time>
      </trkpt>
      <trkpt lat="49.51628" lon="5.67636">
        <ele>380</ele>
        <time>2011-07-03T07:21:15.000Z</time>
      </trkpt>
      <trkpt lat="49.51634" lon="5.67634">
        <ele>380</ele>
        <time>2011-07-03T07:21:16.000Z</time>
      </trkpt>
      <trkpt lat="49.5167" lon="5.67621">
        <ele>381</ele>
        <time>2011-07-03T07:21:23.000Z</time>
      </trkpt>
      <trkpt lat="49.51677" lon="5.67614">
        <ele>380</ele>
        <time>2011-07-03T07:21:25.000Z</time>
      </trkpt>
      <trkpt lat="49.51682" lon="5.67601">
        <ele>379</ele>
        <time>2011-07-03T07:21:27.000Z</time>
      </trkpt>
      <trkpt lat="49.51682" lon="5.67585">
        <ele>379</ele>
        <time>2011-07-03T07:21:29.000Z</time>
      </trkpt>
      <trkpt lat="49.51682" lon="5.67514">
        <ele>379</ele>
        <time>2011-07-03T07:21:38.000Z</time>
      </trkpt>
      <trkpt lat="49.51682" lon="5.67506">
        <ele>379</ele>
        <time>2011-07-03T07:21:39.000Z</time>
      </trkpt>
      <trkpt lat="49.5168" lon="5.67433">
        <ele>378</ele>
        <time>2011-07-03T07:21:48.000Z</time>
      </trkpt>
      <trkpt lat="49.5168" lon="5.67424">
        <ele>378</ele>
        <time>2011-07-03T07:21:49.000Z</time>
      </trkpt>
      <trkpt lat="49.51683" lon="5.67398">
        <ele>379</ele>
        <time>2011-07-03T07:21:52.000Z</time>
      </trkpt>
      <trkpt lat="49.51685" lon="5.67376">
        <ele>380</ele>
        <time>2011-07-03T07:21:55.000Z</time>
      </trkpt>
      <trkpt lat="49.51688" lon="5.67334">
        <ele>377</ele>
        <time>2011-07-03T07:22:02.000Z</time>
      </trkpt>
      <trkpt lat="49.517" lon="5.67255">
        <ele>378</ele>
        <time>2011-07-03T07:22:13.000Z</time>
      </trkpt>
      <trkpt lat="49.51702" lon="5.67248">
        <ele>378</ele>
        <time>2011-07-03T07:22:14.000Z</time>
      </trkpt>
      <trkpt lat="49.51705" lon="5.67242">
        <ele>378</ele>
        <time>2011-07-03T07:22:15.000Z</time>
      </trkpt>
      <trkpt lat="49.51726" lon="5.67214">
        <ele>379</ele>
        <time>2011-07-03T07:22:20.000Z</time>
      </trkpt>
      <trkpt lat="49.51766" lon="5.6718">
        <ele>377</ele>
        <time>2011-07-03T07:22:30.000Z</time>
      </trkpt>
      <trkpt lat="49.51771" lon="5.67177">
        <ele>377</ele>
        <time>2011-07-03T07:22:31.000Z</time>
      </trkpt>
      <trkpt lat="49.51815" lon="5.67147">
        <ele>381</ele>
        <time>2011-07-03T07:22:42.000Z</time>
      </trkpt>
      <trkpt lat="49.51819" lon="5.67144">
        <ele>381</ele>
        <time>2011-07-03T07:22:43.000Z</time>
      </trkpt>
      <trkpt lat="49.51827" lon="5.6714">
        <ele>382</ele>
        <time>2011-07-03T07:22:45.000Z</time>
      </trkpt>
      <trkpt lat="49.5187" lon="5.67108">
        <ele>384</ele>
        <time>2011-07-03T07:22:56.000Z</time>
      </trkpt>
      <trkpt lat="49.51874" lon="5.67105">
        <ele>384</ele>
        <time>2011-07-03T07:22:57.000Z</time>
      </trkpt>
      <trkpt lat="49.51915" lon="5.67075">
        <ele>382</ele>
        <time>2011-07-03T07:23:07.000Z</time>
      </trkpt>
      <trkpt lat="49.5192" lon="5.67074">
        <ele>382</ele>
        <time>2011-07-03T07:23:08.000Z</time>
      </trkpt>
      <trkpt lat="49.51927" lon="5.6707">
        <ele>382</ele>
        <time>2011-07-03T07:23:10.000Z</time>
      </trkpt>
      <trkpt lat="49.51962" lon="5.67052">
        <ele>384</ele>
        <time>2011-07-03T07:23:23.000Z</time>
      </trkpt>
      <trkpt lat="49.51971" lon="5.67043">
        <ele>386</ele>
        <time>2011-07-03T07:23:27.000Z</time>
      </trkpt>
      <trkpt lat="49.51978" lon="5.67043">
        <ele>386</ele>
        <time>2011-07-03T07:23:30.000Z</time>
      </trkpt>
      <trkpt lat="49.51997" lon="5.67053">
        <ele>391</ele>
        <time>2011-07-03T07:23:38.000Z</time>
      </trkpt>
      <trkpt lat="49.51999" lon="5.67065">
        <ele>394</ele>
        <time>2011-07-03T07:23:41.000Z</time>
      </trkpt>
      <trkpt lat="49.51998" lon="5.67075">
        <ele>395</ele>
        <time>2011-07-03T07:23:44.000Z</time>
      </trkpt>
      <trkpt lat="49.52" lon="5.67088">
        <ele>394</ele>
        <time>2011-07-03T07:23:47.000Z</time>
      </trkpt>
      <trkpt lat="49.52" lon="5.67099">
        <ele>393</ele>
        <time>2011-07-03T07:23:49.000Z</time>
      </trkpt>
      <trkpt lat="49.52005" lon="5.67115">
        <ele>392</ele>
        <time>2011-07-03T07:23:52.000Z</time>
      </trkpt>
      <trkpt lat="49.52011" lon="5.67127">
        <ele>392</ele>
        <time>2011-07-03T07:23:55.000Z</time>
      </trkpt>
      <trkpt lat="49.52027" lon="5.67144">
        <ele>397</ele>
        <time>2011-07-03T07:24:00.000Z</time>
      </trkpt>
      <trkpt lat="49.52034" lon="5.6715">
        <ele>399</ele>
        <time>2011-07-03T07:24:02.000Z</time>
      </trkpt>
      <trkpt lat="49.5204" lon="5.67157">
        <ele>402</ele>
        <time>2011-07-03T07:24:04.000Z</time>
      </trkpt>
      <trkpt lat="49.52056" lon="5.67178">
        <ele>410</ele>
        <time>2011-07-03T07:24:11.000Z</time>
      </trkpt>
      <trkpt lat="49.52064" lon="5.67188">
        <ele>411</ele>
        <time>2011-07-03T07:24:14.000Z</time>
      </trkpt>
      <trkpt lat="49.52071" lon="5.67203">
        <ele>410</ele>
        <time>2011-07-03T07:24:17.000Z</time>
      </trkpt>
      <trkpt lat="49.5208" lon="5.67235">
        <ele>409</ele>
        <time>2011-07-03T07:24:23.000Z</time>
      </trkpt>
      <trkpt lat="49.52088" lon="5.67264">
        <ele>408</ele>
        <time>2011-07-03T07:24:29.000Z</time>
      </trkpt>
      <trkpt lat="49.52107" lon="5.67333">
        <ele>402</ele>
        <time>2011-07-03T07:24:40.000Z</time>
      </trkpt>
      <trkpt lat="49.52108" lon="5.67343">
        <ele>402</ele>
        <time>2011-07-03T07:24:41.000Z</time>
      </trkpt>
      <trkpt lat="49.52114" lon="5.67406">
        <ele>395</ele>
        <time>2011-07-03T07:24:47.000Z</time>
      </trkpt>
      <trkpt lat="49.52114" lon="5.67417">
        <ele>393</ele>
        <time>2011-07-03T07:24:48.000Z</time>
      </trkpt>
      <trkpt lat="49.52113" lon="5.67492">
        <ele>388</ele>
        <time>2011-07-03T07:24:54.000Z</time>
      </trkpt>
      <trkpt lat="49.52113" lon="5.67505">
        <ele>387</ele>
        <time>2011-07-03T07:24:55.000Z</time>
      </trkpt>
      <trkpt lat="49.52113" lon="5.67582">
        <ele>387</ele>
        <time>2011-07-03T07:25:01.000Z</time>
      </trkpt>
      <trkpt lat="49.52113" lon="5.67594">
        <ele>387</ele>
        <time>2011-07-03T07:25:02.000Z</time>
      </trkpt>
      <trkpt lat="49.52116" lon="5.67616">
        <ele>388</ele>
        <time>2011-07-03T07:25:04.000Z</time>
      </trkpt>
      <trkpt lat="49.52129" lon="5.67685">
        <ele>387</ele>
        <time>2011-07-03T07:25:11.000Z</time>
      </trkpt>
      <trkpt lat="49.5213" lon="5.67693">
        <ele>387</ele>
        <time>2011-07-03T07:25:12.000Z</time>
      </trkpt>
      <trkpt lat="49.52129" lon="5.67701">
        <ele>387</ele>
        <time>2011-07-03T07:25:13.000Z</time>
      </trkpt>
      <trkpt lat="49.52122" lon="5.67778">
        <ele>390</ele>
        <time>2011-07-03T07:25:22.000Z</time>
      </trkpt>
      <trkpt lat="49.52123" lon="5.67787">
        <ele>391</ele>
        <time>2011-07-03T07:25:23.000Z</time>
      </trkpt>
      <trkpt lat="49.52123" lon="5.67833">
        <ele>394</ele>
        <time>2011-07-03T07:25:29.000Z</time>
      </trkpt>
      <trkpt lat="49.52119" lon="5.67898">
        <ele>389</ele>
        <time>2011-07-03T07:25:37.000Z</time>
      </trkpt>
      <trkpt lat="49.52121" lon="5.67904">
        <ele>388</ele>
        <time>2011-07-03T07:25:38.000Z</time>
      </trkpt>
      <trkpt lat="49.52123" lon="5.6793">
        <ele>385</ele>
        <time>2011-07-03T07:25:42.000Z</time>
      </trkpt>
      <trkpt lat="49.52124" lon="5.67963">
        <ele>384</ele>
        <time>2011-07-03T07:25:47.000Z</time>
      </trkpt>
      <trkpt lat="49.52129" lon="5.67987">
        <ele>382</ele>
        <time>2011-07-03T07:25:52.000Z</time>
      </trkpt>
      <trkpt lat="49.52154" lon="5.68022">
        <ele>373</ele>
        <time>2011-07-03T07:26:00.000Z</time>
      </trkpt>
      <trkpt lat="49.52189" lon="5.68081">
        <ele>368</ele>
        <time>2011-07-03T07:26:07.000Z</time>
      </trkpt>
      <trkpt lat="49.52194" lon="5.68089">
        <ele>368</ele>
        <time>2011-07-03T07:26:08.000Z</time>
      </trkpt>
      <trkpt lat="49.52204" lon="5.68116">
        <ele>368</ele>
        <time>2011-07-03T07:26:11.000Z</time>
      </trkpt>
      <trkpt lat="49.52209" lon="5.68135">
        <ele>368</ele>
        <time>2011-07-03T07:26:13.000Z</time>
      </trkpt>
      <trkpt lat="49.52222" lon="5.68205">
        <ele>367</ele>
        <time>2011-07-03T07:26:20.000Z</time>
      </trkpt>
      <trkpt lat="49.52226" lon="5.68213">
        <ele>366</ele>
        <time>2011-07-03T07:26:21.000Z</time>
      </trkpt>
      <trkpt lat="49.52251" lon="5.68273">
        <ele>364</ele>
        <time>2011-07-03T07:26:28.000Z</time>
      </trkpt>
      <trkpt lat="49.52255" lon="5.68282">
        <ele>364</ele>
        <time>2011-07-03T07:26:29.000Z</time>
      </trkpt>
      <trkpt lat="49.52282" lon="5.68341">
        <ele>361</ele>
        <time>2011-07-03T07:26:36.000Z</time>
      </trkpt>
      <trkpt lat="49.52286" lon="5.6835">
        <ele>362</ele>
        <time>2011-07-03T07:26:37.000Z</time>
      </trkpt>
      <trkpt lat="49.52307" lon="5.6838">
        <ele>365</ele>
        <time>2011-07-03T07:26:42.000Z</time>
      </trkpt>
      <trkpt lat="49.52322" lon="5.68402">
        <ele>367</ele>
        <time>2011-07-03T07:26:45.000Z</time>
      </trkpt>
      <trkpt lat="49.52336" lon="5.68437">
        <ele>369</ele>
        <time>2011-07-03T07:26:49.000Z</time>
      </trkpt>
      <trkpt lat="49.52339" lon="5.68457">
        <ele>370</ele>
        <time>2011-07-03T07:26:52.000Z</time>
      </trkpt>
      <trkpt lat="49.52329" lon="5.68484">
        <ele>369</ele>
        <time>2011-07-03T07:26:57.000Z</time>
      </trkpt>
      <trkpt lat="49.52305" lon="5.68514">
        <ele>366</ele>
        <time>2011-07-03T07:27:04.000Z</time>
      </trkpt>
      <trkpt lat="49.52296" lon="5.68526">
        <ele>365</ele>
        <time>2011-07-03T07:27:07.000Z</time>
      </trkpt>
      <trkpt lat="49.5226" lon="5.68577">
        <ele>365</ele>
        <time>2011-07-03T07:27:18.000Z</time>
      </trkpt>
      <trkpt lat="49.52257" lon="5.68583">
        <ele>365</ele>
        <time>2011-07-03T07:27:19.000Z</time>
      </trkpt>
      <trkpt lat="49.52227" lon="5.68629">
        <ele>370</ele>
        <time>2011-07-03T07:27:27.000Z</time>
      </trkpt>
      <trkpt lat="49.52224" lon="5.68634">
        <ele>370</ele>
        <time>2011-07-03T07:27:28.000Z</time>
      </trkpt>
      <trkpt lat="49.52187" lon="5.68684">
        <ele>374</ele>
        <time>2011-07-03T07:27:38.000Z</time>
      </trkpt>
      <trkpt lat="49.52184" lon="5.6869">
        <ele>374</ele>
        <time>2011-07-03T07:27:39.000Z</time>
      </trkpt>
      <trkpt lat="49.52169" lon="5.68714">
        <ele>376</ele>
        <time>2011-07-03T07:27:43.000Z</time>
      </trkpt>
      <trkpt lat="49.52153" lon="5.68738">
        <ele>376</ele>
        <time>2011-07-03T07:27:48.000Z</time>
      </trkpt>
      <trkpt lat="49.52123" lon="5.6878">
        <ele>381</ele>
        <time>2011-07-03T07:27:57.000Z</time>
      </trkpt>
      <trkpt lat="49.52097" lon="5.68827">
        <ele>380</ele>
        <time>2011-07-03T07:28:06.000Z</time>
      </trkpt>
      <trkpt lat="49.52089" lon="5.68839">
        <ele>379</ele>
        <time>2011-07-03T07:28:09.000Z</time>
      </trkpt>
      <trkpt lat="49.52056" lon="5.68889">
        <ele>377</ele>
        <time>2011-07-03T07:28:20.000Z</time>
      </trkpt>
      <trkpt lat="49.52055" lon="5.68892">
        <ele>377</ele>
        <time>2011-07-03T07:28:21.000Z</time>
      </trkpt>
      <trkpt lat="49.52054" lon="5.68896">
        <ele>376</ele>
        <time>2011-07-03T07:28:22.000Z</time>
      </trkpt>
      <trkpt lat="49.52061" lon="5.6892">
        <ele>375</ele>
        <time>2011-07-03T07:28:27.000Z</time>
      </trkpt>
      <trkpt lat="49.52092" lon="5.68962">
        <ele>370</ele>
        <time>2011-07-03T07:28:35.000Z</time>
      </trkpt>
      <trkpt lat="49.52096" lon="5.68994">
        <ele>368</ele>
        <time>2011-07-03T07:28:39.000Z</time>
      </trkpt>
      <trkpt lat="49.52099" lon="5.69039">
        <ele>368</ele>
        <time>2011-07-03T07:28:44.000Z</time>
      </trkpt>
      <trkpt lat="49.52116" lon="5.69106">
        <ele>367</ele>
        <time>2011-07-03T07:28:53.000Z</time>
      </trkpt>
      <trkpt lat="49.52118" lon="5.69114">
        <ele>368</ele>
        <time>2011-07-03T07:28:54.000Z</time>
      </trkpt>
      <trkpt lat="49.52135" lon="5.69176">
        <ele>369</ele>
        <time>2011-07-03T07:29:01.000Z</time>
      </trkpt>
      <trkpt lat="49.52139" lon="5.69181">
        <ele>368</ele>
        <time>2011-07-03T07:29:02.000Z</time>
      </trkpt>
      <trkpt lat="49.52142" lon="5.69194">
        <ele>363</ele>
        <time>2011-07-03T07:29:06.000Z</time>
      </trkpt>
      <trkpt lat="49.52142" lon="5.69214">
        <ele>354</ele>
        <time>2011-07-03T07:29:30.000Z</time>
      </trkpt>
      <trkpt lat="49.52145" lon="5.6922">
        <ele>352</ele>
        <time>2011-07-03T07:29:37.000Z</time>
      </trkpt>
      <trkpt lat="49.52152" lon="5.69229">
        <ele>346</ele>
        <time>2011-07-03T07:29:48.000Z</time>
      </trkpt>
      <trkpt lat="49.52172" lon="5.69268">
        <ele>329</ele>
        <time>2011-07-03T07:30:00.000Z</time>
      </trkpt>
      <trkpt lat="49.52174" lon="5.69276">
        <ele>326</ele>
        <time>2011-07-03T07:30:02.000Z</time>
      </trkpt>
      <trkpt lat="49.52184" lon="5.69313">
        <ele>314</ele>
        <time>2011-07-03T07:30:09.000Z</time>
      </trkpt>
      <trkpt lat="49.52186" lon="5.69324">
        <ele>313</ele>
        <time>2011-07-03T07:30:11.000Z</time>
      </trkpt>
      <trkpt lat="49.52197" lon="5.69356">
        <ele>314</ele>
        <time>2011-07-03T07:30:20.000Z</time>
      </trkpt>
      <trkpt lat="49.52188" lon="5.6938">
        <ele>320</ele>
        <time>2011-07-03T07:30:24.000Z</time>
      </trkpt>
      <trkpt lat="49.52183" lon="5.69394">
        <ele>323</ele>
        <time>2011-07-03T07:30:27.000Z</time>
      </trkpt>
      <trkpt lat="49.52173" lon="5.69439">
        <ele>336</ele>
        <time>2011-07-03T07:30:42.000Z</time>
      </trkpt>
      <trkpt lat="49.52168" lon="5.69445">
        <ele>338</ele>
        <time>2011-07-03T07:30:47.000Z</time>
      </trkpt>
      <trkpt lat="49.52161" lon="5.69453">
        <ele>336</ele>
        <time>2011-07-03T07:30:54.000Z</time>
      </trkpt>
      <trkpt lat="49.52154" lon="5.69461">
        <ele>333</ele>
        <time>2011-07-03T07:30:59.000Z</time>
      </trkpt>
      <trkpt lat="49.52144" lon="5.69483">
        <ele>337</ele>
        <time>2011-07-03T07:31:09.000Z</time>
      </trkpt>
      <trkpt lat="49.52135" lon="5.69507">
        <ele>338</ele>
        <time>2011-07-03T07:31:19.000Z</time>
      </trkpt>
      <trkpt lat="49.52126" lon="5.69526">
        <ele>339</ele>
        <time>2011-07-03T07:31:25.000Z</time>
      </trkpt>
      <trkpt lat="49.52121" lon="5.69533">
        <ele>339</ele>
        <time>2011-07-03T07:31:27.000Z</time>
      </trkpt>
      <trkpt lat="49.52102" lon="5.6955">
        <ele>339</ele>
        <time>2011-07-03T07:31:33.000Z</time>
      </trkpt>
      <trkpt lat="49.52077" lon="5.69566">
        <ele>335</ele>
        <time>2011-07-03T07:31:40.000Z</time>
      </trkpt>
      <trkpt lat="49.52056" lon="5.69578">
        <ele>332</ele>
        <time>2011-07-03T07:31:46.000Z</time>
      </trkpt>
      <trkpt lat="49.52013" lon="5.69613">
        <ele>326</ele>
        <time>2011-07-03T07:31:57.000Z</time>
      </trkpt>
      <trkpt lat="49.5201" lon="5.69616">
        <ele>325</ele>
        <time>2011-07-03T07:31:58.000Z</time>
      </trkpt>
      <trkpt lat="49.51979" lon="5.69659">
        <ele>322</ele>
        <time>2011-07-03T07:32:05.000Z</time>
      </trkpt>
      <trkpt lat="49.51975" lon="5.69668">
        <ele>322</ele>
        <time>2011-07-03T07:32:06.000Z</time>
      </trkpt>
      <trkpt lat="49.5195" lon="5.69727">
        <ele>316</ele>
        <time>2011-07-03T07:32:15.000Z</time>
      </trkpt>
      <trkpt lat="49.51948" lon="5.69733">
        <ele>315</ele>
        <time>2011-07-03T07:32:16.000Z</time>
      </trkpt>
      <trkpt lat="49.51931" lon="5.69768">
        <ele>312</ele>
        <time>2011-07-03T07:32:26.000Z</time>
      </trkpt>
      <trkpt lat="49.51909" lon="5.69791">
        <ele>308</ele>
        <time>2011-07-03T07:32:35.000Z</time>
      </trkpt>
      <trkpt lat="49.51901" lon="5.69808">
        <ele>312</ele>
        <time>2011-07-03T07:32:39.000Z</time>
      </trkpt>
      <trkpt lat="49.51894" lon="5.69833">
        <ele>319</ele>
        <time>2011-07-03T07:32:47.000Z</time>
      </trkpt>
      <trkpt lat="49.51877" lon="5.69857">
        <ele>322</ele>
        <time>2011-07-03T07:32:54.000Z</time>
      </trkpt>
      <trkpt lat="49.51858" lon="5.69873">
        <ele>324</ele>
        <time>2011-07-03T07:33:00.000Z</time>
      </trkpt>
      <trkpt lat="49.51854" lon="5.69869">
        <ele>324</ele>
        <time>2011-07-03T07:33:05.000Z</time>
      </trkpt>
      <trkpt lat="49.51848" lon="5.69864">
        <ele>323</ele>
        <time>2011-07-03T07:33:12.000Z</time>
      </trkpt>
      <trkpt lat="49.51833" lon="5.69891">
        <ele>324</ele>
        <time>2011-07-03T07:33:25.000Z</time>
      </trkpt>
      <trkpt lat="49.51826" lon="5.69897">
        <ele>330</ele>
        <time>2011-07-03T07:33:29.000Z</time>
      </trkpt>
      <trkpt lat="49.51812" lon="5.69903">
        <ele>339</ele>
        <time>2011-07-03T07:33:37.000Z</time>
      </trkpt>
      <trkpt lat="49.51801" lon="5.69911">
        <ele>341</ele>
        <time>2011-07-03T07:33:45.000Z</time>
      </trkpt>
      <trkpt lat="49.51798" lon="5.69923">
        <ele>335</ele>
        <time>2011-07-03T07:33:52.000Z</time>
      </trkpt>
      <trkpt lat="49.51796" lon="5.69933">
        <ele>332</ele>
        <time>2011-07-03T07:33:56.000Z</time>
      </trkpt>
      <trkpt lat="49.51794" lon="5.69965">
        <ele>329</ele>
        <time>2011-07-03T07:34:08.000Z</time>
      </trkpt>
      <trkpt lat="49.51785" lon="5.70022">
        <ele>335</ele>
        <time>2011-07-03T07:34:27.000Z</time>
      </trkpt>
      <trkpt lat="49.51784" lon="5.70031">
        <ele>335</ele>
        <time>2011-07-03T07:34:32.000Z</time>
      </trkpt>
      <trkpt lat="49.5178" lon="5.70038">
        <ele>336</ele>
        <time>2011-07-03T07:34:36.000Z</time>
      </trkpt>
      <trkpt lat="49.51775" lon="5.7005">
        <ele>336</ele>
        <time>2011-07-03T07:34:42.000Z</time>
      </trkpt>
      <trkpt lat="49.51771" lon="5.70056">
        <ele>337</ele>
        <time>2011-07-03T07:34:46.000Z</time>
      </trkpt>
      <trkpt lat="49.51765" lon="5.70061">
        <ele>338</ele>
        <time>2011-07-03T07:34:51.000Z</time>
      </trkpt>
      <trkpt lat="49.5176" lon="5.70066">
        <ele>338</ele>
        <time>2011-07-03T07:34:55.000Z</time>
      </trkpt>
      <trkpt lat="49.51724" lon="5.70108">
        <ele>346</ele>
        <time>2011-07-03T07:35:28.000Z</time>
      </trkpt>
      <trkpt lat="49.51723" lon="5.70109">
        <ele>346</ele>
        <time>2011-07-03T07:35:29.000Z</time>
      </trkpt>
      <trkpt lat="49.51717" lon="5.7012">
        <ele>347</ele>
        <time>2011-07-03T07:35:36.000Z</time>
      </trkpt>
      <trkpt lat="49.51713" lon="5.70125">
        <ele>348</ele>
        <time>2011-07-03T07:35:40.000Z</time>
      </trkpt>
      <trkpt lat="49.51709" lon="5.70131">
        <ele>349</ele>
        <time>2011-07-03T07:35:45.000Z</time>
      </trkpt>
      <trkpt lat="49.51707" lon="5.70138">
        <ele>351</ele>
        <time>2011-07-03T07:35:56.000Z</time>
      </trkpt>
      <trkpt lat="49.51701" lon="5.70141">
        <ele>353</ele>
        <time>2011-07-03T07:36:03.000Z</time>
      </trkpt>
      <trkpt lat="49.51698" lon="5.70148">
        <ele>354</ele>
        <time>2011-07-03T07:36:09.000Z</time>
      </trkpt>
      <trkpt lat="49.51662" lon="5.70193">
        <ele>358</ele>
        <time>2011-07-03T07:36:33.000Z</time>
      </trkpt>
      <trkpt lat="49.5166" lon="5.70194">
        <ele>358</ele>
        <time>2011-07-03T07:36:34.000Z</time>
      </trkpt>
      <trkpt lat="49.51636" lon="5.70227">
        <ele>359</ele>
        <time>2011-07-03T07:36:50.000Z</time>
      </trkpt>
      <trkpt lat="49.51631" lon="5.70237">
        <ele>359</ele>
        <time>2011-07-03T07:36:54.000Z</time>
      </trkpt>
      <trkpt lat="49.51632" lon="5.7025">
        <ele>360</ele>
        <time>2011-07-03T07:36:58.000Z</time>
      </trkpt>
      <trkpt lat="49.51641" lon="5.70265">
        <ele>361</ele>
        <time>2011-07-03T07:37:04.000Z</time>
      </trkpt>
      <trkpt lat="49.51648" lon="5.70261">
        <ele>361</ele>
        <time>2011-07-03T07:37:07.000Z</time>
      </trkpt>
      <trkpt lat="49.51652" lon="5.70254">
        <ele>361</ele>
        <time>2011-07-03T07:37:09.000Z</time>
      </trkpt>
      <trkpt lat="49.51671" lon="5.70205">
        <ele>359</ele>
        <time>2011-07-03T07:37:17.000Z</time>
      </trkpt>
      <trkpt lat="49.51698" lon="5.70176">
        <ele>357</ele>
        <time>2011-07-03T07:37:23.000Z</time>
      </trkpt>
      <trkpt lat="49.51741" lon="5.7015">
        <ele>355</ele>
        <time>2011-07-03T07:37:30.000Z</time>
      </trkpt>
      <trkpt lat="49.51748" lon="5.70148">
        <ele>355</ele>
        <time>2011-07-03T07:37:31.000Z</time>
      </trkpt>
      <trkpt lat="49.51787" lon="5.70127">
        <ele>353</ele>
        <time>2011-07-03T07:37:37.000Z</time>
      </trkpt>
      <trkpt lat="49.51794" lon="5.70121">
        <ele>353</ele>
        <time>2011-07-03T07:37:38.000Z</time>
      </trkpt>
      <trkpt lat="49.51804" lon="5.70106">
        <ele>353</ele>
        <time>2011-07-03T07:37:40.000Z</time>
      </trkpt>
      <trkpt lat="49.51833" lon="5.70048">
        <ele>350</ele>
        <time>2011-07-03T07:37:46.000Z</time>
      </trkpt>
      <trkpt lat="49.51838" lon="5.70038">
        <ele>350</ele>
        <time>2011-07-03T07:37:47.000Z</time>
      </trkpt>
      <trkpt lat="49.51865" lon="5.69993">
        <ele>348</ele>
        <time>2011-07-03T07:37:53.000Z</time>
      </trkpt>
      <trkpt lat="49.51881" lon="5.69984">
        <ele>349</ele>
        <time>2011-07-03T07:37:56.000Z</time>
      </trkpt>
      <trkpt lat="49.51929" lon="5.69975">
        <ele>353</ele>
        <time>2011-07-03T07:38:05.000Z</time>
      </trkpt>
      <trkpt lat="49.51934" lon="5.69975">
        <ele>353</ele>
        <time>2011-07-03T07:38:06.000Z</time>
      </trkpt>
      <trkpt lat="49.51937" lon="5.69975">
        <ele>353</ele>
        <time>2011-07-03T07:38:07.000Z</time>
      </trkpt>
      <trkpt lat="49.5194" lon="5.69984">
        <ele>354</ele>
        <time>2011-07-03T07:38:10.000Z</time>
      </trkpt>
      <trkpt lat="49.51935" lon="5.69996">
        <ele>353</ele>
        <time>2011-07-03T07:38:14.000Z</time>
      </trkpt>
      <trkpt lat="49.51935" lon="5.70004">
        <ele>352</ele>
        <time>2011-07-03T07:38:16.000Z</time>
      </trkpt>
      <trkpt lat="49.51938" lon="5.70012">
        <ele>351</ele>
        <time>2011-07-03T07:38:18.000Z</time>
      </trkpt>
      <trkpt lat="49.51964" lon="5.70033">
        <ele>349</ele>
        <time>2011-07-03T07:38:30.000Z</time>
      </trkpt>
      <trkpt lat="49.51971" lon="5.70031">
        <ele>349</ele>
        <time>2011-07-03T07:38:32.000Z</time>
      </trkpt>
      <trkpt lat="49.51976" lon="5.70026">
        <ele>349</ele>
        <time>2011-07-03T07:38:34.000Z</time>
      </trkpt>
      <trkpt lat="49.51983" lon="5.70012">
        <ele>351</ele>
        <time>2011-07-03T07:38:39.000Z</time>
      </trkpt>
      <trkpt lat="49.51992" lon="5.69979">
        <ele>363</ele>
        <time>2011-07-03T07:38:47.000Z</time>
      </trkpt>
      <trkpt lat="49.51992" lon="5.69972">
        <ele>366</ele>
        <time>2011-07-03T07:38:49.000Z</time>
      </trkpt>
      <trkpt lat="49.51997" lon="5.69955">
        <ele>370</ele>
        <time>2011-07-03T07:38:53.000Z</time>
      </trkpt>
      <trkpt lat="49.52" lon="5.69943">
        <ele>371</ele>
        <time>2011-07-03T07:38:56.000Z</time>
      </trkpt>
      <trkpt lat="49.52003" lon="5.69934">
        <ele>371</ele>
        <time>2011-07-03T07:38:58.000Z</time>
      </trkpt>
      <trkpt lat="49.52013" lon="5.69912">
        <ele>373</ele>
        <time>2011-07-03T07:39:03.000Z</time>
      </trkpt>
      <trkpt lat="49.52023" lon="5.69893">
        <ele>374</ele>
        <time>2011-07-03T07:39:08.000Z</time>
      </trkpt>
      <trkpt lat="49.52039" lon="5.69864">
        <ele>374</ele>
        <time>2011-07-03T07:39:14.000Z</time>
      </trkpt>
      <trkpt lat="49.52072" lon="5.69839">
        <ele>368</ele>
        <time>2011-07-03T07:39:22.000Z</time>
      </trkpt>
      <trkpt lat="49.521" lon="5.69833">
        <ele>361</ele>
        <time>2011-07-03T07:39:30.000Z</time>
      </trkpt>
      <trkpt lat="49.52149" lon="5.69832">
        <ele>351</ele>
        <time>2011-07-03T07:39:42.000Z</time>
      </trkpt>
      <trkpt lat="49.52154" lon="5.69832">
        <ele>350</ele>
        <time>2011-07-03T07:39:43.000Z</time>
      </trkpt>
      <trkpt lat="49.52175" lon="5.6983">
        <ele>346</ele>
        <time>2011-07-03T07:39:48.000Z</time>
      </trkpt>
      <trkpt lat="49.52217" lon="5.69804">
        <ele>345</ele>
        <time>2011-07-03T07:39:58.000Z</time>
      </trkpt>
      <trkpt lat="49.52223" lon="5.69801">
        <ele>344</ele>
        <time>2011-07-03T07:39:59.000Z</time>
      </trkpt>
      <trkpt lat="49.52269" lon="5.69777">
        <ele>343</ele>
        <time>2011-07-03T07:40:06.000Z</time>
      </trkpt>
      <trkpt lat="49.52276" lon="5.69776">
        <ele>343</ele>
        <time>2011-07-03T07:40:07.000Z</time>
      </trkpt>
      <trkpt lat="49.52289" lon="5.69772">
        <ele>343</ele>
        <time>2011-07-03T07:40:09.000Z</time>
      </trkpt>
      <trkpt lat="49.52317" lon="5.69763">
        <ele>345</ele>
        <time>2011-07-03T07:40:14.000Z</time>
      </trkpt>
      <trkpt lat="49.52348" lon="5.69758">
        <ele>350</ele>
        <time>2011-07-03T07:40:20.000Z</time>
      </trkpt>
      <trkpt lat="49.52354" lon="5.69729">
        <ele>353</ele>
        <time>2011-07-03T07:40:23.000Z</time>
      </trkpt>
      <trkpt lat="49.52354" lon="5.69672">
        <ele>354</ele>
        <time>2011-07-03T07:40:28.000Z</time>
      </trkpt>
      <trkpt lat="49.52343" lon="5.69596">
        <ele>351</ele>
        <time>2011-07-03T07:40:34.000Z</time>
      </trkpt>
      <trkpt lat="49.52341" lon="5.69581">
        <ele>351</ele>
        <time>2011-07-03T07:40:35.000Z</time>
      </trkpt>
      <trkpt lat="49.52341" lon="5.69526">
        <ele>349</ele>
        <time>2011-07-03T07:40:39.000Z</time>
      </trkpt>
      <trkpt lat="49.52343" lon="5.69499">
        <ele>348</ele>
        <time>2011-07-03T07:40:41.000Z</time>
      </trkpt>
      <trkpt lat="49.5235" lon="5.69476">
        <ele>346</ele>
        <time>2011-07-03T07:40:43.000Z</time>
      </trkpt>
      <trkpt lat="49.5238" lon="5.69418">
        <ele>334</ele>
        <time>2011-07-03T07:40:51.000Z</time>
      </trkpt>
      <trkpt lat="49.52382" lon="5.69413">
        <ele>333</ele>
        <time>2011-07-03T07:40:52.000Z</time>
      </trkpt>
      <trkpt lat="49.52386" lon="5.69403">
        <ele>331</ele>
        <time>2011-07-03T07:40:54.000Z</time>
      </trkpt>
      <trkpt lat="49.52397" lon="5.69365">
        <ele>325</ele>
        <time>2011-07-03T07:41:01.000Z</time>
      </trkpt>
      <trkpt lat="49.52415" lon="5.69323">
        <ele>320</ele>
        <time>2011-07-03T07:41:08.000Z</time>
      </trkpt>
      <trkpt lat="49.52426" lon="5.6931">
        <ele>318</ele>
        <time>2011-07-03T07:41:14.000Z</time>
      </trkpt>
      <trkpt lat="49.52438" lon="5.6931">
        <ele>315</ele>
        <time>2011-07-03T07:41:19.000Z</time>
      </trkpt>
      <trkpt lat="49.52443" lon="5.69301">
        <ele>313</ele>
        <time>2011-07-03T07:41:23.000Z</time>
      </trkpt>
      <trkpt lat="49.52449" lon="5.69289">
        <ele>311</ele>
        <time>2011-07-03T07:41:26.000Z</time>
      </trkpt>
      <trkpt lat="49.52456" lon="5.69284">
        <ele>311</ele>
        <time>2011-07-03T07:41:28.000Z</time>
      </trkpt>
      <trkpt lat="49.52471" lon="5.69281">
        <ele>310</ele>
        <time>2011-07-03T07:41:31.000Z</time>
      </trkpt>
      <trkpt lat="49.52503" lon="5.69277">
        <ele>309</ele>
        <time>2011-07-03T07:41:38.000Z</time>
      </trkpt>
      <trkpt lat="49.52522" lon="5.69272">
        <ele>308</ele>
        <time>2011-07-03T07:41:42.000Z</time>
      </trkpt>
      <trkpt lat="49.52566" lon="5.69254">
        <ele>310</ele>
        <time>2011-07-03T07:41:50.000Z</time>
      </trkpt>
      <trkpt lat="49.5257" lon="5.6925">
        <ele>311</ele>
        <time>2011-07-03T07:41:51.000Z</time>
      </trkpt>
      <trkpt lat="49.52573" lon="5.69243">
        <ele>311</ele>
        <time>2011-07-03T07:41:52.000Z</time>
      </trkpt>
      <trkpt lat="49.52581" lon="5.69232">
        <ele>311</ele>
        <time>2011-07-03T07:41:54.000Z</time>
      </trkpt>
      <trkpt lat="49.5259" lon="5.69227">
        <ele>309</ele>
        <time>2011-07-03T07:41:56.000Z</time>
      </trkpt>
      <trkpt lat="49.52635" lon="5.69204">
        <ele>305</ele>
        <time>2011-07-03T07:42:05.000Z</time>
      </trkpt>
      <trkpt lat="49.52639" lon="5.69202">
        <ele>305</ele>
        <time>2011-07-03T07:42:06.000Z</time>
      </trkpt>
      <trkpt lat="49.52682" lon="5.69174">
        <ele>308</ele>
        <time>2011-07-03T07:42:17.000Z</time>
      </trkpt>
      <trkpt lat="49.52687" lon="5.69173">
        <ele>309</ele>
        <time>2011-07-03T07:42:18.000Z</time>
      </trkpt>
      <trkpt lat="49.52711" lon="5.69169">
        <ele>311</ele>
        <time>2011-07-03T07:42:24.000Z</time>
      </trkpt>
      <trkpt lat="49.52728" lon="5.69165">
        <ele>311</ele>
        <time>2011-07-03T07:42:29.000Z</time>
      </trkpt>
      <trkpt lat="49.52748" lon="5.69153">
        <ele>312</ele>
        <time>2011-07-03T07:42:34.000Z</time>
      </trkpt>
      <trkpt lat="49.52794" lon="5.69125">
        <ele>318</ele>
        <time>2011-07-03T07:42:44.000Z</time>
      </trkpt>
      <trkpt lat="49.528" lon="5.69122">
        <ele>317</ele>
        <time>2011-07-03T07:42:45.000Z</time>
      </trkpt>
      <trkpt lat="49.52827" lon="5.69109">
        <ele>316</ele>
        <time>2011-07-03T07:42:49.000Z</time>
      </trkpt>
      <trkpt lat="49.52872" lon="5.69109">
        <ele>310</ele>
        <time>2011-07-03T07:42:55.000Z</time>
      </trkpt>
      <trkpt lat="49.52877" lon="5.69112">
        <ele>309</ele>
        <time>2011-07-03T07:42:56.000Z</time>
      </trkpt>
      <trkpt lat="49.52919" lon="5.69136">
        <ele>302</ele>
        <time>2011-07-03T07:43:03.000Z</time>
      </trkpt>
      <trkpt lat="49.52924" lon="5.69141">
        <ele>301</ele>
        <time>2011-07-03T07:43:04.000Z</time>
      </trkpt>
      <trkpt lat="49.52962" lon="5.69192">
        <ele>294</ele>
        <time>2011-07-03T07:43:12.000Z</time>
      </trkpt>
      <trkpt lat="49.52966" lon="5.69197">
        <ele>293</ele>
        <time>2011-07-03T07:43:13.000Z</time>
      </trkpt>
      <trkpt lat="49.52969" lon="5.69202">
        <ele>292</ele>
        <time>2011-07-03T07:43:14.000Z</time>
      </trkpt>
      <trkpt lat="49.52987" lon="5.69238">
        <ele>283</ele>
        <time>2011-07-03T07:43:23.000Z</time>
      </trkpt>
      <trkpt lat="49.52992" lon="5.69239">
        <ele>283</ele>
        <time>2011-07-03T07:43:25.000Z</time>
      </trkpt>
      <trkpt lat="49.52998" lon="5.6923">
        <ele>286</ele>
        <time>2011-07-03T07:43:28.000Z</time>
      </trkpt>
      <trkpt lat="49.53003" lon="5.69221">
        <ele>287</ele>
        <time>2011-07-03T07:43:31.000Z</time>
      </trkpt>
      <trkpt lat="49.5304" lon="5.69173">
        <ele>292</ele>
        <time>2011-07-03T07:43:41.000Z</time>
      </trkpt>
      <trkpt lat="49.53045" lon="5.69168">
        <ele>293</ele>
        <time>2011-07-03T07:43:42.000Z</time>
      </trkpt>
      <trkpt lat="49.53051" lon="5.69158">
        <ele>293</ele>
        <time>2011-07-03T07:43:44.000Z</time>
      </trkpt>
      <trkpt lat="49.53083" lon="5.69116">
        <ele>294</ele>
        <time>2011-07-03T07:43:52.000Z</time>
      </trkpt>
      <trkpt lat="49.5309" lon="5.69113">
        <ele>293</ele>
        <time>2011-07-03T07:43:53.000Z</time>
      </trkpt>
      <trkpt lat="49.5312" lon="5.69099">
        <ele>286</ele>
        <time>2011-07-03T07:44:00.000Z</time>
      </trkpt>
      <trkpt lat="49.53135" lon="5.69064">
        <ele>277</ele>
        <time>2011-07-03T07:44:08.000Z</time>
      </trkpt>
      <trkpt lat="49.53148" lon="5.69062">
        <ele>280</ele>
        <time>2011-07-03T07:49:05.000Z</time>
      </trkpt>
      <trkpt lat="49.53157" lon="5.69068">
        <ele>280</ele>
        <time>2011-07-03T07:49:06.000Z</time>
      </trkpt>
      <trkpt lat="49.53172" lon="5.69078">
        <ele>278</ele>
        <time>2011-07-03T07:49:09.000Z</time>
      </trkpt>
      <trkpt lat="49.53194" lon="5.69118">
        <ele>277</ele>
        <time>2011-07-03T07:49:13.000Z</time>
      </trkpt>
      <trkpt lat="49.53207" lon="5.69178">
        <ele>275</ele>
        <time>2011-07-03T07:49:18.000Z</time>
      </trkpt>
      <trkpt lat="49.5321" lon="5.69208">
        <ele>275</ele>
        <time>2011-07-03T07:49:19.000Z</time>
      </trkpt>
      <trkpt lat="49.53221" lon="5.69259">
        <ele>274</ele>
        <time>2011-07-03T07:49:25.000Z</time>
      </trkpt>
      <trkpt lat="49.53224" lon="5.6927">
        <ele>274</ele>
        <time>2011-07-03T07:49:26.000Z</time>
      </trkpt>
      <trkpt lat="49.53236" lon="5.69296">
        <ele>273</ele>
        <time>2011-07-03T07:49:29.000Z</time>
      </trkpt>
      <trkpt lat="49.53252" lon="5.69314">
        <ele>273</ele>
        <time>2011-07-03T07:49:32.000Z</time>
      </trkpt>
      <trkpt lat="49.53276" lon="5.69327">
        <ele>271</ele>
        <time>2011-07-03T07:49:36.000Z</time>
      </trkpt>
      <trkpt lat="49.53303" lon="5.69329">
        <ele>270</ele>
        <time>2011-07-03T07:49:40.000Z</time>
      </trkpt>
      <trkpt lat="49.5333" lon="5.69316">
        <ele>268</ele>
        <time>2011-07-03T07:49:44.000Z</time>
      </trkpt>
      <trkpt lat="49.53357" lon="5.693">
        <ele>266</ele>
        <time>2011-07-03T07:49:51.000Z</time>
      </trkpt>
      <trkpt lat="49.53359" lon="5.69307">
        <ele>266</ele>
        <time>2011-07-03T07:49:53.000Z</time>
      </trkpt>
      <trkpt lat="49.53357" lon="5.69316">
        <ele>265</ele>
        <time>2011-07-03T07:49:55.000Z</time>
      </trkpt>
      <trkpt lat="49.53354" lon="5.69343">
        <ele>265</ele>
        <time>2011-07-03T07:50:00.000Z</time>
      </trkpt>
      <trkpt lat="49.53352" lon="5.69414">
        <ele>266</ele>
        <time>2011-07-03T07:50:11.000Z</time>
      </trkpt>
      <trkpt lat="49.53352" lon="5.6942">
        <ele>266</ele>
        <time>2011-07-03T07:50:12.000Z</time>
      </trkpt>
      <trkpt lat="49.53349" lon="5.69461">
        <ele>266</ele>
        <time>2011-07-03T07:50:18.000Z</time>
      </trkpt>
      <trkpt lat="49.53336" lon="5.69533">
        <ele>266</ele>
        <time>2011-07-03T07:50:28.000Z</time>
      </trkpt>
      <trkpt lat="49.53335" lon="5.69541">
        <ele>266</ele>
        <time>2011-07-03T07:50:29.000Z</time>
      </trkpt>
      <trkpt lat="49.53333" lon="5.69573">
        <ele>266</ele>
        <time>2011-07-03T07:50:33.000Z</time>
      </trkpt>
      <trkpt lat="49.53343" lon="5.69648">
        <ele>265</ele>
        <time>2011-07-03T07:50:42.000Z</time>
      </trkpt>
      <trkpt lat="49.53344" lon="5.69656">
        <ele>265</ele>
        <time>2011-07-03T07:50:43.000Z</time>
      </trkpt>
      <trkpt lat="49.53353" lon="5.69676">
        <ele>265</ele>
        <time>2011-07-03T07:50:46.000Z</time>
      </trkpt>
      <trkpt lat="49.53382" lon="5.69734">
        <ele>265</ele>
        <time>2011-07-03T07:50:56.000Z</time>
      </trkpt>
      <trkpt lat="49.53385" lon="5.69739">
        <ele>265</ele>
        <time>2011-07-03T07:50:57.000Z</time>
      </trkpt>
      <trkpt lat="49.53391" lon="5.69754">
        <ele>265</ele>
        <time>2011-07-03T07:51:00.000Z</time>
      </trkpt>
      <trkpt lat="49.53395" lon="5.69803">
        <ele>271</ele>
        <time>2011-07-03T07:51:17.000Z</time>
      </trkpt>
      <trkpt lat="49.53402" lon="5.69856">
        <ele>279</ele>
        <time>2011-07-03T07:51:31.000Z</time>
      </trkpt>
      <trkpt lat="49.53405" lon="5.69863">
        <ele>280</ele>
        <time>2011-07-03T07:51:33.000Z</time>
      </trkpt>
      <trkpt lat="49.53408" lon="5.6987">
        <ele>281</ele>
        <time>2011-07-03T07:51:35.000Z</time>
      </trkpt>
      <trkpt lat="49.53432" lon="5.69932">
        <ele>282</ele>
        <time>2011-07-03T07:51:48.000Z</time>
      </trkpt>
      <trkpt lat="49.53434" lon="5.69936">
        <ele>282</ele>
        <time>2011-07-03T07:51:49.000Z</time>
      </trkpt>
      <trkpt lat="49.53439" lon="5.69945">
        <ele>282</ele>
        <time>2011-07-03T07:51:51.000Z</time>
      </trkpt>
      <trkpt lat="49.53466" lon="5.70007">
        <ele>282</ele>
        <time>2011-07-03T07:52:03.000Z</time>
      </trkpt>
      <trkpt lat="49.53469" lon="5.70013">
        <ele>281</ele>
        <time>2011-07-03T07:52:04.000Z</time>
      </trkpt>
      <trkpt lat="49.53477" lon="5.70037">
        <ele>279</ele>
        <time>2011-07-03T07:52:08.000Z</time>
      </trkpt>
      <trkpt lat="49.53499" lon="5.70105">
        <ele>277</ele>
        <time>2011-07-03T07:52:19.000Z</time>
      </trkpt>
      <trkpt lat="49.53502" lon="5.70112">
        <ele>277</ele>
        <time>2011-07-03T07:52:20.000Z</time>
      </trkpt>
      <trkpt lat="49.53512" lon="5.70136">
        <ele>277</ele>
        <time>2011-07-03T07:52:24.000Z</time>
      </trkpt>
      <trkpt lat="49.53538" lon="5.70195">
        <ele>277</ele>
        <time>2011-07-03T07:52:33.000Z</time>
      </trkpt>
      <trkpt lat="49.53541" lon="5.70201">
        <ele>277</ele>
        <time>2011-07-03T07:52:34.000Z</time>
      </trkpt>
      <trkpt lat="49.53566" lon="5.70248">
        <ele>279</ele>
        <time>2011-07-03T07:52:43.000Z</time>
      </trkpt>
      <trkpt lat="49.53575" lon="5.70257">
        <ele>279</ele>
        <time>2011-07-03T07:52:46.000Z</time>
      </trkpt>
      <trkpt lat="49.53593" lon="5.70274">
        <ele>280</ele>
        <time>2011-07-03T07:52:52.000Z</time>
      </trkpt>
      <trkpt lat="49.53628" lon="5.70329">
        <ele>283</ele>
        <time>2011-07-03T07:53:04.000Z</time>
      </trkpt>
      <trkpt lat="49.53631" lon="5.70334">
        <ele>283</ele>
        <time>2011-07-03T07:53:05.000Z</time>
      </trkpt>
      <trkpt lat="49.53663" lon="5.70387">
        <ele>285</ele>
        <time>2011-07-03T07:53:16.000Z</time>
      </trkpt>
      <trkpt lat="49.53666" lon="5.70392">
        <ele>285</ele>
        <time>2011-07-03T07:53:17.000Z</time>
      </trkpt>
      <trkpt lat="49.5369" lon="5.7042">
        <ele>285</ele>
        <time>2011-07-03T07:53:24.000Z</time>
      </trkpt>
      <trkpt lat="49.53714" lon="5.70433">
        <ele>287</ele>
        <time>2011-07-03T07:53:30.000Z</time>
      </trkpt>
      <trkpt lat="49.53746" lon="5.70439">
        <ele>289</ele>
        <time>2011-07-03T07:53:38.000Z</time>
      </trkpt>
      <trkpt lat="49.53777" lon="5.70441">
        <ele>290</ele>
        <time>2011-07-03T07:53:47.000Z</time>
      </trkpt>
      <trkpt lat="49.53801" lon="5.70434">
        <ele>290</ele>
        <time>2011-07-03T07:53:54.000Z</time>
      </trkpt>
      <trkpt lat="49.53825" lon="5.70415">
        <ele>292</ele>
        <time>2011-07-03T07:54:02.000Z</time>
      </trkpt>
      <trkpt lat="49.53866" lon="5.7038">
        <ele>295</ele>
        <time>2011-07-03T07:54:18.000Z</time>
      </trkpt>
      <trkpt lat="49.53868" lon="5.70377">
        <ele>295</ele>
        <time>2011-07-03T07:54:19.000Z</time>
      </trkpt>
      <trkpt lat="49.53909" lon="5.70339">
        <ele>298</ele>
        <time>2011-07-03T07:54:35.000Z</time>
      </trkpt>
      <trkpt lat="49.53912" lon="5.70336">
        <ele>299</ele>
        <time>2011-07-03T07:54:36.000Z</time>
      </trkpt>
      <trkpt lat="49.53931" lon="5.70323">
        <ele>300</ele>
        <time>2011-07-03T07:54:43.000Z</time>
      </trkpt>
      <trkpt lat="49.53948" lon="5.7032">
        <ele>300</ele>
        <time>2011-07-03T07:54:49.000Z</time>
      </trkpt>
      <trkpt lat="49.53959" lon="5.70323">
        <ele>301</ele>
        <time>2011-07-03T07:54:53.000Z</time>
      </trkpt>
      <trkpt lat="49.53967" lon="5.70334">
        <ele>302</ele>
        <time>2011-07-03T07:54:57.000Z</time>
      </trkpt>
      <trkpt lat="49.53971" lon="5.70343">
        <ele>303</ele>
        <time>2011-07-03T07:55:00.000Z</time>
      </trkpt>
      <trkpt lat="49.53982" lon="5.70369">
        <ele>307</ele>
        <time>2011-07-03T07:55:08.000Z</time>
      </trkpt>
      <trkpt lat="49.53985" lon="5.70376">
        <ele>308</ele>
        <time>2011-07-03T07:55:10.000Z</time>
      </trkpt>
      <trkpt lat="49.53988" lon="5.70383">
        <ele>309</ele>
        <time>2011-07-03T07:55:12.000Z</time>
      </trkpt>
      <trkpt lat="49.54003" lon="5.70411">
        <ele>309</ele>
        <time>2011-07-03T07:55:19.000Z</time>
      </trkpt>
      <trkpt lat="49.54009" lon="5.70416">
        <ele>309</ele>
        <time>2011-07-03T07:55:21.000Z</time>
      </trkpt>
      <trkpt lat="49.54048" lon="5.70453">
        <ele>311</ele>
        <time>2011-07-03T07:55:36.000Z</time>
      </trkpt>
      <trkpt lat="49.5405" lon="5.70456">
        <ele>312</ele>
        <time>2011-07-03T07:55:37.000Z</time>
      </trkpt>
      <trkpt lat="49.5409" lon="5.70495">
        <ele>317</ele>
        <time>2011-07-03T07:55:50.000Z</time>
      </trkpt>
      <trkpt lat="49.54093" lon="5.70499">
        <ele>317</ele>
        <time>2011-07-03T07:55:51.000Z</time>
      </trkpt>
      <trkpt lat="49.54099" lon="5.70507">
        <ele>317</ele>
        <time>2011-07-03T07:55:53.000Z</time>
      </trkpt>
      <trkpt lat="49.54131" lon="5.70557">
        <ele>317</ele>
        <time>2011-07-03T07:56:05.000Z</time>
      </trkpt>
      <trkpt lat="49.54133" lon="5.70562">
        <ele>317</ele>
        <time>2011-07-03T07:56:06.000Z</time>
      </trkpt>
      <trkpt lat="49.54163" lon="5.7062">
        <ele>314</ele>
        <time>2011-07-03T07:56:19.000Z</time>
      </trkpt>
      <trkpt lat="49.54165" lon="5.70624">
        <ele>314</ele>
        <time>2011-07-03T07:56:20.000Z</time>
      </trkpt>
      <trkpt lat="49.54173" lon="5.70641">
        <ele>312</ele>
        <time>2011-07-03T07:56:24.000Z</time>
      </trkpt>
      <trkpt lat="49.5418" lon="5.70656">
        <ele>312</ele>
        <time>2011-07-03T07:56:28.000Z</time>
      </trkpt>
      <trkpt lat="49.54184" lon="5.70664">
        <ele>312</ele>
        <time>2011-07-03T07:56:30.000Z</time>
      </trkpt>
      <trkpt lat="49.54194" lon="5.70684">
        <ele>311</ele>
        <time>2011-07-03T07:56:35.000Z</time>
      </trkpt>
      <trkpt lat="49.5422" lon="5.70742">
        <ele>310</ele>
        <time>2011-07-03T07:56:49.000Z</time>
      </trkpt>
      <trkpt lat="49.54222" lon="5.70747">
        <ele>309</ele>
        <time>2011-07-03T07:56:50.000Z</time>
      </trkpt>
      <trkpt lat="49.54227" lon="5.70758">
        <ele>309</ele>
        <time>2011-07-03T07:56:52.000Z</time>
      </trkpt>
      <trkpt lat="49.54245" lon="5.70797">
        <ele>311</ele>
        <time>2011-07-03T07:57:01.000Z</time>
      </trkpt>
      <trkpt lat="49.54271" lon="5.70858">
        <ele>313</ele>
        <time>2011-07-03T07:57:15.000Z</time>
      </trkpt>
      <trkpt lat="49.54273" lon="5.70862">
        <ele>313</ele>
        <time>2011-07-03T07:57:16.000Z</time>
      </trkpt>
      <trkpt lat="49.54282" lon="5.70886">
        <ele>316</ele>
        <time>2011-07-03T07:57:22.000Z</time>
      </trkpt>
      <trkpt lat="49.54291" lon="5.70917">
        <ele>322</ele>
        <time>2011-07-03T07:57:30.000Z</time>
      </trkpt>
      <trkpt lat="49.54306" lon="5.70983">
        <ele>329</ele>
        <time>2011-07-03T07:57:45.000Z</time>
      </trkpt>
      <trkpt lat="49.54308" lon="5.70987">
        <ele>330</ele>
        <time>2011-07-03T07:57:46.000Z</time>
      </trkpt>
      <trkpt lat="49.54325" lon="5.71025">
        <ele>326</ele>
        <time>2011-07-03T07:57:54.000Z</time>
      </trkpt>
      <trkpt lat="49.5434" lon="5.71049">
        <ele>321</ele>
        <time>2011-07-03T07:58:00.000Z</time>
      </trkpt>
      <trkpt lat="49.54349" lon="5.71066">
        <ele>321</ele>
        <time>2011-07-03T07:58:04.000Z</time>
      </trkpt>
      <trkpt lat="49.54356" lon="5.71076">
        <ele>321</ele>
        <time>2011-07-03T07:58:07.000Z</time>
      </trkpt>
      <trkpt lat="49.54361" lon="5.71083">
        <ele>321</ele>
        <time>2011-07-03T07:58:09.000Z</time>
      </trkpt>
      <trkpt lat="49.54383" lon="5.71145">
        <ele>324</ele>
        <time>2011-07-03T07:58:23.000Z</time>
      </trkpt>
      <trkpt lat="49.54385" lon="5.71149">
        <ele>325</ele>
        <time>2011-07-03T07:58:24.000Z</time>
      </trkpt>
      <trkpt lat="49.54387" lon="5.71152">
        <ele>326</ele>
        <time>2011-07-03T07:58:25.000Z</time>
      </trkpt>
      <trkpt lat="49.54405" lon="5.7119">
        <ele>331</ele>
        <time>2011-07-03T07:58:36.000Z</time>
      </trkpt>
      <trkpt lat="49.54425" lon="5.71231">
        <ele>333</ele>
        <time>2011-07-03T07:58:50.000Z</time>
      </trkpt>
      <trkpt lat="49.54436" lon="5.71251">
        <ele>334</ele>
        <time>2011-07-03T07:58:57.000Z</time>
      </trkpt>
      <trkpt lat="49.54448" lon="5.71267">
        <ele>337</ele>
        <time>2011-07-03T07:59:03.000Z</time>
      </trkpt>
      <trkpt lat="49.5447" lon="5.71305">
        <ele>344</ele>
        <time>2011-07-03T07:59:18.000Z</time>
      </trkpt>
      <trkpt lat="49.54474" lon="5.71315">
        <ele>345</ele>
        <time>2011-07-03T07:59:22.000Z</time>
      </trkpt>
      <trkpt lat="49.54473" lon="5.71327">
        <ele>349</ele>
        <time>2011-07-03T07:59:28.000Z</time>
      </trkpt>
      <trkpt lat="49.54472" lon="5.71342">
        <ele>355</ele>
        <time>2011-07-03T07:59:35.000Z</time>
      </trkpt>
      <trkpt lat="49.54481" lon="5.71385">
        <ele>357</ele>
        <time>2011-07-03T07:59:48.000Z</time>
      </trkpt>
      <trkpt lat="49.54493" lon="5.71434">
        <ele>352</ele>
        <time>2011-07-03T08:00:02.000Z</time>
      </trkpt>
      <trkpt lat="49.54505" lon="5.71502">
        <ele>351</ele>
        <time>2011-07-03T08:00:21.000Z</time>
      </trkpt>
      <trkpt lat="49.54505" lon="5.71505">
        <ele>351</ele>
        <time>2011-07-03T08:00:22.000Z</time>
      </trkpt>
      <trkpt lat="49.54506" lon="5.71515">
        <ele>350</ele>
        <time>2011-07-03T08:00:25.000Z</time>
      </trkpt>
      <trkpt lat="49.54508" lon="5.7155">
        <ele>354</ele>
        <time>2011-07-03T08:00:37.000Z</time>
      </trkpt>
      <trkpt lat="49.54508" lon="5.71561">
        <ele>355</ele>
        <time>2011-07-03T08:00:41.000Z</time>
      </trkpt>
      <trkpt lat="49.54509" lon="5.71572">
        <ele>357</ele>
        <time>2011-07-03T08:00:45.000Z</time>
      </trkpt>
      <trkpt lat="49.54513" lon="5.71602">
        <ele>363</ele>
        <time>2011-07-03T08:00:57.000Z</time>
      </trkpt>
      <trkpt lat="49.5451" lon="5.71611">
        <ele>366</ele>
        <time>2011-07-03T08:01:01.000Z</time>
      </trkpt>
      <trkpt lat="49.54505" lon="5.71616">
        <ele>371</ele>
        <time>2011-07-03T08:01:05.000Z</time>
      </trkpt>
      <trkpt lat="49.54499" lon="5.71615">
        <ele>378</ele>
        <time>2011-07-03T08:01:10.000Z</time>
      </trkpt>
      <trkpt lat="49.54492" lon="5.71612">
        <ele>382</ele>
        <time>2011-07-03T08:01:14.000Z</time>
      </trkpt>
      <trkpt lat="49.54467" lon="5.71589">
        <ele>376</ele>
        <time>2011-07-03T08:01:33.000Z</time>
      </trkpt>
      <trkpt lat="49.54454" lon="5.71575">
        <ele>368</ele>
        <time>2011-07-03T08:01:42.000Z</time>
      </trkpt>
      <trkpt lat="49.54417" lon="5.7154">
        <ele>372</ele>
        <time>2011-07-03T08:01:59.000Z</time>
      </trkpt>
      <trkpt lat="49.54416" lon="5.71539">
        <ele>373</ele>
        <time>2011-07-03T08:02:00.000Z</time>
      </trkpt>
      <trkpt lat="49.54397" lon="5.71529">
        <ele>387</ele>
        <time>2011-07-03T08:02:11.000Z</time>
      </trkpt>
      <trkpt lat="49.54391" lon="5.7153">
        <ele>391</ele>
        <time>2011-07-03T08:02:15.000Z</time>
      </trkpt>
      <trkpt lat="49.54388" lon="5.71539">
        <ele>392</ele>
        <time>2011-07-03T08:02:19.000Z</time>
      </trkpt>
      <trkpt lat="49.544" lon="5.71571">
        <ele>391</ele>
        <time>2011-07-03T08:02:28.000Z</time>
      </trkpt>
      <trkpt lat="49.54405" lon="5.71579">
        <ele>390</ele>
        <time>2011-07-03T08:02:30.000Z</time>
      </trkpt>
      <trkpt lat="49.54435" lon="5.71631">
        <ele>386</ele>
        <time>2011-07-03T08:02:43.000Z</time>
      </trkpt>
      <trkpt lat="49.54436" lon="5.71632">
        <ele>386</ele>
        <time>2011-07-03T08:02:44.000Z</time>
      </trkpt>
      <trkpt lat="49.54436" lon="5.71635">
        <ele>385</ele>
        <time>2011-07-03T08:02:52.000Z</time>
      </trkpt>
      <trkpt lat="49.54436" lon="5.71645">
        <ele>401</ele>
        <time>2011-07-03T08:03:45.000Z</time>
      </trkpt>
      <trkpt lat="49.5447" lon="5.71692">
        <ele>389</ele>
        <time>2011-07-03T08:04:03.000Z</time>
      </trkpt>
      <trkpt lat="49.54492" lon="5.71713">
        <ele>388</ele>
        <time>2011-07-03T08:04:04.000Z</time>
      </trkpt>
      <trkpt lat="49.54513" lon="5.71726">
        <ele>379</ele>
        <time>2011-07-03T08:04:14.000Z</time>
      </trkpt>
      <trkpt lat="49.54517" lon="5.71728">
        <ele>378</ele>
        <time>2011-07-03T08:04:15.000Z</time>
      </trkpt>
      <trkpt lat="49.54564" lon="5.71748">
        <ele>373</ele>
        <time>2011-07-03T08:04:26.000Z</time>
      </trkpt>
      <trkpt lat="49.54567" lon="5.7175">
        <ele>373</ele>
        <time>2011-07-03T08:04:27.000Z</time>
      </trkpt>
      <trkpt lat="49.54583" lon="5.71757">
        <ele>374</ele>
        <time>2011-07-03T08:04:34.000Z</time>
      </trkpt>
      <trkpt lat="49.54586" lon="5.71765">
        <ele>380</ele>
        <time>2011-07-03T08:04:43.000Z</time>
      </trkpt>
      <trkpt lat="49.54589" lon="5.71769">
        <ele>433</ele>
        <time>2011-07-03T08:06:47.000Z</time>
      </trkpt>
      <trkpt lat="49.5459" lon="5.71775">
        <ele>379</ele>
        <time>2011-07-03T08:11:28.000Z</time>
      </trkpt>
      <trkpt lat="49.54589" lon="5.71806">
        <ele>382</ele>
        <time>2011-07-03T08:11:46.000Z</time>
      </trkpt>
      <trkpt lat="49.54588" lon="5.71829">
        <ele>387</ele>
        <time>2011-07-03T08:11:55.000Z</time>
      </trkpt>
      <trkpt lat="49.54587" lon="5.71842">
        <ele>387</ele>
        <time>2011-07-03T08:11:57.000Z</time>
      </trkpt>
      <trkpt lat="49.54586" lon="5.7187">
        <ele>387</ele>
        <time>2011-07-03T08:12:06.000Z</time>
      </trkpt>
      <trkpt lat="49.54582" lon="5.71889">
        <ele>385</ele>
        <time>2011-07-03T08:12:11.000Z</time>
      </trkpt>
      <trkpt lat="49.54579" lon="5.71897">
        <ele>385</ele>
        <time>2011-07-03T08:12:13.000Z</time>
      </trkpt>
      <trkpt lat="49.5456" lon="5.7193">
        <ele>385</ele>
        <time>2011-07-03T08:12:29.000Z</time>
      </trkpt>
      <trkpt lat="49.54548" lon="5.71952">
        <ele>385</ele>
        <time>2011-07-03T08:12:30.000Z</time>
      </trkpt>
      <trkpt lat="49.54543" lon="5.71959">
        <ele>385</ele>
        <time>2011-07-03T08:12:32.000Z</time>
      </trkpt>
      <trkpt lat="49.54528" lon="5.71983">
        <ele>386</ele>
        <time>2011-07-03T08:12:39.000Z</time>
      </trkpt>
      <trkpt lat="49.54496" lon="5.72018">
        <ele>385</ele>
        <time>2011-07-03T08:12:49.000Z</time>
      </trkpt>
      <trkpt lat="49.5448" lon="5.72033">
        <ele>386</ele>
        <time>2011-07-03T08:12:55.000Z</time>
      </trkpt>
      <trkpt lat="49.54441" lon="5.72076">
        <ele>391</ele>
        <time>2011-07-03T08:13:08.000Z</time>
      </trkpt>
      <trkpt lat="49.54437" lon="5.72079">
        <ele>392</ele>
        <time>2011-07-03T08:13:09.000Z</time>
      </trkpt>
      <trkpt lat="49.54431" lon="5.72088">
        <ele>393</ele>
        <time>2011-07-03T08:13:11.000Z</time>
      </trkpt>
      <trkpt lat="49.54397" lon="5.72132">
        <ele>400</ele>
        <time>2011-07-03T08:13:22.000Z</time>
      </trkpt>
      <trkpt lat="49.54394" lon="5.72136">
        <ele>400</ele>
        <time>2011-07-03T08:13:23.000Z</time>
      </trkpt>
      <trkpt lat="49.54357" lon="5.72181">
        <ele>401</ele>
        <time>2011-07-03T08:13:31.000Z</time>
      </trkpt>
      <trkpt lat="49.54352" lon="5.72186">
        <ele>400</ele>
        <time>2011-07-03T08:13:32.000Z</time>
      </trkpt>
      <trkpt lat="49.54332" lon="5.72206">
        <ele>396</ele>
        <time>2011-07-03T08:13:37.000Z</time>
      </trkpt>
      <trkpt lat="49.54314" lon="5.72272">
        <ele>389</ele>
        <time>2011-07-03T08:13:47.000Z</time>
      </trkpt>
      <trkpt lat="49.54314" lon="5.72276">
        <ele>388</ele>
        <time>2011-07-03T08:13:48.000Z</time>
      </trkpt>
      <trkpt lat="49.54314" lon="5.7228">
        <ele>387</ele>
        <time>2011-07-03T08:13:49.000Z</time>
      </trkpt>
      <trkpt lat="49.54317" lon="5.72289">
        <ele>384</ele>
        <time>2011-07-03T08:13:52.000Z</time>
      </trkpt>
      <trkpt lat="49.54343" lon="5.72348">
        <ele>378</ele>
        <time>2011-07-03T08:14:03.000Z</time>
      </trkpt>
      <trkpt lat="49.54346" lon="5.72352">
        <ele>377</ele>
        <time>2011-07-03T08:14:04.000Z</time>
      </trkpt>
      <trkpt lat="49.54389" lon="5.72388">
        <ele>372</ele>
        <time>2011-07-03T08:14:16.000Z</time>
      </trkpt>
      <trkpt lat="49.54393" lon="5.72389">
        <ele>372</ele>
        <time>2011-07-03T08:14:17.000Z</time>
      </trkpt>
      <trkpt lat="49.54399" lon="5.72392">
        <ele>371</ele>
        <time>2011-07-03T08:14:19.000Z</time>
      </trkpt>
      <trkpt lat="49.54419" lon="5.72413">
        <ele>370</ele>
        <time>2011-07-03T08:14:26.000Z</time>
      </trkpt>
      <trkpt lat="49.54434" lon="5.72451">
        <ele>373</ele>
        <time>2011-07-03T08:14:34.000Z</time>
      </trkpt>
      <trkpt lat="49.54449" lon="5.72522">
        <ele>376</ele>
        <time>2011-07-03T08:14:44.000Z</time>
      </trkpt>
      <trkpt lat="49.5445" lon="5.7253">
        <ele>376</ele>
        <time>2011-07-03T08:14:45.000Z</time>
      </trkpt>
      <trkpt lat="49.5445" lon="5.72562">
        <ele>379</ele>
        <time>2011-07-03T08:14:50.000Z</time>
      </trkpt>
      <trkpt lat="49.54446" lon="5.7257">
        <ele>380</ele>
        <time>2011-07-03T08:14:52.000Z</time>
      </trkpt>
      <trkpt lat="49.54425" lon="5.72578">
        <ele>386</ele>
        <time>2011-07-03T08:14:58.000Z</time>
      </trkpt>
      <trkpt lat="49.54387" lon="5.72611">
        <ele>394</ele>
        <time>2011-07-03T08:15:09.000Z</time>
      </trkpt>
      <trkpt lat="49.54383" lon="5.72618">
        <ele>394</ele>
        <time>2011-07-03T08:15:10.000Z</time>
      </trkpt>
      <trkpt lat="49.54368" lon="5.72659">
        <ele>394</ele>
        <time>2011-07-03T08:15:15.000Z</time>
      </trkpt>
      <trkpt lat="49.54368" lon="5.72676">
        <ele>394</ele>
        <time>2011-07-03T08:15:18.000Z</time>
      </trkpt>
      <trkpt lat="49.54371" lon="5.72701">
        <ele>392</ele>
        <time>2011-07-03T08:15:23.000Z</time>
      </trkpt>
      <trkpt lat="49.54385" lon="5.72744">
        <ele>388</ele>
        <time>2011-07-03T08:15:31.000Z</time>
      </trkpt>
      <trkpt lat="49.54395" lon="5.72767">
        <ele>382</ele>
        <time>2011-07-03T08:15:35.000Z</time>
      </trkpt>
      <trkpt lat="49.54409" lon="5.72799">
        <ele>377</ele>
        <time>2011-07-03T08:15:41.000Z</time>
      </trkpt>
      <trkpt lat="49.54414" lon="5.72814">
        <ele>378</ele>
        <time>2011-07-03T08:15:44.000Z</time>
      </trkpt>
      <trkpt lat="49.54421" lon="5.72847">
        <ele>378</ele>
        <time>2011-07-03T08:15:49.000Z</time>
      </trkpt>
      <trkpt lat="49.54436" lon="5.72886">
        <ele>374</ele>
        <time>2011-07-03T08:15:55.000Z</time>
      </trkpt>
      <trkpt lat="49.54446" lon="5.72918">
        <ele>373</ele>
        <time>2011-07-03T08:16:00.000Z</time>
      </trkpt>
      <trkpt lat="49.54449" lon="5.7293">
        <ele>372</ele>
        <time>2011-07-03T08:16:02.000Z</time>
      </trkpt>
      <trkpt lat="49.54458" lon="5.72971">
        <ele>371</ele>
        <time>2011-07-03T08:16:08.000Z</time>
      </trkpt>
      <trkpt lat="49.54464" lon="5.72999">
        <ele>370</ele>
        <time>2011-07-03T08:16:12.000Z</time>
      </trkpt>
      <trkpt lat="49.54478" lon="5.73073">
        <ele>371</ele>
        <time>2011-07-03T08:16:22.000Z</time>
      </trkpt>
      <trkpt lat="49.54478" lon="5.73082">
        <ele>371</ele>
        <time>2011-07-03T08:16:23.000Z</time>
      </trkpt>
      <trkpt lat="49.54483" lon="5.7313">
        <ele>373</ele>
        <time>2011-07-03T08:16:29.000Z</time>
      </trkpt>
      <trkpt lat="49.54496" lon="5.73198">
        <ele>374</ele>
        <time>2011-07-03T08:16:38.000Z</time>
      </trkpt>
      <trkpt lat="49.54498" lon="5.73205">
        <ele>374</ele>
        <time>2011-07-03T08:16:39.000Z</time>
      </trkpt>
      <trkpt lat="49.54517" lon="5.73269">
        <ele>375</ele>
        <time>2011-07-03T08:16:49.000Z</time>
      </trkpt>
      <trkpt lat="49.5452" lon="5.73276">
        <ele>375</ele>
        <time>2011-07-03T08:16:50.000Z</time>
      </trkpt>
      <trkpt lat="49.54535" lon="5.73308">
        <ele>373</ele>
        <time>2011-07-03T08:16:55.000Z</time>
      </trkpt>
      <trkpt lat="49.54543" lon="5.73338">
        <ele>374</ele>
        <time>2011-07-03T08:16:59.000Z</time>
      </trkpt>
      <trkpt lat="49.54565" lon="5.73398">
        <ele>379</ele>
        <time>2011-07-03T08:17:09.000Z</time>
      </trkpt>
      <trkpt lat="49.54567" lon="5.73402">
        <ele>379</ele>
        <time>2011-07-03T08:17:10.000Z</time>
      </trkpt>
      <trkpt lat="49.54568" lon="5.73406">
        <ele>379</ele>
        <time>2011-07-03T08:17:11.000Z</time>
      </trkpt>
      <trkpt lat="49.54573" lon="5.73413">
        <ele>380</ele>
        <time>2011-07-03T08:17:13.000Z</time>
      </trkpt>
      <trkpt lat="49.54579" lon="5.73417">
        <ele>382</ele>
        <time>2011-07-03T08:17:15.000Z</time>
      </trkpt>
      <trkpt lat="49.54584" lon="5.73422">
        <ele>383</ele>
        <time>2011-07-03T08:17:18.000Z</time>
      </trkpt>
      <trkpt lat="49.54588" lon="5.73428">
        <ele>384</ele>
        <time>2011-07-03T08:17:22.000Z</time>
      </trkpt>
      <trkpt lat="49.54585" lon="5.73439">
        <ele>383</ele>
        <time>2011-07-03T08:17:26.000Z</time>
      </trkpt>
      <trkpt lat="49.54583" lon="5.73438">
        <ele>383</ele>
        <time>2011-07-03T08:17:35.000Z</time>
      </trkpt>
      <trkpt lat="49.54587" lon="5.73431">
        <ele>382</ele>
        <time>2011-07-03T08:17:39.000Z</time>
      </trkpt>
      <trkpt lat="49.54589" lon="5.73433">
        <ele>382</ele>
        <time>2011-07-03T08:17:47.000Z</time>
      </trkpt>
      <trkpt lat="49.54566" lon="5.73494">
        <ele>387</ele>
        <time>2011-07-03T08:17:58.000Z</time>
      </trkpt>
      <trkpt lat="49.54563" lon="5.73499">
        <ele>387</ele>
        <time>2011-07-03T08:17:59.000Z</time>
      </trkpt>
      <trkpt lat="49.54558" lon="5.73502">
        <ele>386</ele>
        <time>2011-07-03T08:18:02.000Z</time>
      </trkpt>
      <trkpt lat="49.54545" lon="5.73428">
        <ele>372</ele>
        <time>2011-07-03T08:18:10.000Z</time>
      </trkpt>
      <trkpt lat="49.54542" lon="5.73417">
        <ele>371</ele>
        <time>2011-07-03T08:18:11.000Z</time>
      </trkpt>
      <trkpt lat="49.54538" lon="5.73407">
        <ele>370</ele>
        <time>2011-07-03T08:18:12.000Z</time>
      </trkpt>
      <trkpt lat="49.54524" lon="5.73382">
        <ele>366</ele>
        <time>2011-07-03T08:18:15.000Z</time>
      </trkpt>
      <trkpt lat="49.54484" lon="5.73339">
        <ele>361</ele>
        <time>2011-07-03T08:18:21.000Z</time>
      </trkpt>
      <trkpt lat="49.54478" lon="5.73331">
        <ele>360</ele>
        <time>2011-07-03T08:18:22.000Z</time>
      </trkpt>
      <trkpt lat="49.54441" lon="5.73279">
        <ele>355</ele>
        <time>2011-07-03T08:18:28.000Z</time>
      </trkpt>
      <trkpt lat="49.54435" lon="5.73271">
        <ele>354</ele>
        <time>2011-07-03T08:18:29.000Z</time>
      </trkpt>
      <trkpt lat="49.54424" lon="5.73262">
        <ele>353</ele>
        <time>2011-07-03T08:18:31.000Z</time>
      </trkpt>
      <trkpt lat="49.54395" lon="5.73267">
        <ele>355</ele>
        <time>2011-07-03T08:18:40.000Z</time>
      </trkpt>
      <trkpt lat="49.54394" lon="5.73279">
        <ele>370</ele>
        <time>2011-07-03T08:18:47.000Z</time>
      </trkpt>
      <trkpt lat="49.54394" lon="5.73295">
        <ele>379</ele>
        <time>2011-07-03T08:18:53.000Z</time>
      </trkpt>
      <trkpt lat="49.54387" lon="5.73313">
        <ele>385</ele>
        <time>2011-07-03T08:19:01.000Z</time>
      </trkpt>
      <trkpt lat="49.54383" lon="5.73319">
        <ele>385</ele>
        <time>2011-07-03T08:19:05.000Z</time>
      </trkpt>
      <trkpt lat="49.5438" lon="5.73348">
        <ele>381</ele>
        <time>2011-07-03T08:19:15.000Z</time>
      </trkpt>
      <trkpt lat="49.54379" lon="5.7336">
        <ele>373</ele>
        <time>2011-07-03T08:19:21.000Z</time>
      </trkpt>
      <trkpt lat="49.54377" lon="5.73374">
        <ele>369</ele>
        <time>2011-07-03T08:19:27.000Z</time>
      </trkpt>
      <trkpt lat="49.54377" lon="5.73384">
        <ele>368</ele>
        <time>2011-07-03T08:19:31.000Z</time>
      </trkpt>
      <trkpt lat="49.54373" lon="5.73399">
        <ele>367</ele>
        <time>2011-07-03T08:19:37.000Z</time>
      </trkpt>
      <trkpt lat="49.54367" lon="5.7342">
        <ele>371</ele>
        <time>2011-07-03T08:19:45.000Z</time>
      </trkpt>
      <trkpt lat="49.54362" lon="5.7343">
        <ele>374</ele>
        <time>2011-07-03T08:19:49.000Z</time>
      </trkpt>
      <trkpt lat="49.54357" lon="5.73441">
        <ele>378</ele>
        <time>2011-07-03T08:19:55.000Z</time>
      </trkpt>
      <trkpt lat="49.54355" lon="5.7345">
        <ele>382</ele>
        <time>2011-07-03T08:19:59.000Z</time>
      </trkpt>
      <trkpt lat="49.54353" lon="5.73463">
        <ele>384</ele>
        <time>2011-07-03T08:20:05.000Z</time>
      </trkpt>
      <trkpt lat="49.54347" lon="5.73482">
        <ele>393</ele>
        <time>2011-07-03T08:20:16.000Z</time>
      </trkpt>
      <trkpt lat="49.54343" lon="5.7349">
        <ele>397</ele>
        <time>2011-07-03T08:20:20.000Z</time>
      </trkpt>
      <trkpt lat="49.5434" lon="5.735">
        <ele>401</ele>
        <time>2011-07-03T08:20:24.000Z</time>
      </trkpt>
      <trkpt lat="49.54332" lon="5.73514">
        <ele>402</ele>
        <time>2011-07-03T08:20:30.000Z</time>
      </trkpt>
      <trkpt lat="49.54315" lon="5.73537">
        <ele>403</ele>
        <time>2011-07-03T08:20:42.000Z</time>
      </trkpt>
      <trkpt lat="49.54295" lon="5.73556">
        <ele>398</ele>
        <time>2011-07-03T08:20:52.000Z</time>
      </trkpt>
      <trkpt lat="49.54278" lon="5.73576">
        <ele>393</ele>
        <time>2011-07-03T08:21:01.000Z</time>
      </trkpt>
      <trkpt lat="49.5424" lon="5.73619">
        <ele>380</ele>
        <time>2011-07-03T08:21:19.000Z</time>
      </trkpt>
      <trkpt lat="49.54237" lon="5.73622">
        <ele>380</ele>
        <time>2011-07-03T08:21:20.000Z</time>
      </trkpt>
      <trkpt lat="49.54229" lon="5.73627">
        <ele>381</ele>
        <time>2011-07-03T08:21:23.000Z</time>
      </trkpt>
      <trkpt lat="49.54193" lon="5.73584">
        <ele>384</ele>
        <time>2011-07-03T08:21:33.000Z</time>
      </trkpt>
      <trkpt lat="49.5419" lon="5.7358">
        <ele>384</ele>
        <time>2011-07-03T08:21:34.000Z</time>
      </trkpt>
      <trkpt lat="49.54169" lon="5.73548">
        <ele>386</ele>
        <time>2011-07-03T08:21:41.000Z</time>
      </trkpt>
      <trkpt lat="49.54137" lon="5.73495">
        <ele>394</ele>
        <time>2011-07-03T08:21:52.000Z</time>
      </trkpt>
      <trkpt lat="49.54134" lon="5.7349">
        <ele>396</ele>
        <time>2011-07-03T08:21:53.000Z</time>
      </trkpt>
      <trkpt lat="49.54122" lon="5.73467">
        <ele>403</ele>
        <time>2011-07-03T08:21:58.000Z</time>
      </trkpt>
      <trkpt lat="49.54109" lon="5.73442">
        <ele>405</ele>
        <time>2011-07-03T08:22:03.000Z</time>
      </trkpt>
      <trkpt lat="49.54089" lon="5.73405">
        <ele>408</ele>
        <time>2011-07-03T08:22:09.000Z</time>
      </trkpt>
      <trkpt lat="49.54081" lon="5.73391">
        <ele>410</ele>
        <time>2011-07-03T08:22:12.000Z</time>
      </trkpt>
      <trkpt lat="49.54065" lon="5.73359">
        <ele>412</ele>
        <time>2011-07-03T08:22:18.000Z</time>
      </trkpt>
      <trkpt lat="49.54049" lon="5.73327">
        <ele>413</ele>
        <time>2011-07-03T08:22:24.000Z</time>
      </trkpt>
      <trkpt lat="49.54019" lon="5.73272">
        <ele>414</ele>
        <time>2011-07-03T08:22:34.000Z</time>
      </trkpt>
      <trkpt lat="49.54015" lon="5.73266">
        <ele>413</ele>
        <time>2011-07-03T08:22:35.000Z</time>
      </trkpt>
      <trkpt lat="49.53997" lon="5.73228">
        <ele>407</ele>
        <time>2011-07-03T08:22:41.000Z</time>
      </trkpt>
      <trkpt lat="49.53973" lon="5.73167">
        <ele>401</ele>
        <time>2011-07-03T08:22:51.000Z</time>
      </trkpt>
      <trkpt lat="49.5397" lon="5.7316">
        <ele>400</ele>
        <time>2011-07-03T08:22:52.000Z</time>
      </trkpt>
      <trkpt lat="49.53951" lon="5.73124">
        <ele>394</ele>
        <time>2011-07-03T08:22:58.000Z</time>
      </trkpt>
      <trkpt lat="49.53922" lon="5.73062">
        <ele>389</ele>
        <time>2011-07-03T08:23:08.000Z</time>
      </trkpt>
      <trkpt lat="49.53919" lon="5.73057">
        <ele>389</ele>
        <time>2011-07-03T08:23:09.000Z</time>
      </trkpt>
      <trkpt lat="49.53916" lon="5.73053">
        <ele>388</ele>
        <time>2011-07-03T08:23:10.000Z</time>
      </trkpt>
      <trkpt lat="49.53889" lon="5.73002">
        <ele>389</ele>
        <time>2011-07-03T08:23:19.000Z</time>
      </trkpt>
      <trkpt lat="49.53887" lon="5.72995">
        <ele>390</ele>
        <time>2011-07-03T08:23:20.000Z</time>
      </trkpt>
      <trkpt lat="49.5386" lon="5.72934">
        <ele>396</ele>
        <time>2011-07-03T08:23:30.000Z</time>
      </trkpt>
      <trkpt lat="49.53857" lon="5.72928">
        <ele>396</ele>
        <time>2011-07-03T08:23:31.000Z</time>
      </trkpt>
      <trkpt lat="49.53853" lon="5.72921">
        <ele>397</ele>
        <time>2011-07-03T08:23:32.000Z</time>
      </trkpt>
      <trkpt lat="49.53823" lon="5.72865">
        <ele>403</ele>
        <time>2011-07-03T08:23:41.000Z</time>
      </trkpt>
      <trkpt lat="49.5382" lon="5.72858">
        <ele>403</ele>
        <time>2011-07-03T08:23:42.000Z</time>
      </trkpt>
      <trkpt lat="49.53815" lon="5.72843">
        <ele>403</ele>
        <time>2011-07-03T08:23:44.000Z</time>
      </trkpt>
      <trkpt lat="49.5379" lon="5.72783">
        <ele>405</ele>
        <time>2011-07-03T08:23:52.000Z</time>
      </trkpt>
      <trkpt lat="49.53786" lon="5.72775">
        <ele>405</ele>
        <time>2011-07-03T08:23:53.000Z</time>
      </trkpt>
      <trkpt lat="49.53757" lon="5.72714">
        <ele>402</ele>
        <time>2011-07-03T08:24:01.000Z</time>
      </trkpt>
      <trkpt lat="49.53754" lon="5.72705">
        <ele>402</ele>
        <time>2011-07-03T08:24:02.000Z</time>
      </trkpt>
      <trkpt lat="49.53732" lon="5.72646">
        <ele>400</ele>
        <time>2011-07-03T08:24:10.000Z</time>
      </trkpt>
      <trkpt lat="49.5373" lon="5.72637">
        <ele>400</ele>
        <time>2011-07-03T08:24:11.000Z</time>
      </trkpt>
      <trkpt lat="49.53713" lon="5.72568">
        <ele>401</ele>
        <time>2011-07-03T08:24:18.000Z</time>
      </trkpt>
      <trkpt lat="49.5371" lon="5.72558">
        <ele>401</ele>
        <time>2011-07-03T08:24:19.000Z</time>
      </trkpt>
      <trkpt lat="49.53687" lon="5.72488">
        <ele>400</ele>
        <time>2011-07-03T08:24:26.000Z</time>
      </trkpt>
      <trkpt lat="49.53685" lon="5.72477">
        <ele>399</ele>
        <time>2011-07-03T08:24:27.000Z</time>
      </trkpt>
      <trkpt lat="49.53668" lon="5.72402">
        <ele>393</ele>
        <time>2011-07-03T08:24:34.000Z</time>
      </trkpt>
      <trkpt lat="49.53665" lon="5.72391">
        <ele>393</ele>
        <time>2011-07-03T08:24:35.000Z</time>
      </trkpt>
      <trkpt lat="49.53649" lon="5.72324">
        <ele>390</ele>
        <time>2011-07-03T08:24:41.000Z</time>
      </trkpt>
      <trkpt lat="49.53647" lon="5.72312">
        <ele>389</ele>
        <time>2011-07-03T08:24:42.000Z</time>
      </trkpt>
      <trkpt lat="49.53629" lon="5.72236">
        <ele>384</ele>
        <time>2011-07-03T08:24:49.000Z</time>
      </trkpt>
      <trkpt lat="49.53625" lon="5.72226">
        <ele>383</ele>
        <time>2011-07-03T08:24:50.000Z</time>
      </trkpt>
      <trkpt lat="49.53617" lon="5.72202">
        <ele>380</ele>
        <time>2011-07-03T08:24:53.000Z</time>
      </trkpt>
      <trkpt lat="49.53596" lon="5.72156">
        <ele>371</ele>
        <time>2011-07-03T08:25:00.000Z</time>
      </trkpt>
      <trkpt lat="49.53556" lon="5.72112">
        <ele>363</ele>
        <time>2011-07-03T08:25:08.000Z</time>
      </trkpt>
      <trkpt lat="49.53551" lon="5.72104">
        <ele>361</ele>
        <time>2011-07-03T08:25:09.000Z</time>
      </trkpt>
      <trkpt lat="49.53529" lon="5.72068">
        <ele>355</ele>
        <time>2011-07-03T08:25:14.000Z</time>
      </trkpt>
      <trkpt lat="49.53484" lon="5.72026">
        <ele>345</ele>
        <time>2011-07-03T08:25:20.000Z</time>
      </trkpt>
      <trkpt lat="49.53477" lon="5.7202">
        <ele>343</ele>
        <time>2011-07-03T08:25:21.000Z</time>
      </trkpt>
      <trkpt lat="49.53467" lon="5.72005">
        <ele>340</ele>
        <time>2011-07-03T08:25:23.000Z</time>
      </trkpt>
      <trkpt lat="49.53442" lon="5.71939">
        <ele>323</ele>
        <time>2011-07-03T08:25:30.000Z</time>
      </trkpt>
      <trkpt lat="49.53437" lon="5.71931">
        <ele>321</ele>
        <time>2011-07-03T08:25:31.000Z</time>
      </trkpt>
      <trkpt lat="49.53414" lon="5.7189">
        <ele>310</ele>
        <time>2011-07-03T08:25:36.000Z</time>
      </trkpt>
      <trkpt lat="49.53399" lon="5.71862">
        <ele>304</ele>
        <time>2011-07-03T08:25:39.000Z</time>
      </trkpt>
      <trkpt lat="49.53378" lon="5.71811">
        <ele>297</ele>
        <time>2011-07-03T08:25:44.000Z</time>
      </trkpt>
      <trkpt lat="49.53379" lon="5.71797">
        <ele>296</ele>
        <time>2011-07-03T08:25:46.000Z</time>
      </trkpt>
      <trkpt lat="49.53387" lon="5.71794">
        <ele>295</ele>
        <time>2011-07-03T08:25:48.000Z</time>
      </trkpt>
      <trkpt lat="49.5341" lon="5.71799">
        <ele>294</ele>
        <time>2011-07-03T08:25:52.000Z</time>
      </trkpt>
      <trkpt lat="49.53421" lon="5.71801">
        <ele>293</ele>
        <time>2011-07-03T08:25:54.000Z</time>
      </trkpt>
      <trkpt lat="49.53424" lon="5.71796">
        <ele>293</ele>
        <time>2011-07-03T08:25:56.000Z</time>
      </trkpt>
      <trkpt lat="49.53419" lon="5.71787">
        <ele>293</ele>
        <time>2011-07-03T08:25:59.000Z</time>
      </trkpt>
      <trkpt lat="49.53381" lon="5.71751">
        <ele>298</ele>
        <time>2011-07-03T08:26:11.000Z</time>
      </trkpt>
      <trkpt lat="49.53376" lon="5.71748">
        <ele>297</ele>
        <time>2011-07-03T08:26:12.000Z</time>
      </trkpt>
      <trkpt lat="49.53347" lon="5.7173">
        <ele>299</ele>
        <time>2011-07-03T08:26:18.000Z</time>
      </trkpt>
      <trkpt lat="49.53337" lon="5.7173">
        <ele>297</ele>
        <time>2011-07-03T08:26:21.000Z</time>
      </trkpt>
      <trkpt lat="49.53333" lon="5.71735">
        <ele>295</ele>
        <time>2011-07-03T08:26:26.000Z</time>
      </trkpt>
      <trkpt lat="49.5333" lon="5.71749">
        <ele>295</ele>
        <time>2011-07-03T08:26:32.000Z</time>
      </trkpt>
      <trkpt lat="49.5332" lon="5.71821">
        <ele>314</ele>
        <time>2011-07-03T08:26:48.000Z</time>
      </trkpt>
      <trkpt lat="49.53319" lon="5.71827">
        <ele>317</ele>
        <time>2011-07-03T08:26:49.000Z</time>
      </trkpt>
      <trkpt lat="49.53318" lon="5.71862">
        <ele>333</ele>
        <time>2011-07-03T08:26:56.000Z</time>
      </trkpt>
      <trkpt lat="49.53321" lon="5.71882">
        <ele>339</ele>
        <time>2011-07-03T08:27:02.000Z</time>
      </trkpt>
      <trkpt lat="49.53324" lon="5.71897">
        <ele>339</ele>
        <time>2011-07-03T08:27:06.000Z</time>
      </trkpt>
      <trkpt lat="49.53326" lon="5.71906">
        <ele>339</ele>
        <time>2011-07-03T08:27:08.000Z</time>
      </trkpt>
      <trkpt lat="49.53326" lon="5.71919">
        <ele>341</ele>
        <time>2011-07-03T08:27:11.000Z</time>
      </trkpt>
      <trkpt lat="49.53315" lon="5.71991">
        <ele>348</ele>
        <time>2011-07-03T08:27:23.000Z</time>
      </trkpt>
      <trkpt lat="49.53313" lon="5.71997">
        <ele>347</ele>
        <time>2011-07-03T08:27:24.000Z</time>
      </trkpt>
      <trkpt lat="49.53314" lon="5.7201">
        <ele>347</ele>
        <time>2011-07-03T08:27:26.000Z</time>
      </trkpt>
      <trkpt lat="49.53316" lon="5.72029">
        <ele>345</ele>
        <time>2011-07-03T08:27:29.000Z</time>
      </trkpt>
      <trkpt lat="49.53319" lon="5.72041">
        <ele>342</ele>
        <time>2011-07-03T08:27:31.000Z</time>
      </trkpt>
      <trkpt lat="49.53328" lon="5.7206">
        <ele>335</ele>
        <time>2011-07-03T08:27:35.000Z</time>
      </trkpt>
      <trkpt lat="49.53344" lon="5.72095">
        <ele>326</ele>
        <time>2011-07-03T08:27:41.000Z</time>
      </trkpt>
      <trkpt lat="49.53358" lon="5.7213">
        <ele>317</ele>
        <time>2011-07-03T08:27:47.000Z</time>
      </trkpt>
      <trkpt lat="49.53377" lon="5.72194">
        <ele>313</ele>
        <time>2011-07-03T08:27:57.000Z</time>
      </trkpt>
      <trkpt lat="49.53379" lon="5.72201">
        <ele>313</ele>
        <time>2011-07-03T08:27:58.000Z</time>
      </trkpt>
      <trkpt lat="49.53395" lon="5.72268">
        <ele>319</ele>
        <time>2011-07-03T08:28:08.000Z</time>
      </trkpt>
      <trkpt lat="49.53397" lon="5.72275">
        <ele>320</ele>
        <time>2011-07-03T08:28:09.000Z</time>
      </trkpt>
      <trkpt lat="49.53409" lon="5.72346">
        <ele>326</ele>
        <time>2011-07-03T08:28:18.000Z</time>
      </trkpt>
      <trkpt lat="49.53411" lon="5.72355">
        <ele>327</ele>
        <time>2011-07-03T08:28:19.000Z</time>
      </trkpt>
      <trkpt lat="49.53421" lon="5.72431">
        <ele>329</ele>
        <time>2011-07-03T08:28:27.000Z</time>
      </trkpt>
      <trkpt lat="49.53422" lon="5.72441">
        <ele>329</ele>
        <time>2011-07-03T08:28:28.000Z</time>
      </trkpt>
      <trkpt lat="49.53423" lon="5.7245">
        <ele>330</ele>
        <time>2011-07-03T08:28:29.000Z</time>
      </trkpt>
      <trkpt lat="49.53436" lon="5.72519">
        <ele>323</ele>
        <time>2011-07-03T08:28:37.000Z</time>
      </trkpt>
      <trkpt lat="49.53438" lon="5.72528">
        <ele>322</ele>
        <time>2011-07-03T08:28:38.000Z</time>
      </trkpt>
      <trkpt lat="49.53453" lon="5.72595">
        <ele>316</ele>
        <time>2011-07-03T08:28:47.000Z</time>
      </trkpt>
      <trkpt lat="49.53455" lon="5.72602">
        <ele>316</ele>
        <time>2011-07-03T08:28:48.000Z</time>
      </trkpt>
      <trkpt lat="49.53465" lon="5.72673">
        <ele>319</ele>
        <time>2011-07-03T08:29:00.000Z</time>
      </trkpt>
      <trkpt lat="49.53467" lon="5.72681">
        <ele>319</ele>
        <time>2011-07-03T08:29:01.000Z</time>
      </trkpt>
      <trkpt lat="49.53473" lon="5.72721">
        <ele>318</ele>
        <time>2011-07-03T08:29:07.000Z</time>
      </trkpt>
      <trkpt lat="49.53469" lon="5.72794">
        <ele>318</ele>
        <time>2011-07-03T08:29:16.000Z</time>
      </trkpt>
      <trkpt lat="49.53468" lon="5.72801">
        <ele>317</ele>
        <time>2011-07-03T08:29:17.000Z</time>
      </trkpt>
      <trkpt lat="49.53469" lon="5.72821">
        <ele>318</ele>
        <time>2011-07-03T08:29:20.000Z</time>
      </trkpt>
      <trkpt lat="49.53469" lon="5.72866">
        <ele>320</ele>
        <time>2011-07-03T08:29:26.000Z</time>
      </trkpt>
      <trkpt lat="49.53466" lon="5.72936">
        <ele>325</ele>
        <time>2011-07-03T08:29:34.000Z</time>
      </trkpt>
      <trkpt lat="49.53466" lon="5.72945">
        <ele>326</ele>
        <time>2011-07-03T08:29:35.000Z</time>
      </trkpt>
      <trkpt lat="49.53465" lon="5.72997">
        <ele>337</ele>
        <time>2011-07-03T08:29:42.000Z</time>
      </trkpt>
      <trkpt lat="49.5347" lon="5.73044">
        <ele>340</ele>
        <time>2011-07-03T08:29:50.000Z</time>
      </trkpt>
      <trkpt lat="49.53465" lon="5.7307">
        <ele>340</ele>
        <time>2011-07-03T08:29:56.000Z</time>
      </trkpt>
      <trkpt lat="49.53461" lon="5.73098">
        <ele>337</ele>
        <time>2011-07-03T08:30:02.000Z</time>
      </trkpt>
      <trkpt lat="49.53456" lon="5.7311">
        <ele>336</ele>
        <time>2011-07-03T08:30:04.000Z</time>
      </trkpt>
      <trkpt lat="49.5345" lon="5.73119">
        <ele>334</ele>
        <time>2011-07-03T08:30:06.000Z</time>
      </trkpt>
      <trkpt lat="49.53443" lon="5.73119">
        <ele>332</ele>
        <time>2011-07-03T08:30:08.000Z</time>
      </trkpt>
      <trkpt lat="49.5343" lon="5.73104">
        <ele>328</ele>
        <time>2011-07-03T08:30:11.000Z</time>
      </trkpt>
      <trkpt lat="49.53407" lon="5.73084">
        <ele>321</ele>
        <time>2011-07-03T08:30:15.000Z</time>
      </trkpt>
      <trkpt lat="49.53394" lon="5.73083">
        <ele>317</ele>
        <time>2011-07-03T08:30:17.000Z</time>
      </trkpt>
      <trkpt lat="49.53374" lon="5.7311">
        <ele>308</ele>
        <time>2011-07-03T08:30:22.000Z</time>
      </trkpt>
      <trkpt lat="49.53414" lon="5.73228">
        <ele>284</ele>
        <time>2011-07-03T08:30:41.000Z</time>
      </trkpt>
      <trkpt lat="49.53416" lon="5.73235">
        <ele>284</ele>
        <time>2011-07-03T08:30:42.000Z</time>
      </trkpt>
      <trkpt lat="49.53417" lon="5.73241">
        <ele>284</ele>
        <time>2011-07-03T08:30:43.000Z</time>
      </trkpt>
      <trkpt lat="49.53422" lon="5.73271">
        <ele>286</ele>
        <time>2011-07-03T08:30:48.000Z</time>
      </trkpt>
      <trkpt lat="49.53424" lon="5.73288">
        <ele>288</ele>
        <time>2011-07-03T08:30:51.000Z</time>
      </trkpt>
      <trkpt lat="49.53418" lon="5.73323">
        <ele>296</ele>
        <time>2011-07-03T08:30:56.000Z</time>
      </trkpt>
      <trkpt lat="49.53407" lon="5.73346">
        <ele>300</ele>
        <time>2011-07-03T08:31:00.000Z</time>
      </trkpt>
      <trkpt lat="49.53384" lon="5.73376">
        <ele>303</ele>
        <time>2011-07-03T08:31:06.000Z</time>
      </trkpt>
      <trkpt lat="49.53371" lon="5.734">
        <ele>303</ele>
        <time>2011-07-03T08:31:11.000Z</time>
      </trkpt>
      <trkpt lat="49.53366" lon="5.73412">
        <ele>303</ele>
        <time>2011-07-03T08:31:14.000Z</time>
      </trkpt>
      <trkpt lat="49.53356" lon="5.7343">
        <ele>305</ele>
        <time>2011-07-03T08:31:18.000Z</time>
      </trkpt>
      <trkpt lat="49.53349" lon="5.73444">
        <ele>307</ele>
        <time>2011-07-03T08:31:22.000Z</time>
      </trkpt>
      <trkpt lat="49.53345" lon="5.73452">
        <ele>304</ele>
        <time>2011-07-03T08:31:27.000Z</time>
      </trkpt>
      <trkpt lat="49.53328" lon="5.73474">
        <ele>303</ele>
        <time>2011-07-03T08:31:37.000Z</time>
      </trkpt>
      <trkpt lat="49.53315" lon="5.73483">
        <ele>299</ele>
        <time>2011-07-03T08:31:44.000Z</time>
      </trkpt>
      <trkpt lat="49.53296" lon="5.73534">
        <ele>294</ele>
        <time>2011-07-03T08:31:56.000Z</time>
      </trkpt>
      <trkpt lat="49.53296" lon="5.73562">
        <ele>293</ele>
        <time>2011-07-03T08:32:01.000Z</time>
      </trkpt>
      <trkpt lat="49.53293" lon="5.73575">
        <ele>296</ele>
        <time>2011-07-03T08:32:04.000Z</time>
      </trkpt>
      <trkpt lat="49.53294" lon="5.73588">
        <ele>299</ele>
        <time>2011-07-03T08:32:07.000Z</time>
      </trkpt>
      <trkpt lat="49.53296" lon="5.73603">
        <ele>301</ele>
        <time>2011-07-03T08:32:13.000Z</time>
      </trkpt>
      <trkpt lat="49.53297" lon="5.73615">
        <ele>304</ele>
        <time>2011-07-03T08:32:16.000Z</time>
      </trkpt>
      <trkpt lat="49.53296" lon="5.73626">
        <ele>307</ele>
        <time>2011-07-03T08:32:19.000Z</time>
      </trkpt>
      <trkpt lat="49.5329" lon="5.73645">
        <ele>311</ele>
        <time>2011-07-03T08:32:25.000Z</time>
      </trkpt>
      <trkpt lat="49.53291" lon="5.73656">
        <ele>317</ele>
        <time>2011-07-03T08:32:28.000Z</time>
      </trkpt>
      <trkpt lat="49.53294" lon="5.7367">
        <ele>325</ele>
        <time>2011-07-03T08:32:32.000Z</time>
      </trkpt>
      <trkpt lat="49.53297" lon="5.73684">
        <ele>333</ele>
        <time>2011-07-03T08:32:36.000Z</time>
      </trkpt>
      <trkpt lat="49.533" lon="5.73695">
        <ele>341</ele>
        <time>2011-07-03T08:32:41.000Z</time>
      </trkpt>
      <trkpt lat="49.53297" lon="5.73706">
        <ele>344</ele>
        <time>2011-07-03T08:32:44.000Z</time>
      </trkpt>
      <trkpt lat="49.53295" lon="5.73716">
        <ele>345</ele>
        <time>2011-07-03T08:32:46.000Z</time>
      </trkpt>
      <trkpt lat="49.53299" lon="5.73745">
        <ele>344</ele>
        <time>2011-07-03T08:32:54.000Z</time>
      </trkpt>
      <trkpt lat="49.53301" lon="5.73759">
        <ele>343</ele>
        <time>2011-07-03T08:32:57.000Z</time>
      </trkpt>
      <trkpt lat="49.53303" lon="5.73767">
        <ele>343</ele>
        <time>2011-07-03T08:32:59.000Z</time>
      </trkpt>
      <trkpt lat="49.53305" lon="5.73774">
        <ele>343</ele>
        <time>2011-07-03T08:33:01.000Z</time>
      </trkpt>
      <trkpt lat="49.53307" lon="5.73794">
        <ele>343</ele>
        <time>2011-07-03T08:33:05.000Z</time>
      </trkpt>
      <trkpt lat="49.53304" lon="5.73815">
        <ele>342</ele>
        <time>2011-07-03T08:33:08.000Z</time>
      </trkpt>
      <trkpt lat="49.53305" lon="5.73828">
        <ele>340</ele>
        <time>2011-07-03T08:33:10.000Z</time>
      </trkpt>
      <trkpt lat="49.53316" lon="5.73868">
        <ele>334</ele>
        <time>2011-07-03T08:33:17.000Z</time>
      </trkpt>
      <trkpt lat="49.53318" lon="5.73898">
        <ele>330</ele>
        <time>2011-07-03T08:33:23.000Z</time>
      </trkpt>
      <trkpt lat="49.5332" lon="5.73907">
        <ele>331</ele>
        <time>2011-07-03T08:33:25.000Z</time>
      </trkpt>
      <trkpt lat="49.53323" lon="5.73929">
        <ele>332</ele>
        <time>2011-07-03T08:33:30.000Z</time>
      </trkpt>
      <trkpt lat="49.53325" lon="5.73937">
        <ele>333</ele>
        <time>2011-07-03T08:33:32.000Z</time>
      </trkpt>
      <trkpt lat="49.53331" lon="5.73966">
        <ele>335</ele>
        <time>2011-07-03T08:33:39.000Z</time>
      </trkpt>
      <trkpt lat="49.53336" lon="5.73988">
        <ele>334</ele>
        <time>2011-07-03T08:33:43.000Z</time>
      </trkpt>
      <trkpt lat="49.53338" lon="5.74">
        <ele>331</ele>
        <time>2011-07-03T08:33:46.000Z</time>
      </trkpt>
      <trkpt lat="49.53341" lon="5.7401">
        <ele>329</ele>
        <time>2011-07-03T08:33:50.000Z</time>
      </trkpt>
      <trkpt lat="49.5335" lon="5.74031">
        <ele>326</ele>
        <time>2011-07-03T08:33:54.000Z</time>
      </trkpt>
      <trkpt lat="49.53357" lon="5.74061">
        <ele>324</ele>
        <time>2011-07-03T08:34:00.000Z</time>
      </trkpt>
      <trkpt lat="49.5336" lon="5.7408">
        <ele>321</ele>
        <time>2011-07-03T08:34:04.000Z</time>
      </trkpt>
      <trkpt lat="49.53365" lon="5.74096">
        <ele>319</ele>
        <time>2011-07-03T08:34:07.000Z</time>
      </trkpt>
      <trkpt lat="49.53376" lon="5.74129">
        <ele>322</ele>
        <time>2011-07-03T08:34:13.000Z</time>
      </trkpt>
      <trkpt lat="49.53386" lon="5.74172">
        <ele>320</ele>
        <time>2011-07-03T08:34:22.000Z</time>
      </trkpt>
      <trkpt lat="49.5339" lon="5.74181">
        <ele>318</ele>
        <time>2011-07-03T08:34:27.000Z</time>
      </trkpt>
      <trkpt lat="49.53415" lon="5.74164">
        <ele>306</ele>
        <time>2011-07-03T08:34:34.000Z</time>
      </trkpt>
      <trkpt lat="49.53432" lon="5.74125">
        <ele>295</ele>
        <time>2011-07-03T08:34:40.000Z</time>
      </trkpt>
      <trkpt lat="49.53429" lon="5.74087">
        <ele>291</ele>
        <time>2011-07-03T08:34:46.000Z</time>
      </trkpt>
      <trkpt lat="49.53426" lon="5.74067">
        <ele>288</ele>
        <time>2011-07-03T08:34:49.000Z</time>
      </trkpt>
      <trkpt lat="49.53423" lon="5.74047">
        <ele>286</ele>
        <time>2011-07-03T08:34:52.000Z</time>
      </trkpt>
      <trkpt lat="49.53417" lon="5.74025">
        <ele>285</ele>
        <time>2011-07-03T08:34:56.000Z</time>
      </trkpt>
      <trkpt lat="49.534" lon="5.7396">
        <ele>289</ele>
        <time>2011-07-03T08:35:06.000Z</time>
      </trkpt>
      <trkpt lat="49.53398" lon="5.73953">
        <ele>290</ele>
        <time>2011-07-03T08:35:07.000Z</time>
      </trkpt>
      <trkpt lat="49.53393" lon="5.73937">
        <ele>291</ele>
        <time>2011-07-03T08:35:09.000Z</time>
      </trkpt>
      <trkpt lat="49.53375" lon="5.73872">
        <ele>295</ele>
        <time>2011-07-03T08:35:17.000Z</time>
      </trkpt>
      <trkpt lat="49.53373" lon="5.73864">
        <ele>295</ele>
        <time>2011-07-03T08:35:18.000Z</time>
      </trkpt>
      <trkpt lat="49.53366" lon="5.73833">
        <ele>296</ele>
        <time>2011-07-03T08:35:23.000Z</time>
      </trkpt>
      <trkpt lat="49.53357" lon="5.73764">
        <ele>298</ele>
        <time>2011-07-03T08:35:33.000Z</time>
      </trkpt>
      <trkpt lat="49.53357" lon="5.73743">
        <ele>299</ele>
        <time>2011-07-03T08:35:36.000Z</time>
      </trkpt>
      <trkpt lat="49.53358" lon="5.73738">
        <ele>300</ele>
        <time>2011-07-03T08:35:37.000Z</time>
      </trkpt>
      <trkpt lat="49.53363" lon="5.7371">
        <ele>301</ele>
        <time>2011-07-03T08:35:43.000Z</time>
      </trkpt>
      <trkpt lat="49.53367" lon="5.73702">
        <ele>302</ele>
        <time>2011-07-03T08:35:45.000Z</time>
      </trkpt>
      <trkpt lat="49.53378" lon="5.73669">
        <ele>303</ele>
        <time>2011-07-03T08:35:52.000Z</time>
      </trkpt>
      <trkpt lat="49.53382" lon="5.73657">
        <ele>305</ele>
        <time>2011-07-03T08:35:55.000Z</time>
      </trkpt>
      <trkpt lat="49.5339" lon="5.73631">
        <ele>311</ele>
        <time>2011-07-03T08:36:01.000Z</time>
      </trkpt>
      <trkpt lat="49.53399" lon="5.73609">
        <ele>315</ele>
        <time>2011-07-03T08:36:08.000Z</time>
      </trkpt>
      <trkpt lat="49.53418" lon="5.73562">
        <ele>318</ele>
        <time>2011-07-03T08:36:16.000Z</time>
      </trkpt>
      <trkpt lat="49.53431" lon="5.73537">
        <ele>319</ele>
        <time>2011-07-03T08:36:20.000Z</time>
      </trkpt>
      <trkpt lat="49.53443" lon="5.73523">
        <ele>322</ele>
        <time>2011-07-03T08:36:24.000Z</time>
      </trkpt>
      <trkpt lat="49.53462" lon="5.735">
        <ele>334</ele>
        <time>2011-07-03T08:36:36.000Z</time>
      </trkpt>
      <trkpt lat="49.53492" lon="5.73482">
        <ele>334</ele>
        <time>2011-07-03T08:36:48.000Z</time>
      </trkpt>
      <trkpt lat="49.53693" lon="5.73532">
        <ele>336</ele>
        <time>2011-07-03T08:37:30.000Z</time>
      </trkpt>
      <trkpt lat="49.53696" lon="5.73537">
        <ele>337</ele>
        <time>2011-07-03T08:37:31.000Z</time>
      </trkpt>
      <trkpt lat="49.53722" lon="5.73576">
        <ele>348</ele>
        <time>2011-07-03T08:37:40.000Z</time>
      </trkpt>
      <trkpt lat="49.53725" lon="5.73586">
        <ele>350</ele>
        <time>2011-07-03T08:37:42.000Z</time>
      </trkpt>
      <trkpt lat="49.53745" lon="5.73616">
        <ele>355</ele>
        <time>2011-07-03T08:37:50.000Z</time>
      </trkpt>
      <trkpt lat="49.53767" lon="5.73643">
        <ele>359</ele>
        <time>2011-07-03T08:37:58.000Z</time>
      </trkpt>
      <trkpt lat="49.53772" lon="5.7365">
        <ele>360</ele>
        <time>2011-07-03T08:38:00.000Z</time>
      </trkpt>
      <trkpt lat="49.53782" lon="5.73662">
        <ele>361</ele>
        <time>2011-07-03T08:38:04.000Z</time>
      </trkpt>
      <trkpt lat="49.53794" lon="5.73679">
        <ele>361</ele>
        <time>2011-07-03T08:38:09.000Z</time>
      </trkpt>
      <trkpt lat="49.53822" lon="5.73718">
        <ele>354</ele>
        <time>2011-07-03T08:38:20.000Z</time>
      </trkpt>
      <trkpt lat="49.53828" lon="5.73732">
        <ele>353</ele>
        <time>2011-07-03T08:38:23.000Z</time>
      </trkpt>
      <trkpt lat="49.53831" lon="5.73738">
        <ele>352</ele>
        <time>2011-07-03T08:38:25.000Z</time>
      </trkpt>
      <trkpt lat="49.53842" lon="5.73757">
        <ele>351</ele>
        <time>2011-07-03T08:38:31.000Z</time>
      </trkpt>
      <trkpt lat="49.53848" lon="5.73764">
        <ele>355</ele>
        <time>2011-07-03T08:38:35.000Z</time>
      </trkpt>
      <trkpt lat="49.53866" lon="5.73791">
        <ele>364</ele>
        <time>2011-07-03T08:38:47.000Z</time>
      </trkpt>
      <trkpt lat="49.53872" lon="5.73796">
        <ele>362</ele>
        <time>2011-07-03T08:38:50.000Z</time>
      </trkpt>
      <trkpt lat="49.53888" lon="5.73813">
        <ele>364</ele>
        <time>2011-07-03T08:39:00.000Z</time>
      </trkpt>
      <trkpt lat="49.53901" lon="5.73824">
        <ele>364</ele>
        <time>2011-07-03T08:39:12.000Z</time>
      </trkpt>
      <trkpt lat="49.53911" lon="5.73823">
        <ele>361</ele>
        <time>2011-07-03T08:39:19.000Z</time>
      </trkpt>
      <trkpt lat="49.53916" lon="5.7382">
        <ele>364</ele>
        <time>2011-07-03T08:39:25.000Z</time>
      </trkpt>
      <trkpt lat="49.5392" lon="5.73822">
        <ele>368</ele>
        <time>2011-07-03T08:39:30.000Z</time>
      </trkpt>
      <trkpt lat="49.53926" lon="5.73821">
        <ele>370</ele>
        <time>2011-07-03T08:39:38.000Z</time>
      </trkpt>
      <trkpt lat="49.53934" lon="5.73819">
        <ele>372</ele>
        <time>2011-07-03T08:39:47.000Z</time>
      </trkpt>
      <trkpt lat="49.53957" lon="5.73821">
        <ele>363</ele>
        <time>2011-07-03T08:40:07.000Z</time>
      </trkpt>
      <trkpt lat="49.53962" lon="5.73819">
        <ele>363</ele>
        <time>2011-07-03T08:40:13.000Z</time>
      </trkpt>
      <trkpt lat="49.53974" lon="5.73808">
        <ele>365</ele>
        <time>2011-07-03T08:40:24.000Z</time>
      </trkpt>
      <trkpt lat="49.54008" lon="5.73801">
        <ele>371</ele>
        <time>2011-07-03T08:40:56.000Z</time>
      </trkpt>
      <trkpt lat="49.54019" lon="5.73797">
        <ele>375</ele>
        <time>2011-07-03T08:41:08.000Z</time>
      </trkpt>
      <trkpt lat="49.54024" lon="5.73793">
        <ele>376</ele>
        <time>2011-07-03T08:41:15.000Z</time>
      </trkpt>
      <trkpt lat="49.54029" lon="5.73788">
        <ele>379</ele>
        <time>2011-07-03T08:41:22.000Z</time>
      </trkpt>
      <trkpt lat="49.54049" lon="5.73789">
        <ele>386</ele>
        <time>2011-07-03T08:41:46.000Z</time>
      </trkpt>
      <trkpt lat="49.54059" lon="5.73784">
        <ele>378</ele>
        <time>2011-07-03T08:41:55.000Z</time>
      </trkpt>
      <trkpt lat="49.54065" lon="5.7378">
        <ele>371</ele>
        <time>2011-07-03T08:42:02.000Z</time>
      </trkpt>
      <trkpt lat="49.5407" lon="5.73775">
        <ele>367</ele>
        <time>2011-07-03T08:42:06.000Z</time>
      </trkpt>
      <trkpt lat="49.54081" lon="5.73764">
        <ele>366</ele>
        <time>2011-07-03T08:42:14.000Z</time>
      </trkpt>
      <trkpt lat="49.54088" lon="5.73758">
        <ele>368</ele>
        <time>2011-07-03T08:42:18.000Z</time>
      </trkpt>
      <trkpt lat="49.54108" lon="5.73742">
        <ele>369</ele>
        <time>2011-07-03T08:42:28.000Z</time>
      </trkpt>
      <trkpt lat="49.54148" lon="5.73704">
        <ele>380</ele>
        <time>2011-07-03T08:42:49.000Z</time>
      </trkpt>
      <trkpt lat="49.54149" lon="5.73702">
        <ele>379</ele>
        <time>2011-07-03T08:42:50.000Z</time>
      </trkpt>
      <trkpt lat="49.54151" lon="5.737">
        <ele>378</ele>
        <time>2011-07-03T08:42:51.000Z</time>
      </trkpt>
      <trkpt lat="49.54157" lon="5.73695">
        <ele>377</ele>
        <time>2011-07-03T08:42:54.000Z</time>
      </trkpt>
      <trkpt lat="49.54161" lon="5.73691">
        <ele>377</ele>
        <time>2011-07-03T08:42:56.000Z</time>
      </trkpt>
      <trkpt lat="49.54199" lon="5.73658">
        <ele>384</ele>
        <time>2011-07-03T08:43:12.000Z</time>
      </trkpt>
      <trkpt lat="49.54202" lon="5.73658">
        <ele>385</ele>
        <time>2011-07-03T08:43:13.000Z</time>
      </trkpt>
      <trkpt lat="49.54206" lon="5.73662">
        <ele>387</ele>
        <time>2011-07-03T08:43:15.000Z</time>
      </trkpt>
      <trkpt lat="49.54224" lon="5.73709">
        <ele>391</ele>
        <time>2011-07-03T08:43:27.000Z</time>
      </trkpt>
      <trkpt lat="49.54226" lon="5.73718">
        <ele>392</ele>
        <time>2011-07-03T08:43:29.000Z</time>
      </trkpt>
      <trkpt lat="49.54229" lon="5.73727">
        <ele>393</ele>
        <time>2011-07-03T08:43:31.000Z</time>
      </trkpt>
      <trkpt lat="49.54233" lon="5.7374">
        <ele>392</ele>
        <time>2011-07-03T08:43:34.000Z</time>
      </trkpt>
      <trkpt lat="49.5424" lon="5.73764">
        <ele>391</ele>
        <time>2011-07-03T08:43:39.000Z</time>
      </trkpt>
      <trkpt lat="49.54239" lon="5.73772">
        <ele>392</ele>
        <time>2011-07-03T08:43:42.000Z</time>
      </trkpt>
      <trkpt lat="49.54219" lon="5.73787">
        <ele>395</ele>
        <time>2011-07-03T08:43:52.000Z</time>
      </trkpt>
      <trkpt lat="49.54191" lon="5.73806">
        <ele>396</ele>
        <time>2011-07-03T08:43:59.000Z</time>
      </trkpt>
      <trkpt lat="49.54182" lon="5.73813">
        <ele>396</ele>
        <time>2011-07-03T08:44:01.000Z</time>
      </trkpt>
      <trkpt lat="49.54137" lon="5.73856">
        <ele>396</ele>
        <time>2011-07-03T08:44:09.000Z</time>
      </trkpt>
      <trkpt lat="49.5413" lon="5.73865">
        <ele>396</ele>
        <time>2011-07-03T08:44:10.000Z</time>
      </trkpt>
      <trkpt lat="49.54104" lon="5.73894">
        <ele>398</ele>
        <time>2011-07-03T08:44:16.000Z</time>
      </trkpt>
      <trkpt lat="49.54082" lon="5.73926">
        <ele>406</ele>
        <time>2011-07-03T08:44:28.000Z</time>
      </trkpt>
      <trkpt lat="49.54073" lon="5.73932">
        <ele>405</ele>
        <time>2011-07-03T08:44:31.000Z</time>
      </trkpt>
      <trkpt lat="49.54052" lon="5.73956">
        <ele>406</ele>
        <time>2011-07-03T08:44:39.000Z</time>
      </trkpt>
      <trkpt lat="49.54018" lon="5.73997">
        <ele>413</ele>
        <time>2011-07-03T08:44:53.000Z</time>
      </trkpt>
      <trkpt lat="49.54013" lon="5.74001">
        <ele>414</ele>
        <time>2011-07-03T08:44:54.000Z</time>
      </trkpt>
      <trkpt lat="49.54006" lon="5.74011">
        <ele>414</ele>
        <time>2011-07-03T08:44:56.000Z</time>
      </trkpt>
      <trkpt lat="49.53996" lon="5.7403">
        <ele>416</ele>
        <time>2011-07-03T08:45:00.000Z</time>
      </trkpt>
      <trkpt lat="49.53977" lon="5.74068">
        <ele>418</ele>
        <time>2011-07-03T08:45:07.000Z</time>
      </trkpt>
      <trkpt lat="49.53959" lon="5.74118">
        <ele>415</ele>
        <time>2011-07-03T08:45:16.000Z</time>
      </trkpt>
      <trkpt lat="49.53936" lon="5.74154">
        <ele>406</ele>
        <time>2011-07-03T08:45:23.000Z</time>
      </trkpt>
      <trkpt lat="49.53899" lon="5.74193">
        <ele>400</ele>
        <time>2011-07-03T08:45:33.000Z</time>
      </trkpt>
      <trkpt lat="49.53895" lon="5.74197">
        <ele>399</ele>
        <time>2011-07-03T08:45:34.000Z</time>
      </trkpt>
      <trkpt lat="49.53881" lon="5.74208">
        <ele>400</ele>
        <time>2011-07-03T08:45:38.000Z</time>
      </trkpt>
      <trkpt lat="49.53862" lon="5.74221">
        <ele>400</ele>
        <time>2011-07-03T08:45:43.000Z</time>
      </trkpt>
      <trkpt lat="49.53839" lon="5.74231">
        <ele>394</ele>
        <time>2011-07-03T08:45:49.000Z</time>
      </trkpt>
      <trkpt lat="49.53831" lon="5.74236">
        <ele>389</ele>
        <time>2011-07-03T08:45:52.000Z</time>
      </trkpt>
      <trkpt lat="49.53787" lon="5.74246">
        <ele>372</ele>
        <time>2011-07-03T08:46:07.000Z</time>
      </trkpt>
      <trkpt lat="49.53784" lon="5.74246">
        <ele>370</ele>
        <time>2011-07-03T08:46:08.000Z</time>
      </trkpt>
      <trkpt lat="49.53771" lon="5.74247">
        <ele>366</ele>
        <time>2011-07-03T08:46:12.000Z</time>
      </trkpt>
      <trkpt lat="49.53726" lon="5.74247">
        <ele>371</ele>
        <time>2011-07-03T08:46:24.000Z</time>
      </trkpt>
      <trkpt lat="49.53721" lon="5.74249">
        <ele>374</ele>
        <time>2011-07-03T08:46:26.000Z</time>
      </trkpt>
      <trkpt lat="49.53721" lon="5.74261">
        <ele>377</ele>
        <time>2011-07-03T08:46:28.000Z</time>
      </trkpt>
      <trkpt lat="49.53724" lon="5.74321">
        <ele>387</ele>
        <time>2011-07-03T08:46:37.000Z</time>
      </trkpt>
      <trkpt lat="49.53727" lon="5.74345">
        <ele>391</ele>
        <time>2011-07-03T08:46:40.000Z</time>
      </trkpt>
      <trkpt lat="49.53728" lon="5.74409">
        <ele>402</ele>
        <time>2011-07-03T08:46:47.000Z</time>
      </trkpt>
      <trkpt lat="49.53726" lon="5.74418">
        <ele>402</ele>
        <time>2011-07-03T08:46:48.000Z</time>
      </trkpt>
      <trkpt lat="49.53714" lon="5.74564">
        <ele>405</ele>
        <time>2011-07-03T08:47:03.000Z</time>
      </trkpt>
      <trkpt lat="49.53717" lon="5.74584">
        <ele>400</ele>
        <time>2011-07-03T08:47:06.000Z</time>
      </trkpt>
      <trkpt lat="49.53719" lon="5.74619">
        <ele>393</ele>
        <time>2011-07-03T08:47:12.000Z</time>
      </trkpt>
      <trkpt lat="49.53716" lon="5.74684">
        <ele>391</ele>
        <time>2011-07-03T08:47:21.000Z</time>
      </trkpt>
      <trkpt lat="49.53716" lon="5.74691">
        <ele>392</ele>
        <time>2011-07-03T08:47:22.000Z</time>
      </trkpt>
      <trkpt lat="49.53728" lon="5.74747">
        <ele>399</ele>
        <time>2011-07-03T08:47:30.000Z</time>
      </trkpt>
      <trkpt lat="49.53742" lon="5.74794">
        <ele>403</ele>
        <time>2011-07-03T08:47:37.000Z</time>
      </trkpt>
      <trkpt lat="49.53762" lon="5.7484">
        <ele>401</ele>
        <time>2011-07-03T08:47:45.000Z</time>
      </trkpt>
      <trkpt lat="49.53796" lon="5.74894">
        <ele>398</ele>
        <time>2011-07-03T08:47:55.000Z</time>
      </trkpt>
      <trkpt lat="49.53799" lon="5.74898">
        <ele>397</ele>
        <time>2011-07-03T08:47:56.000Z</time>
      </trkpt>
      <trkpt lat="49.53804" lon="5.74908">
        <ele>396</ele>
        <time>2011-07-03T08:47:58.000Z</time>
      </trkpt>
      <trkpt lat="49.53815" lon="5.7494">
        <ele>394</ele>
        <time>2011-07-03T08:48:04.000Z</time>
      </trkpt>
      <trkpt lat="49.53839" lon="5.74997">
        <ele>392</ele>
        <time>2011-07-03T08:48:15.000Z</time>
      </trkpt>
      <trkpt lat="49.53842" lon="5.75">
        <ele>393</ele>
        <time>2011-07-03T08:48:16.000Z</time>
      </trkpt>
      <trkpt lat="49.53883" lon="5.75044">
        <ele>393</ele>
        <time>2011-07-03T08:48:27.000Z</time>
      </trkpt>
      <trkpt lat="49.53886" lon="5.75048">
        <ele>392</ele>
        <time>2011-07-03T08:48:28.000Z</time>
      </trkpt>
      <trkpt lat="49.53916" lon="5.75071">
        <ele>386</ele>
        <time>2011-07-03T08:48:36.000Z</time>
      </trkpt>
      <trkpt lat="49.53928" lon="5.75077">
        <ele>386</ele>
        <time>2011-07-03T08:48:39.000Z</time>
      </trkpt>
      <trkpt lat="49.53949" lon="5.75104">
        <ele>387</ele>
        <time>2011-07-03T08:48:45.000Z</time>
      </trkpt>
      <trkpt lat="49.53977" lon="5.75131">
        <ele>388</ele>
        <time>2011-07-03T08:48:51.000Z</time>
      </trkpt>
      <trkpt lat="49.54002" lon="5.75137">
        <ele>386</ele>
        <time>2011-07-03T08:48:55.000Z</time>
      </trkpt>
      <trkpt lat="49.54036" lon="5.75132">
        <ele>381</ele>
        <time>2011-07-03T08:49:00.000Z</time>
      </trkpt>
      <trkpt lat="49.54063" lon="5.7513">
        <ele>385</ele>
        <time>2011-07-03T08:49:09.000Z</time>
      </trkpt>
      <trkpt lat="49.54066" lon="5.75144">
        <ele>391</ele>
        <time>2011-07-03T08:49:16.000Z</time>
      </trkpt>
      <trkpt lat="49.54075" lon="5.75163">
        <ele>395</ele>
        <time>2011-07-03T08:49:20.000Z</time>
      </trkpt>
      <trkpt lat="49.54099" lon="5.75182">
        <ele>404</ele>
        <time>2011-07-03T08:49:28.000Z</time>
      </trkpt>
      <trkpt lat="49.54126" lon="5.75207">
        <ele>415</ele>
        <time>2011-07-03T08:49:42.000Z</time>
      </trkpt>
      <trkpt lat="49.54139" lon="5.75215">
        <ele>410</ele>
        <time>2011-07-03T08:49:48.000Z</time>
      </trkpt>
      <trkpt lat="49.54152" lon="5.75217">
        <ele>403</ele>
        <time>2011-07-03T08:49:54.000Z</time>
      </trkpt>
      <trkpt lat="49.54153" lon="5.75206">
        <ele>396</ele>
        <time>2011-07-03T08:49:57.000Z</time>
      </trkpt>
      <trkpt lat="49.54155" lon="5.75191">
        <ele>388</ele>
        <time>2011-07-03T08:50:00.000Z</time>
      </trkpt>
      <trkpt lat="49.54153" lon="5.75177">
        <ele>384</ele>
        <time>2011-07-03T08:50:02.000Z</time>
      </trkpt>
      <trkpt lat="49.54141" lon="5.75117">
        <ele>370</ele>
        <time>2011-07-03T08:50:08.000Z</time>
      </trkpt>
      <trkpt lat="49.54144" lon="5.751">
        <ele>366</ele>
        <time>2011-07-03T08:50:11.000Z</time>
      </trkpt>
      <trkpt lat="49.54155" lon="5.75068">
        <ele>359</ele>
        <time>2011-07-03T08:50:18.000Z</time>
      </trkpt>
      <trkpt lat="49.54164" lon="5.75044">
        <ele>355</ele>
        <time>2011-07-03T08:50:23.000Z</time>
      </trkpt>
      <trkpt lat="49.54176" lon="5.75027">
        <ele>355</ele>
        <time>2011-07-03T08:50:28.000Z</time>
      </trkpt>
      <trkpt lat="49.54184" lon="5.7502">
        <ele>357</ele>
        <time>2011-07-03T08:50:31.000Z</time>
      </trkpt>
      <trkpt lat="49.54193" lon="5.7501">
        <ele>359</ele>
        <time>2011-07-03T08:50:35.000Z</time>
      </trkpt>
      <trkpt lat="49.54207" lon="5.74997">
        <ele>363</ele>
        <time>2011-07-03T08:50:41.000Z</time>
      </trkpt>
      <trkpt lat="49.54222" lon="5.74974">
        <ele>365</ele>
        <time>2011-07-03T08:50:48.000Z</time>
      </trkpt>
      <trkpt lat="49.54236" lon="5.74955">
        <ele>371</ele>
        <time>2011-07-03T08:50:56.000Z</time>
      </trkpt>
      <trkpt lat="49.54244" lon="5.7495">
        <ele>372</ele>
        <time>2011-07-03T08:50:59.000Z</time>
      </trkpt>
      <trkpt lat="49.54278" lon="5.74939">
        <ele>376</ele>
        <time>2011-07-03T08:51:08.000Z</time>
      </trkpt>
      <trkpt lat="49.54323" lon="5.74915">
        <ele>377</ele>
        <time>2011-07-03T08:51:22.000Z</time>
      </trkpt>
      <trkpt lat="49.54326" lon="5.74913">
        <ele>378</ele>
        <time>2011-07-03T08:51:23.000Z</time>
      </trkpt>
      <trkpt lat="49.54367" lon="5.74883">
        <ele>380</ele>
        <time>2011-07-03T08:51:36.000Z</time>
      </trkpt>
      <trkpt lat="49.5437" lon="5.74881">
        <ele>380</ele>
        <time>2011-07-03T08:51:37.000Z</time>
      </trkpt>
      <trkpt lat="49.54402" lon="5.7486">
        <ele>374</ele>
        <time>2011-07-03T08:51:49.000Z</time>
      </trkpt>
      <trkpt lat="49.54439" lon="5.7485">
        <ele>385</ele>
        <time>2011-07-03T08:52:03.000Z</time>
      </trkpt>
      <trkpt lat="49.54444" lon="5.74847">
        <ele>386</ele>
        <time>2011-07-03T08:52:05.000Z</time>
      </trkpt>
      <trkpt lat="49.54449" lon="5.74841">
        <ele>387</ele>
        <time>2011-07-03T08:52:07.000Z</time>
      </trkpt>
      <trkpt lat="49.54453" lon="5.74825">
        <ele>386</ele>
        <time>2011-07-03T08:52:11.000Z</time>
      </trkpt>
      <trkpt lat="49.54452" lon="5.74779">
        <ele>385</ele>
        <time>2011-07-03T08:52:25.000Z</time>
      </trkpt>
      <trkpt lat="49.54451" lon="5.74768">
        <ele>386</ele>
        <time>2011-07-03T08:52:28.000Z</time>
      </trkpt>
      <trkpt lat="49.54456" lon="5.74753">
        <ele>386</ele>
        <time>2011-07-03T08:52:32.000Z</time>
      </trkpt>
      <trkpt lat="49.54462" lon="5.74733">
        <ele>388</ele>
        <time>2011-07-03T08:52:37.000Z</time>
      </trkpt>
      <trkpt lat="49.54463" lon="5.74726">
        <ele>389</ele>
        <time>2011-07-03T08:52:39.000Z</time>
      </trkpt>
      <trkpt lat="49.54467" lon="5.74716">
        <ele>389</ele>
        <time>2011-07-03T08:52:42.000Z</time>
      </trkpt>
      <trkpt lat="49.5447" lon="5.74708">
        <ele>390</ele>
        <time>2011-07-03T08:52:44.000Z</time>
      </trkpt>
      <trkpt lat="49.54482" lon="5.74682">
        <ele>389</ele>
        <time>2011-07-03T08:52:51.000Z</time>
      </trkpt>
      <trkpt lat="49.5449" lon="5.74674">
        <ele>388</ele>
        <time>2011-07-03T08:52:54.000Z</time>
      </trkpt>
      <trkpt lat="49.5453" lon="5.74637">
        <ele>385</ele>
        <time>2011-07-03T08:53:08.000Z</time>
      </trkpt>
      <trkpt lat="49.54533" lon="5.74635">
        <ele>386</ele>
        <time>2011-07-03T08:53:09.000Z</time>
      </trkpt>
      <trkpt lat="49.54542" lon="5.74629">
        <ele>388</ele>
        <time>2011-07-03T08:53:12.000Z</time>
      </trkpt>
      <trkpt lat="49.54583" lon="5.74595">
        <ele>388</ele>
        <time>2011-07-03T08:53:23.000Z</time>
      </trkpt>
      <trkpt lat="49.54587" lon="5.74592">
        <ele>387</ele>
        <time>2011-07-03T08:53:24.000Z</time>
      </trkpt>
      <trkpt lat="49.54602" lon="5.74582">
        <ele>386</ele>
        <time>2011-07-03T08:53:28.000Z</time>
      </trkpt>
      <trkpt lat="49.54613" lon="5.74573">
        <ele>385</ele>
        <time>2011-07-03T08:53:31.000Z</time>
      </trkpt>
      <trkpt lat="49.54655" lon="5.74537">
        <ele>378</ele>
        <time>2011-07-03T08:53:41.000Z</time>
      </trkpt>
      <trkpt lat="49.5466" lon="5.74533">
        <ele>378</ele>
        <time>2011-07-03T08:53:42.000Z</time>
      </trkpt>
      <trkpt lat="49.54678" lon="5.74521">
        <ele>377</ele>
        <time>2011-07-03T08:53:46.000Z</time>
      </trkpt>
      <trkpt lat="49.54713" lon="5.745">
        <ele>381</ele>
        <time>2011-07-03T08:53:54.000Z</time>
      </trkpt>
      <trkpt lat="49.54726" lon="5.74495">
        <ele>387</ele>
        <time>2011-07-03T08:53:57.000Z</time>
      </trkpt>
      <trkpt lat="49.54751" lon="5.74485">
        <ele>399</ele>
        <time>2011-07-03T08:54:02.000Z</time>
      </trkpt>
      <trkpt lat="49.5476" lon="5.74466">
        <ele>404</ele>
        <time>2011-07-03T08:54:05.000Z</time>
      </trkpt>
      <trkpt lat="49.54757" lon="5.7445">
        <ele>406</ele>
        <time>2011-07-03T08:54:08.000Z</time>
      </trkpt>
      <trkpt lat="49.5475" lon="5.74434">
        <ele>408</ele>
        <time>2011-07-03T08:54:11.000Z</time>
      </trkpt>
      <trkpt lat="49.54737" lon="5.74411">
        <ele>413</ele>
        <time>2011-07-03T08:54:15.000Z</time>
      </trkpt>
      <trkpt lat="49.54715" lon="5.74367">
        <ele>419</ele>
        <time>2011-07-03T08:54:23.000Z</time>
      </trkpt>
      <trkpt lat="49.54699" lon="5.74347">
        <ele>417</ele>
        <time>2011-07-03T08:54:27.000Z</time>
      </trkpt>
      <trkpt lat="49.54692" lon="5.74334">
        <ele>417</ele>
        <time>2011-07-03T08:54:29.000Z</time>
      </trkpt>
      <trkpt lat="49.54686" lon="5.74315">
        <ele>417</ele>
        <time>2011-07-03T08:54:32.000Z</time>
      </trkpt>
      <trkpt lat="49.54685" lon="5.74292">
        <ele>415</ele>
        <time>2011-07-03T08:54:35.000Z</time>
      </trkpt>
      <trkpt lat="49.54692" lon="5.74222">
        <ele>403</ele>
        <time>2011-07-03T08:54:43.000Z</time>
      </trkpt>
      <trkpt lat="49.54694" lon="5.74214">
        <ele>401</ele>
        <time>2011-07-03T08:54:44.000Z</time>
      </trkpt>
      <trkpt lat="49.54714" lon="5.74151">
        <ele>385</ele>
        <time>2011-07-03T08:54:52.000Z</time>
      </trkpt>
      <trkpt lat="49.54717" lon="5.74144">
        <ele>383</ele>
        <time>2011-07-03T08:54:53.000Z</time>
      </trkpt>
      <trkpt lat="49.54727" lon="5.74113">
        <ele>376</ele>
        <time>2011-07-03T08:54:57.000Z</time>
      </trkpt>
      <trkpt lat="49.54727" lon="5.7406">
        <ele>369</ele>
        <time>2011-07-03T08:55:03.000Z</time>
      </trkpt>
      <trkpt lat="49.5472" lon="5.7402">
        <ele>369</ele>
        <time>2011-07-03T08:55:07.000Z</time>
      </trkpt>
      <trkpt lat="49.5471" lon="5.73987">
        <ele>375</ele>
        <time>2011-07-03T08:55:11.000Z</time>
      </trkpt>
      <trkpt lat="49.54704" lon="5.7397">
        <ele>379</ele>
        <time>2011-07-03T08:55:14.000Z</time>
      </trkpt>
      <trkpt lat="49.54696" lon="5.73934">
        <ele>388</ele>
        <time>2011-07-03T08:55:20.000Z</time>
      </trkpt>
      <trkpt lat="49.54695" lon="5.73873">
        <ele>385</ele>
        <time>2011-07-03T08:55:28.000Z</time>
      </trkpt>
      <trkpt lat="49.54723" lon="5.73858">
        <ele>381</ele>
        <time>2011-07-03T08:55:34.000Z</time>
      </trkpt>
      <trkpt lat="49.54769" lon="5.73867">
        <ele>380</ele>
        <time>2011-07-03T08:55:42.000Z</time>
      </trkpt>
      <trkpt lat="49.54775" lon="5.73866">
        <ele>380</ele>
        <time>2011-07-03T08:55:43.000Z</time>
      </trkpt>
      <trkpt lat="49.5478" lon="5.73864">
        <ele>380</ele>
        <time>2011-07-03T08:55:44.000Z</time>
      </trkpt>
      <trkpt lat="49.54791" lon="5.73851">
        <ele>377</ele>
        <time>2011-07-03T08:55:47.000Z</time>
      </trkpt>
      <trkpt lat="49.54821" lon="5.73798">
        <ele>366</ele>
        <time>2011-07-03T08:55:55.000Z</time>
      </trkpt>
      <trkpt lat="49.54825" lon="5.73792">
        <ele>365</ele>
        <time>2011-07-03T08:55:56.000Z</time>
      </trkpt>
      <trkpt lat="49.54857" lon="5.73742">
        <ele>354</ele>
        <time>2011-07-03T08:56:04.000Z</time>
      </trkpt>
      <trkpt lat="49.54861" lon="5.73734">
        <ele>352</ele>
        <time>2011-07-03T08:56:05.000Z</time>
      </trkpt>
      <trkpt lat="49.54874" lon="5.73713">
        <ele>349</ele>
        <time>2011-07-03T08:56:09.000Z</time>
      </trkpt>
      <trkpt lat="49.54907" lon="5.73671">
        <ele>339</ele>
        <time>2011-07-03T08:56:18.000Z</time>
      </trkpt>
      <trkpt lat="49.5491" lon="5.73666">
        <ele>338</ele>
        <time>2011-07-03T08:56:19.000Z</time>
      </trkpt>
      <trkpt lat="49.54919" lon="5.73654">
        <ele>336</ele>
        <time>2011-07-03T08:56:23.000Z</time>
      </trkpt>
      <trkpt lat="49.54932" lon="5.73636">
        <ele>332</ele>
        <time>2011-07-03T08:56:28.000Z</time>
      </trkpt>
      <trkpt lat="49.54936" lon="5.73629">
        <ele>331</ele>
        <time>2011-07-03T08:56:31.000Z</time>
      </trkpt>
      <trkpt lat="49.54936" lon="5.73601">
        <ele>327</ele>
        <time>2011-07-03T08:56:41.000Z</time>
      </trkpt>
      <trkpt lat="49.54931" lon="5.73584">
        <ele>325</ele>
        <time>2011-07-03T08:56:46.000Z</time>
      </trkpt>
      <trkpt lat="49.54926" lon="5.73562">
        <ele>323</ele>
        <time>2011-07-03T08:56:52.000Z</time>
      </trkpt>
      <trkpt lat="49.54924" lon="5.73554">
        <ele>323</ele>
        <time>2011-07-03T08:56:54.000Z</time>
      </trkpt>
      <trkpt lat="49.54922" lon="5.73545">
        <ele>323</ele>
        <time>2011-07-03T08:56:56.000Z</time>
      </trkpt>
      <trkpt lat="49.54917" lon="5.73528">
        <ele>327</ele>
        <time>2011-07-03T08:57:00.000Z</time>
      </trkpt>
      <trkpt lat="49.5491" lon="5.73505">
        <ele>334</ele>
        <time>2011-07-03T08:57:06.000Z</time>
      </trkpt>
      <trkpt lat="49.54905" lon="5.73478">
        <ele>340</ele>
        <time>2011-07-03T08:57:12.000Z</time>
      </trkpt>
      <trkpt lat="49.54886" lon="5.73408">
        <ele>338</ele>
        <time>2011-07-03T08:57:24.000Z</time>
      </trkpt>
      <trkpt lat="49.54884" lon="5.73402">
        <ele>339</ele>
        <time>2011-07-03T08:57:25.000Z</time>
      </trkpt>
      <trkpt lat="49.54871" lon="5.73357">
        <ele>346</ele>
        <time>2011-07-03T08:57:33.000Z</time>
      </trkpt>
      <trkpt lat="49.54843" lon="5.73299">
        <ele>361</ele>
        <time>2011-07-03T08:57:58.000Z</time>
      </trkpt>
      <trkpt lat="49.54843" lon="5.73296">
        <ele>361</ele>
        <time>2011-07-03T08:57:59.000Z</time>
      </trkpt>
      <trkpt lat="49.54837" lon="5.73265">
        <ele>357</ele>
        <time>2011-07-03T08:58:11.000Z</time>
      </trkpt>
      <trkpt lat="49.54835" lon="5.7325">
        <ele>355</ele>
        <time>2011-07-03T08:58:17.000Z</time>
      </trkpt>
      <trkpt lat="49.54837" lon="5.73241">
        <ele>353</ele>
        <time>2011-07-03T08:58:20.000Z</time>
      </trkpt>
      <trkpt lat="49.5484" lon="5.7321">
        <ele>351</ele>
        <time>2011-07-03T08:58:27.000Z</time>
      </trkpt>
      <trkpt lat="49.5484" lon="5.73196">
        <ele>350</ele>
        <time>2011-07-03T08:58:30.000Z</time>
      </trkpt>
      <trkpt lat="49.54845" lon="5.73174">
        <ele>347</ele>
        <time>2011-07-03T08:58:34.000Z</time>
      </trkpt>
      <trkpt lat="49.54847" lon="5.73165">
        <ele>345</ele>
        <time>2011-07-03T08:58:36.000Z</time>
      </trkpt>
      <trkpt lat="49.54853" lon="5.73131">
        <ele>341</ele>
        <time>2011-07-03T08:58:42.000Z</time>
      </trkpt>
      <trkpt lat="49.54859" lon="5.73074">
        <ele>341</ele>
        <time>2011-07-03T08:58:52.000Z</time>
      </trkpt>
      <trkpt lat="49.54863" lon="5.73033">
        <ele>345</ele>
        <time>2011-07-03T08:58:59.000Z</time>
      </trkpt>
      <trkpt lat="49.54869" lon="5.72975">
        <ele>347</ele>
        <time>2011-07-03T08:59:08.000Z</time>
      </trkpt>
      <trkpt lat="49.54873" lon="5.72962">
        <ele>347</ele>
        <time>2011-07-03T08:59:10.000Z</time>
      </trkpt>
      <trkpt lat="49.54895" lon="5.72897">
        <ele>345</ele>
        <time>2011-07-03T08:59:20.000Z</time>
      </trkpt>
      <trkpt lat="49.54897" lon="5.72891">
        <ele>345</ele>
        <time>2011-07-03T08:59:21.000Z</time>
      </trkpt>
      <trkpt lat="49.5491" lon="5.72835">
        <ele>347</ele>
        <time>2011-07-03T08:59:30.000Z</time>
      </trkpt>
      <trkpt lat="49.54921" lon="5.72794">
        <ele>346</ele>
        <time>2011-07-03T08:59:36.000Z</time>
      </trkpt>
      <trkpt lat="49.54932" lon="5.72739">
        <ele>348</ele>
        <time>2011-07-03T08:59:44.000Z</time>
      </trkpt>
      <trkpt lat="49.54941" lon="5.72705">
        <ele>347</ele>
        <time>2011-07-03T08:59:49.000Z</time>
      </trkpt>
      <trkpt lat="49.5495" lon="5.72672">
        <ele>345</ele>
        <time>2011-07-03T08:59:53.000Z</time>
      </trkpt>
      <trkpt lat="49.54969" lon="5.726">
        <ele>344</ele>
        <time>2011-07-03T09:00:03.000Z</time>
      </trkpt>
      <trkpt lat="49.54971" lon="5.72594">
        <ele>344</ele>
        <time>2011-07-03T09:00:04.000Z</time>
      </trkpt>
      <trkpt lat="49.54976" lon="5.72582">
        <ele>345</ele>
        <time>2011-07-03T09:00:06.000Z</time>
      </trkpt>
      <trkpt lat="49.54988" lon="5.72551">
        <ele>348</ele>
        <time>2011-07-03T09:00:11.000Z</time>
      </trkpt>
      <trkpt lat="49.55003" lon="5.72516">
        <ele>352</ele>
        <time>2011-07-03T09:00:16.000Z</time>
      </trkpt>
      <trkpt lat="49.55006" lon="5.72488">
        <ele>353</ele>
        <time>2011-07-03T09:00:19.000Z</time>
      </trkpt>
      <trkpt lat="49.55005" lon="5.72473">
        <ele>354</ele>
        <time>2011-07-03T09:00:21.000Z</time>
      </trkpt>
      <trkpt lat="49.54998" lon="5.72436">
        <ele>355</ele>
        <time>2011-07-03T09:00:26.000Z</time>
      </trkpt>
      <trkpt lat="49.54976" lon="5.72368">
        <ele>359</ele>
        <time>2011-07-03T09:00:37.000Z</time>
      </trkpt>
      <trkpt lat="49.54974" lon="5.72363">
        <ele>359</ele>
        <time>2011-07-03T09:00:38.000Z</time>
      </trkpt>
      <trkpt lat="49.54969" lon="5.72353">
        <ele>359</ele>
        <time>2011-07-03T09:00:40.000Z</time>
      </trkpt>
      <trkpt lat="49.54942" lon="5.72296">
        <ele>363</ele>
        <time>2011-07-03T09:00:50.000Z</time>
      </trkpt>
      <trkpt lat="49.54939" lon="5.72289">
        <ele>364</ele>
        <time>2011-07-03T09:00:51.000Z</time>
      </trkpt>
      <trkpt lat="49.54921" lon="5.72238">
        <ele>368</ele>
        <time>2011-07-03T09:00:58.000Z</time>
      </trkpt>
      <trkpt lat="49.54904" lon="5.72168">
        <ele>368</ele>
        <time>2011-07-03T09:01:07.000Z</time>
      </trkpt>
      <trkpt lat="49.54903" lon="5.7216">
        <ele>368</ele>
        <time>2011-07-03T09:01:08.000Z</time>
      </trkpt>
      <trkpt lat="49.54892" lon="5.72085">
        <ele>359</ele>
        <time>2011-07-03T09:01:17.000Z</time>
      </trkpt>
      <trkpt lat="49.54891" lon="5.72078">
        <ele>358</ele>
        <time>2011-07-03T09:01:18.000Z</time>
      </trkpt>
      <trkpt lat="49.5489" lon="5.7207">
        <ele>357</ele>
        <time>2011-07-03T09:01:19.000Z</time>
      </trkpt>
      <trkpt lat="49.54881" lon="5.71995">
        <ele>360</ele>
        <time>2011-07-03T09:01:30.000Z</time>
      </trkpt>
      <trkpt lat="49.54881" lon="5.71987">
        <ele>359</ele>
        <time>2011-07-03T09:01:31.000Z</time>
      </trkpt>
      <trkpt lat="49.54891" lon="5.71914">
        <ele>347</ele>
        <time>2011-07-03T09:01:40.000Z</time>
      </trkpt>
      <trkpt lat="49.54892" lon="5.71906">
        <ele>345</ele>
        <time>2011-07-03T09:01:41.000Z</time>
      </trkpt>
      <trkpt lat="49.54894" lon="5.71863">
        <ele>340</ele>
        <time>2011-07-03T09:01:46.000Z</time>
      </trkpt>
      <trkpt lat="49.54893" lon="5.7184">
        <ele>339</ele>
        <time>2011-07-03T09:01:49.000Z</time>
      </trkpt>
      <trkpt lat="49.54894" lon="5.71793">
        <ele>336</ele>
        <time>2011-07-03T09:01:56.000Z</time>
      </trkpt>
      <trkpt lat="49.54895" lon="5.71774">
        <ele>336</ele>
        <time>2011-07-03T09:01:59.000Z</time>
      </trkpt>
      <trkpt lat="49.54899" lon="5.7174">
        <ele>335</ele>
        <time>2011-07-03T09:02:03.000Z</time>
      </trkpt>
      <trkpt lat="49.54904" lon="5.71686">
        <ele>333</ele>
        <time>2011-07-03T09:02:08.000Z</time>
      </trkpt>
      <trkpt lat="49.54918" lon="5.71615">
        <ele>329</ele>
        <time>2011-07-03T09:02:14.000Z</time>
      </trkpt>
      <trkpt lat="49.54919" lon="5.71604">
        <ele>329</ele>
        <time>2011-07-03T09:02:15.000Z</time>
      </trkpt>
      <trkpt lat="49.54925" lon="5.71544">
        <ele>326</ele>
        <time>2011-07-03T09:02:22.000Z</time>
      </trkpt>
      <trkpt lat="49.54925" lon="5.71488">
        <ele>324</ele>
        <time>2011-07-03T09:02:29.000Z</time>
      </trkpt>
      <trkpt lat="49.54933" lon="5.71415">
        <ele>326</ele>
        <time>2011-07-03T09:02:38.000Z</time>
      </trkpt>
      <trkpt lat="49.54933" lon="5.71408">
        <ele>326</ele>
        <time>2011-07-03T09:02:39.000Z</time>
      </trkpt>
      <trkpt lat="49.54929" lon="5.71379">
        <ele>326</ele>
        <time>2011-07-03T09:02:43.000Z</time>
      </trkpt>
      <trkpt lat="49.5493" lon="5.71365">
        <ele>326</ele>
        <time>2011-07-03T09:02:45.000Z</time>
      </trkpt>
      <trkpt lat="49.54933" lon="5.71328">
        <ele>327</ele>
        <time>2011-07-03T09:02:50.000Z</time>
      </trkpt>
      <trkpt lat="49.54958" lon="5.71265">
        <ele>323</ele>
        <time>2011-07-03T09:02:58.000Z</time>
      </trkpt>
      <trkpt lat="49.54961" lon="5.71256">
        <ele>323</ele>
        <time>2011-07-03T09:02:59.000Z</time>
      </trkpt>
      <trkpt lat="49.54977" lon="5.7123">
        <ele>322</ele>
        <time>2011-07-03T09:03:03.000Z</time>
      </trkpt>
      <trkpt lat="49.54984" lon="5.71215">
        <ele>322</ele>
        <time>2011-07-03T09:03:06.000Z</time>
      </trkpt>
      <trkpt lat="49.54983" lon="5.71195">
        <ele>317</ele>
        <time>2011-07-03T09:03:11.000Z</time>
      </trkpt>
      <trkpt lat="49.54974" lon="5.71185">
        <ele>314</ele>
        <time>2011-07-03T09:03:17.000Z</time>
      </trkpt>
      <trkpt lat="49.54967" lon="5.71182">
        <ele>313</ele>
        <time>2011-07-03T09:03:21.000Z</time>
      </trkpt>
      <trkpt lat="49.54954" lon="5.71177">
        <ele>317</ele>
        <time>2011-07-03T09:03:29.000Z</time>
      </trkpt>
      <trkpt lat="49.54942" lon="5.71174">
        <ele>322</ele>
        <time>2011-07-03T09:03:37.000Z</time>
      </trkpt>
      <trkpt lat="49.54928" lon="5.71169">
        <ele>332</ele>
        <time>2011-07-03T09:03:48.000Z</time>
      </trkpt>
      <trkpt lat="49.54919" lon="5.71171">
        <ele>343</ele>
        <time>2011-07-03T09:03:56.000Z</time>
      </trkpt>
      <trkpt lat="49.54888" lon="5.71182">
        <ele>364</ele>
        <time>2011-07-03T09:04:26.000Z</time>
      </trkpt>
      <trkpt lat="49.54885" lon="5.71189">
        <ele>372</ele>
        <time>2011-07-03T09:04:37.000Z</time>
      </trkpt>
      <trkpt lat="49.54884" lon="5.712">
        <ele>372</ele>
        <time>2011-07-03T09:04:50.000Z</time>
      </trkpt>
      <trkpt lat="49.54879" lon="5.71204">
        <ele>353</ele>
        <time>2011-07-03T09:05:05.000Z</time>
      </trkpt>
      <trkpt lat="49.54879" lon="5.71213">
        <ele>350</ele>
        <time>2011-07-03T09:05:13.000Z</time>
      </trkpt>
      <trkpt lat="49.54882" lon="5.7123">
        <ele>347</ele>
        <time>2011-07-03T09:05:22.000Z</time>
      </trkpt>
      <trkpt lat="49.54888" lon="5.71286">
        <ele>362</ele>
        <time>2011-07-03T09:05:41.000Z</time>
      </trkpt>
      <trkpt lat="49.54887" lon="5.7132">
        <ele>366</ele>
        <time>2011-07-03T09:05:53.000Z</time>
      </trkpt>
      <trkpt lat="49.54885" lon="5.71334">
        <ele>358</ele>
        <time>2011-07-03T09:05:59.000Z</time>
      </trkpt>
      <trkpt lat="49.54881" lon="5.71347">
        <ele>354</ele>
        <time>2011-07-03T09:06:05.000Z</time>
      </trkpt>
      <trkpt lat="49.54877" lon="5.71361">
        <ele>353</ele>
        <time>2011-07-03T09:06:12.000Z</time>
      </trkpt>
      <trkpt lat="49.54875" lon="5.71371">
        <ele>354</ele>
        <time>2011-07-03T09:06:16.000Z</time>
      </trkpt>
      <trkpt lat="49.54871" lon="5.71398">
        <ele>361</ele>
        <time>2011-07-03T09:06:25.000Z</time>
      </trkpt>
      <trkpt lat="49.5487" lon="5.71409">
        <ele>365</ele>
        <time>2011-07-03T09:06:29.000Z</time>
      </trkpt>
      <trkpt lat="49.54869" lon="5.71423">
        <ele>370</ele>
        <time>2011-07-03T09:06:35.000Z</time>
      </trkpt>
      <trkpt lat="49.54866" lon="5.7147">
        <ele>377</ele>
        <time>2011-07-03T09:06:50.000Z</time>
      </trkpt>
      <trkpt lat="49.54863" lon="5.7148">
        <ele>372</ele>
        <time>2011-07-03T09:06:55.000Z</time>
      </trkpt>
      <trkpt lat="49.54858" lon="5.71493">
        <ele>371</ele>
        <time>2011-07-03T09:06:59.000Z</time>
      </trkpt>
      <trkpt lat="49.54853" lon="5.71528">
        <ele>370</ele>
        <time>2011-07-03T09:07:09.000Z</time>
      </trkpt>
      <trkpt lat="49.54849" lon="5.7155">
        <ele>371</ele>
        <time>2011-07-03T09:07:16.000Z</time>
      </trkpt>
      <trkpt lat="49.54834" lon="5.71589">
        <ele>371</ele>
        <time>2011-07-03T09:07:29.000Z</time>
      </trkpt>
      <trkpt lat="49.5483" lon="5.71603">
        <ele>375</ele>
        <time>2011-07-03T09:07:35.000Z</time>
      </trkpt>
      <trkpt lat="49.54824" lon="5.71613">
        <ele>377</ele>
        <time>2011-07-03T09:07:39.000Z</time>
      </trkpt>
      <trkpt lat="49.5482" lon="5.71621">
        <ele>380</ele>
        <time>2011-07-03T09:07:42.000Z</time>
      </trkpt>
      <trkpt lat="49.54807" lon="5.71642">
        <ele>384</ele>
        <time>2011-07-03T09:07:52.000Z</time>
      </trkpt>
      <trkpt lat="49.54801" lon="5.71662">
        <ele>384</ele>
        <time>2011-07-03T09:07:58.000Z</time>
      </trkpt>
      <trkpt lat="49.548" lon="5.71677">
        <ele>384</ele>
        <time>2011-07-03T09:08:01.000Z</time>
      </trkpt>
      <trkpt lat="49.54792" lon="5.71751">
        <ele>384</ele>
        <time>2011-07-03T09:08:14.000Z</time>
      </trkpt>
      <trkpt lat="49.54792" lon="5.71756">
        <ele>384</ele>
        <time>2011-07-03T09:08:15.000Z</time>
      </trkpt>
      <trkpt lat="49.54788" lon="5.71773">
        <ele>384</ele>
        <time>2011-07-03T09:08:18.000Z</time>
      </trkpt>
      <trkpt lat="49.54782" lon="5.71809">
        <ele>387</ele>
        <time>2011-07-03T09:08:24.000Z</time>
      </trkpt>
      <trkpt lat="49.54779" lon="5.71864">
        <ele>399</ele>
        <time>2011-07-03T09:08:32.000Z</time>
      </trkpt>
      <trkpt lat="49.54779" lon="5.71938">
        <ele>406</ele>
        <time>2011-07-03T09:08:42.000Z</time>
      </trkpt>
      <trkpt lat="49.54779" lon="5.71946">
        <ele>406</ele>
        <time>2011-07-03T09:08:43.000Z</time>
      </trkpt>
      <trkpt lat="49.54784" lon="5.72021">
        <ele>414</ele>
        <time>2011-07-03T09:08:51.000Z</time>
      </trkpt>
      <trkpt lat="49.54785" lon="5.72029">
        <ele>416</ele>
        <time>2011-07-03T09:08:52.000Z</time>
      </trkpt>
      <trkpt lat="49.54789" lon="5.72045">
        <ele>417</ele>
        <time>2011-07-03T09:08:54.000Z</time>
      </trkpt>
      <trkpt lat="49.54804" lon="5.72115">
        <ele>409</ele>
        <time>2011-07-03T09:09:05.000Z</time>
      </trkpt>
      <trkpt lat="49.54805" lon="5.72122">
        <ele>408</ele>
        <time>2011-07-03T09:09:06.000Z</time>
      </trkpt>
      <trkpt lat="49.54814" lon="5.7215">
        <ele>403</ele>
        <time>2011-07-03T09:09:10.000Z</time>
      </trkpt>
      <trkpt lat="49.54833" lon="5.72214">
        <ele>397</ele>
        <time>2011-07-03T09:09:18.000Z</time>
      </trkpt>
      <trkpt lat="49.54836" lon="5.72222">
        <ele>396</ele>
        <time>2011-07-03T09:09:19.000Z</time>
      </trkpt>
      <trkpt lat="49.54854" lon="5.7229">
        <ele>389</ele>
        <time>2011-07-03T09:09:29.000Z</time>
      </trkpt>
      <trkpt lat="49.54856" lon="5.72297">
        <ele>388</ele>
        <time>2011-07-03T09:09:30.000Z</time>
      </trkpt>
      <trkpt lat="49.54861" lon="5.72312">
        <ele>388</ele>
        <time>2011-07-03T09:09:32.000Z</time>
      </trkpt>
      <trkpt lat="49.54887" lon="5.72372">
        <ele>388</ele>
        <time>2011-07-03T09:09:41.000Z</time>
      </trkpt>
      <trkpt lat="49.54889" lon="5.72379">
        <ele>388</ele>
        <time>2011-07-03T09:09:42.000Z</time>
      </trkpt>
      <trkpt lat="49.54892" lon="5.72393">
        <ele>388</ele>
        <time>2011-07-03T09:09:44.000Z</time>
      </trkpt>
      <trkpt lat="49.54897" lon="5.72427">
        <ele>389</ele>
        <time>2011-07-03T09:09:49.000Z</time>
      </trkpt>
      <trkpt lat="49.549" lon="5.72495">
        <ele>388</ele>
        <time>2011-07-03T09:10:00.000Z</time>
      </trkpt>
      <trkpt lat="49.549" lon="5.72502">
        <ele>387</ele>
        <time>2011-07-03T09:10:01.000Z</time>
      </trkpt>
      <trkpt lat="49.54899" lon="5.72522">
        <ele>386</ele>
        <time>2011-07-03T09:10:04.000Z</time>
      </trkpt>
      <trkpt lat="49.54896" lon="5.72558">
        <ele>384</ele>
        <time>2011-07-03T09:10:10.000Z</time>
      </trkpt>
      <trkpt lat="49.54893" lon="5.72572">
        <ele>383</ele>
        <time>2011-07-03T09:10:12.000Z</time>
      </trkpt>
      <trkpt lat="49.54887" lon="5.72616">
        <ele>385</ele>
        <time>2011-07-03T09:10:19.000Z</time>
      </trkpt>
      <trkpt lat="49.54876" lon="5.72645">
        <ele>387</ele>
        <time>2011-07-03T09:10:24.000Z</time>
      </trkpt>
      <trkpt lat="49.54848" lon="5.72706">
        <ele>386</ele>
        <time>2011-07-03T09:10:36.000Z</time>
      </trkpt>
      <trkpt lat="49.54846" lon="5.72712">
        <ele>386</ele>
        <time>2011-07-03T09:10:37.000Z</time>
      </trkpt>
      <trkpt lat="49.54829" lon="5.72746">
        <ele>385</ele>
        <time>2011-07-03T09:10:43.000Z</time>
      </trkpt>
      <trkpt lat="49.54818" lon="5.72803">
        <ele>387</ele>
        <time>2011-07-03T09:10:51.000Z</time>
      </trkpt>
      <trkpt lat="49.54805" lon="5.72878">
        <ele>387</ele>
        <time>2011-07-03T09:10:59.000Z</time>
      </trkpt>
      <trkpt lat="49.54803" lon="5.72886">
        <ele>387</ele>
        <time>2011-07-03T09:11:00.000Z</time>
      </trkpt>
      <trkpt lat="49.54773" lon="5.72948">
        <ele>384</ele>
        <time>2011-07-03T09:11:08.000Z</time>
      </trkpt>
      <trkpt lat="49.5477" lon="5.72955">
        <ele>383</ele>
        <time>2011-07-03T09:11:09.000Z</time>
      </trkpt>
      <trkpt lat="49.54745" lon="5.7302">
        <ele>382</ele>
        <time>2011-07-03T09:11:19.000Z</time>
      </trkpt>
      <trkpt lat="49.54743" lon="5.73029">
        <ele>382</ele>
        <time>2011-07-03T09:11:20.000Z</time>
      </trkpt>
      <trkpt lat="49.54737" lon="5.73052">
        <ele>384</ele>
        <time>2011-07-03T09:11:23.000Z</time>
      </trkpt>
      <trkpt lat="49.54715" lon="5.73115">
        <ele>390</ele>
        <time>2011-07-03T09:11:32.000Z</time>
      </trkpt>
      <trkpt lat="49.54712" lon="5.73122">
        <ele>390</ele>
        <time>2011-07-03T09:11:33.000Z</time>
      </trkpt>
      <trkpt lat="49.54708" lon="5.73126">
        <ele>389</ele>
        <time>2011-07-03T09:11:34.000Z</time>
      </trkpt>
      <trkpt lat="49.54704" lon="5.73125">
        <ele>389</ele>
        <time>2011-07-03T09:11:43.000Z</time>
      </trkpt>
      <trkpt lat="49.54707" lon="5.73107">
        <ele>391</ele>
        <time>2011-07-03T09:11:49.000Z</time>
      </trkpt>
      <trkpt lat="49.54697" lon="5.73061">
        <ele>390</ele>
        <time>2011-07-03T09:11:57.000Z</time>
      </trkpt>
      <trkpt lat="49.54692" lon="5.7304">
        <ele>394</ele>
        <time>2011-07-03T09:12:01.000Z</time>
      </trkpt>
      <trkpt lat="49.54679" lon="5.73004">
        <ele>398</ele>
        <time>2011-07-03T09:12:07.000Z</time>
      </trkpt>
      <trkpt lat="49.54674" lon="5.72972">
        <ele>398</ele>
        <time>2011-07-03T09:12:11.000Z</time>
      </trkpt>
      <trkpt lat="49.54655" lon="5.72925">
        <ele>405</ele>
        <time>2011-07-03T09:12:18.000Z</time>
      </trkpt>
      <trkpt lat="49.54624" lon="5.72888">
        <ele>414</ele>
        <time>2011-07-03T09:12:25.000Z</time>
      </trkpt>
      <trkpt lat="49.54617" lon="5.72844">
        <ele>413</ele>
        <time>2011-07-03T09:12:30.000Z</time>
      </trkpt>
      <trkpt lat="49.54606" lon="5.72768">
        <ele>409</ele>
        <time>2011-07-03T09:12:38.000Z</time>
      </trkpt>
      <trkpt lat="49.54605" lon="5.72759">
        <ele>409</ele>
        <time>2011-07-03T09:12:39.000Z</time>
      </trkpt>
      <trkpt lat="49.54594" lon="5.72689">
        <ele>405</ele>
        <time>2011-07-03T09:12:47.000Z</time>
      </trkpt>
      <trkpt lat="49.54593" lon="5.7268">
        <ele>405</ele>
        <time>2011-07-03T09:12:48.000Z</time>
      </trkpt>
      <trkpt lat="49.54588" lon="5.72607">
        <ele>396</ele>
        <time>2011-07-03T09:12:55.000Z</time>
      </trkpt>
      <trkpt lat="49.54588" lon="5.72596">
        <ele>394</ele>
        <time>2011-07-03T09:12:56.000Z</time>
      </trkpt>
      <trkpt lat="49.54585" lon="5.72531">
        <ele>386</ele>
        <time>2011-07-03T09:13:03.000Z</time>
      </trkpt>
      <trkpt lat="49.54586" lon="5.72522">
        <ele>385</ele>
        <time>2011-07-03T09:13:04.000Z</time>
      </trkpt>
      <trkpt lat="49.54584" lon="5.72496">
        <ele>383</ele>
        <time>2011-07-03T09:13:07.000Z</time>
      </trkpt>
      <trkpt lat="49.54583" lon="5.72421">
        <ele>381</ele>
        <time>2011-07-03T09:13:15.000Z</time>
      </trkpt>
      <trkpt lat="49.54583" lon="5.72414">
        <ele>381</ele>
        <time>2011-07-03T09:13:16.000Z</time>
      </trkpt>
      <trkpt lat="49.54578" lon="5.72354">
        <ele>385</ele>
        <time>2011-07-03T09:13:24.000Z</time>
      </trkpt>
      <trkpt lat="49.54567" lon="5.72282">
        <ele>387</ele>
        <time>2011-07-03T09:13:33.000Z</time>
      </trkpt>
      <trkpt lat="49.54566" lon="5.72275">
        <ele>388</ele>
        <time>2011-07-03T09:13:34.000Z</time>
      </trkpt>
      <trkpt lat="49.54559" lon="5.72201">
        <ele>396</ele>
        <time>2011-07-03T09:13:43.000Z</time>
      </trkpt>
      <trkpt lat="49.54557" lon="5.72191">
        <ele>397</ele>
        <time>2011-07-03T09:13:44.000Z</time>
      </trkpt>
      <trkpt lat="49.54552" lon="5.7212">
        <ele>403</ele>
        <time>2011-07-03T09:13:51.000Z</time>
      </trkpt>
      <trkpt lat="49.54551" lon="5.7211">
        <ele>402</ele>
        <time>2011-07-03T09:13:52.000Z</time>
      </trkpt>
      <trkpt lat="49.54549" lon="5.72079">
        <ele>401</ele>
        <time>2011-07-03T09:13:55.000Z</time>
      </trkpt>
      <trkpt lat="49.54546" lon="5.72037">
        <ele>398</ele>
        <time>2011-07-03T09:13:59.000Z</time>
      </trkpt>
      <trkpt lat="49.54545" lon="5.71983">
        <ele>390</ele>
        <time>2011-07-03T09:14:05.000Z</time>
      </trkpt>
      <trkpt lat="49.54547" lon="5.7196">
        <ele>384</ele>
        <time>2011-07-03T09:14:08.000Z</time>
      </trkpt>
      <trkpt lat="49.54554" lon="5.71948">
        <ele>381</ele>
        <time>2011-07-03T09:14:10.000Z</time>
      </trkpt>
      <trkpt lat="49.54573" lon="5.71914">
        <ele>372</ele>
        <time>2011-07-03T09:14:16.000Z</time>
      </trkpt>
      <trkpt lat="49.54585" lon="5.71891">
        <ele>370</ele>
        <time>2011-07-03T09:14:17.000Z</time>
      </trkpt>
      <trkpt lat="49.5459" lon="5.71861">
        <ele>368</ele>
        <time>2011-07-03T09:14:19.000Z</time>
      </trkpt>
      <trkpt lat="49.54594" lon="5.71787">
        <ele>436</ele>
        <time>2011-07-03T09:15:43.000Z</time>
      </trkpt>
      <trkpt lat="49.54601" lon="5.71755">
        <ele>396</ele>
        <time>2011-07-03T09:21:55.000Z</time>
      </trkpt>
      <trkpt lat="49.54617" lon="5.71735">
        <ele>392</ele>
        <time>2011-07-03T09:22:06.000Z</time>
      </trkpt>
      <trkpt lat="49.54613" lon="5.71722">
        <ele>392</ele>
        <time>2011-07-03T09:22:10.000Z</time>
      </trkpt>
      <trkpt lat="49.54607" lon="5.71705">
        <ele>390</ele>
        <time>2011-07-03T09:22:14.000Z</time>
      </trkpt>
      <trkpt lat="49.54604" lon="5.71681">
        <ele>387</ele>
        <time>2011-07-03T09:22:18.000Z</time>
      </trkpt>
      <trkpt lat="49.54601" lon="5.71661">
        <ele>384</ele>
        <time>2011-07-03T09:22:21.000Z</time>
      </trkpt>
      <trkpt lat="49.54601" lon="5.71613">
        <ele>383</ele>
        <time>2011-07-03T09:22:29.000Z</time>
      </trkpt>
      <trkpt lat="49.54606" lon="5.71551">
        <ele>387</ele>
        <time>2011-07-03T09:22:39.000Z</time>
      </trkpt>
      <trkpt lat="49.54607" lon="5.71544">
        <ele>387</ele>
        <time>2011-07-03T09:22:40.000Z</time>
      </trkpt>
      <trkpt lat="49.54613" lon="5.71521">
        <ele>391</ele>
        <time>2011-07-03T09:22:44.000Z</time>
      </trkpt>
      <trkpt lat="49.5462" lon="5.71486">
        <ele>397</ele>
        <time>2011-07-03T09:22:50.000Z</time>
      </trkpt>
      <trkpt lat="49.54622" lon="5.71467">
        <ele>400</ele>
        <time>2011-07-03T09:22:53.000Z</time>
      </trkpt>
      <trkpt lat="49.5464" lon="5.71398">
        <ele>395</ele>
        <time>2011-07-03T09:23:03.000Z</time>
      </trkpt>
      <trkpt lat="49.54642" lon="5.71391">
        <ele>394</ele>
        <time>2011-07-03T09:23:04.000Z</time>
      </trkpt>
      <trkpt lat="49.54657" lon="5.71346">
        <ele>387</ele>
        <time>2011-07-03T09:23:10.000Z</time>
      </trkpt>
      <trkpt lat="49.54666" lon="5.7132">
        <ele>384</ele>
        <time>2011-07-03T09:23:14.000Z</time>
      </trkpt>
      <trkpt lat="49.5469" lon="5.71259">
        <ele>386</ele>
        <time>2011-07-03T09:23:26.000Z</time>
      </trkpt>
      <trkpt lat="49.54692" lon="5.71254">
        <ele>386</ele>
        <time>2011-07-03T09:23:27.000Z</time>
      </trkpt>
      <trkpt lat="49.54718" lon="5.71191">
        <ele>394</ele>
        <time>2011-07-03T09:23:40.000Z</time>
      </trkpt>
      <trkpt lat="49.54721" lon="5.71185">
        <ele>394</ele>
        <time>2011-07-03T09:23:41.000Z</time>
      </trkpt>
      <trkpt lat="49.54732" lon="5.71164">
        <ele>393</ele>
        <time>2011-07-03T09:23:45.000Z</time>
      </trkpt>
      <trkpt lat="49.5473" lon="5.71152">
        <ele>391</ele>
        <time>2011-07-03T09:23:49.000Z</time>
      </trkpt>
      <trkpt lat="49.54723" lon="5.71135">
        <ele>387</ele>
        <time>2011-07-03T09:23:54.000Z</time>
      </trkpt>
      <trkpt lat="49.54712" lon="5.71106">
        <ele>385</ele>
        <time>2011-07-03T09:24:02.000Z</time>
      </trkpt>
      <trkpt lat="49.54706" lon="5.71093">
        <ele>387</ele>
        <time>2011-07-03T09:24:07.000Z</time>
      </trkpt>
      <trkpt lat="49.54682" lon="5.71078">
        <ele>391</ele>
        <time>2011-07-03T09:24:17.000Z</time>
      </trkpt>
      <trkpt lat="49.54667" lon="5.71071">
        <ele>394</ele>
        <time>2011-07-03T09:24:23.000Z</time>
      </trkpt>
      <trkpt lat="49.54661" lon="5.71065">
        <ele>395</ele>
        <time>2011-07-03T09:24:26.000Z</time>
      </trkpt>
      <trkpt lat="49.54642" lon="5.71043">
        <ele>395</ele>
        <time>2011-07-03T09:24:34.000Z</time>
      </trkpt>
      <trkpt lat="49.54599" lon="5.7102">
        <ele>387</ele>
        <time>2011-07-03T09:24:47.000Z</time>
      </trkpt>
      <trkpt lat="49.54595" lon="5.71019">
        <ele>386</ele>
        <time>2011-07-03T09:24:48.000Z</time>
      </trkpt>
      <trkpt lat="49.54588" lon="5.71014">
        <ele>383</ele>
        <time>2011-07-03T09:24:50.000Z</time>
      </trkpt>
      <trkpt lat="49.54572" lon="5.7099">
        <ele>378</ele>
        <time>2011-07-03T09:24:55.000Z</time>
      </trkpt>
      <trkpt lat="49.54557" lon="5.70944">
        <ele>372</ele>
        <time>2011-07-03T09:25:02.000Z</time>
      </trkpt>
      <trkpt lat="49.54536" lon="5.70902">
        <ele>365</ele>
        <time>2011-07-03T09:25:10.000Z</time>
      </trkpt>
      <trkpt lat="49.54529" lon="5.70886">
        <ele>363</ele>
        <time>2011-07-03T09:25:13.000Z</time>
      </trkpt>
      <trkpt lat="49.54506" lon="5.70839">
        <ele>358</ele>
        <time>2011-07-03T09:25:22.000Z</time>
      </trkpt>
      <trkpt lat="49.54499" lon="5.7082">
        <ele>356</ele>
        <time>2011-07-03T09:25:25.000Z</time>
      </trkpt>
      <trkpt lat="49.54489" lon="5.70795">
        <ele>352</ele>
        <time>2011-07-03T09:25:30.000Z</time>
      </trkpt>
      <trkpt lat="49.54487" lon="5.70784">
        <ele>351</ele>
        <time>2011-07-03T09:25:33.000Z</time>
      </trkpt>
      <trkpt lat="49.54493" lon="5.70767">
        <ele>352</ele>
        <time>2011-07-03T09:25:37.000Z</time>
      </trkpt>
      <trkpt lat="49.54528" lon="5.7072">
        <ele>367</ele>
        <time>2011-07-03T09:25:47.000Z</time>
      </trkpt>
      <trkpt lat="49.54531" lon="5.70714">
        <ele>368</ele>
        <time>2011-07-03T09:25:48.000Z</time>
      </trkpt>
      <trkpt lat="49.54567" lon="5.70668">
        <ele>383</ele>
        <time>2011-07-03T09:25:58.000Z</time>
      </trkpt>
      <trkpt lat="49.54571" lon="5.70663">
        <ele>385</ele>
        <time>2011-07-03T09:25:59.000Z</time>
      </trkpt>
      <trkpt lat="49.54602" lon="5.70623">
        <ele>394</ele>
        <time>2011-07-03T09:26:06.000Z</time>
      </trkpt>
      <trkpt lat="49.54606" lon="5.70611">
        <ele>396</ele>
        <time>2011-07-03T09:26:08.000Z</time>
      </trkpt>
      <trkpt lat="49.54599" lon="5.70594">
        <ele>398</ele>
        <time>2011-07-03T09:26:11.000Z</time>
      </trkpt>
      <trkpt lat="49.54583" lon="5.70568">
        <ele>399</ele>
        <time>2011-07-03T09:26:17.000Z</time>
      </trkpt>
      <trkpt lat="49.54575" lon="5.70552">
        <ele>397</ele>
        <time>2011-07-03T09:26:20.000Z</time>
      </trkpt>
      <trkpt lat="49.54571" lon="5.7054">
        <ele>397</ele>
        <time>2011-07-03T09:26:22.000Z</time>
      </trkpt>
      <trkpt lat="49.54564" lon="5.70515">
        <ele>394</ele>
        <time>2011-07-03T09:26:27.000Z</time>
      </trkpt>
      <trkpt lat="49.54548" lon="5.70491">
        <ele>393</ele>
        <time>2011-07-03T09:26:33.000Z</time>
      </trkpt>
      <trkpt lat="49.54538" lon="5.70479">
        <ele>393</ele>
        <time>2011-07-03T09:26:36.000Z</time>
      </trkpt>
      <trkpt lat="49.54503" lon="5.70424">
        <ele>393</ele>
        <time>2011-07-03T09:26:46.000Z</time>
      </trkpt>
      <trkpt lat="49.54499" lon="5.70419">
        <ele>393</ele>
        <time>2011-07-03T09:26:47.000Z</time>
      </trkpt>
      <trkpt lat="49.54462" lon="5.70372">
        <ele>388</ele>
        <time>2011-07-03T09:26:56.000Z</time>
      </trkpt>
      <trkpt lat="49.54458" lon="5.70367">
        <ele>387</ele>
        <time>2011-07-03T09:26:57.000Z</time>
      </trkpt>
      <trkpt lat="49.54436" lon="5.70331">
        <ele>383</ele>
        <time>2011-07-03T09:27:04.000Z</time>
      </trkpt>
      <trkpt lat="49.54431" lon="5.70308">
        <ele>381</ele>
        <time>2011-07-03T09:27:07.000Z</time>
      </trkpt>
      <trkpt lat="49.54419" lon="5.70243">
        <ele>369</ele>
        <time>2011-07-03T09:27:14.000Z</time>
      </trkpt>
      <trkpt lat="49.54417" lon="5.70234">
        <ele>367</ele>
        <time>2011-07-03T09:27:15.000Z</time>
      </trkpt>
      <trkpt lat="49.54399" lon="5.70165">
        <ele>352</ele>
        <time>2011-07-03T09:27:24.000Z</time>
      </trkpt>
      <trkpt lat="49.54397" lon="5.70156">
        <ele>351</ele>
        <time>2011-07-03T09:27:25.000Z</time>
      </trkpt>
      <trkpt lat="49.54388" lon="5.70114">
        <ele>345</ele>
        <time>2011-07-03T09:27:30.000Z</time>
      </trkpt>
      <trkpt lat="49.54387" lon="5.70038">
        <ele>341</ele>
        <time>2011-07-03T09:27:38.000Z</time>
      </trkpt>
      <trkpt lat="49.54388" lon="5.70026">
        <ele>342</ele>
        <time>2011-07-03T09:27:39.000Z</time>
      </trkpt>
      <trkpt lat="49.54406" lon="5.69978">
        <ele>348</ele>
        <time>2011-07-03T09:27:44.000Z</time>
      </trkpt>
      <trkpt lat="49.54427" lon="5.69912">
        <ele>356</ele>
        <time>2011-07-03T09:27:50.000Z</time>
      </trkpt>
      <trkpt lat="49.5443" lon="5.69902">
        <ele>357</ele>
        <time>2011-07-03T09:27:51.000Z</time>
      </trkpt>
      <trkpt lat="49.5443" lon="5.69895">
        <ele>358</ele>
        <time>2011-07-03T09:27:52.000Z</time>
      </trkpt>
      <trkpt lat="49.54425" lon="5.69874">
        <ele>360</ele>
        <time>2011-07-03T09:27:55.000Z</time>
      </trkpt>
      <trkpt lat="49.54398" lon="5.69835">
        <ele>371</ele>
        <time>2011-07-03T09:28:03.000Z</time>
      </trkpt>
      <trkpt lat="49.54389" lon="5.69818">
        <ele>374</ele>
        <time>2011-07-03T09:28:06.000Z</time>
      </trkpt>
      <trkpt lat="49.54382" lon="5.69799">
        <ele>377</ele>
        <time>2011-07-03T09:28:09.000Z</time>
      </trkpt>
      <trkpt lat="49.54374" lon="5.69754">
        <ele>382</ele>
        <time>2011-07-03T09:28:18.000Z</time>
      </trkpt>
      <trkpt lat="49.54375" lon="5.69698">
        <ele>377</ele>
        <time>2011-07-03T09:28:29.000Z</time>
      </trkpt>
      <trkpt lat="49.5438" lon="5.69634">
        <ele>382</ele>
        <time>2011-07-03T09:28:39.000Z</time>
      </trkpt>
      <trkpt lat="49.5439" lon="5.696">
        <ele>382</ele>
        <time>2011-07-03T09:28:45.000Z</time>
      </trkpt>
      <trkpt lat="49.544" lon="5.69546">
        <ele>386</ele>
        <time>2011-07-03T09:28:52.000Z</time>
      </trkpt>
      <trkpt lat="49.54408" lon="5.69492">
        <ele>384</ele>
        <time>2011-07-03T09:28:59.000Z</time>
      </trkpt>
      <trkpt lat="49.54413" lon="5.69456">
        <ele>386</ele>
        <time>2011-07-03T09:29:06.000Z</time>
      </trkpt>
      <trkpt lat="49.54402" lon="5.69443">
        <ele>387</ele>
        <time>2011-07-03T09:29:12.000Z</time>
      </trkpt>
      <trkpt lat="49.54377" lon="5.6943">
        <ele>387</ele>
        <time>2011-07-03T09:29:22.000Z</time>
      </trkpt>
      <trkpt lat="49.54369" lon="5.69431">
        <ele>387</ele>
        <time>2011-07-03T09:29:25.000Z</time>
      </trkpt>
      <trkpt lat="49.54342" lon="5.69418">
        <ele>387</ele>
        <time>2011-07-03T09:29:33.000Z</time>
      </trkpt>
      <trkpt lat="49.54295" lon="5.69403">
        <ele>386</ele>
        <time>2011-07-03T09:29:42.000Z</time>
      </trkpt>
      <trkpt lat="49.54289" lon="5.69401">
        <ele>387</ele>
        <time>2011-07-03T09:29:43.000Z</time>
      </trkpt>
      <trkpt lat="49.54271" lon="5.69391">
        <ele>387</ele>
        <time>2011-07-03T09:29:46.000Z</time>
      </trkpt>
      <trkpt lat="49.54259" lon="5.69375">
        <ele>385</ele>
        <time>2011-07-03T09:29:49.000Z</time>
      </trkpt>
      <trkpt lat="49.54255" lon="5.69362">
        <ele>384</ele>
        <time>2011-07-03T09:29:51.000Z</time>
      </trkpt>
      <trkpt lat="49.54255" lon="5.6934">
        <ele>382</ele>
        <time>2011-07-03T09:29:54.000Z</time>
      </trkpt>
      <trkpt lat="49.54271" lon="5.69272">
        <ele>378</ele>
        <time>2011-07-03T09:30:01.000Z</time>
      </trkpt>
      <trkpt lat="49.54273" lon="5.69262">
        <ele>378</ele>
        <time>2011-07-03T09:30:02.000Z</time>
      </trkpt>
      <trkpt lat="49.54292" lon="5.69195">
        <ele>370</ele>
        <time>2011-07-03T09:30:08.000Z</time>
      </trkpt>
      <trkpt lat="49.54295" lon="5.69185">
        <ele>369</ele>
        <time>2011-07-03T09:30:09.000Z</time>
      </trkpt>
      <trkpt lat="49.54301" lon="5.69158">
        <ele>365</ele>
        <time>2011-07-03T09:30:12.000Z</time>
      </trkpt>
      <trkpt lat="49.54306" lon="5.6913">
        <ele>354</ele>
        <time>2011-07-03T09:30:18.000Z</time>
      </trkpt>
      <trkpt lat="49.54299" lon="5.69132">
        <ele>350</ele>
        <time>2011-07-03T09:30:23.000Z</time>
      </trkpt>
      <trkpt lat="49.54257" lon="5.69137">
        <ele>353</ele>
        <time>2011-07-03T09:30:32.000Z</time>
      </trkpt>
      <trkpt lat="49.54251" lon="5.69136">
        <ele>352</ele>
        <time>2011-07-03T09:30:33.000Z</time>
      </trkpt>
      <trkpt lat="49.54207" lon="5.6913">
        <ele>350</ele>
        <time>2011-07-03T09:30:39.000Z</time>
      </trkpt>
      <trkpt lat="49.54198" lon="5.69128">
        <ele>350</ele>
        <time>2011-07-03T09:30:40.000Z</time>
      </trkpt>
      <trkpt lat="49.5415" lon="5.69121">
        <ele>348</ele>
        <time>2011-07-03T09:30:46.000Z</time>
      </trkpt>
      <trkpt lat="49.54142" lon="5.6912">
        <ele>348</ele>
        <time>2011-07-03T09:30:47.000Z</time>
      </trkpt>
      <trkpt lat="49.54097" lon="5.69114">
        <ele>349</ele>
        <time>2011-07-03T09:30:53.000Z</time>
      </trkpt>
      <trkpt lat="49.5409" lon="5.69113">
        <ele>349</ele>
        <time>2011-07-03T09:30:54.000Z</time>
      </trkpt>
      <trkpt lat="49.54045" lon="5.69101">
        <ele>353</ele>
        <time>2011-07-03T09:31:01.000Z</time>
      </trkpt>
      <trkpt lat="49.54038" lon="5.69098">
        <ele>353</ele>
        <time>2011-07-03T09:31:02.000Z</time>
      </trkpt>
      <trkpt lat="49.53991" lon="5.69087">
        <ele>353</ele>
        <time>2011-07-03T09:31:09.000Z</time>
      </trkpt>
      <trkpt lat="49.53985" lon="5.69086">
        <ele>353</ele>
        <time>2011-07-03T09:31:10.000Z</time>
      </trkpt>
      <trkpt lat="49.5396" lon="5.69089">
        <ele>353</ele>
        <time>2011-07-03T09:31:14.000Z</time>
      </trkpt>
      <trkpt lat="49.53933" lon="5.69107">
        <ele>351</ele>
        <time>2011-07-03T09:31:19.000Z</time>
      </trkpt>
      <trkpt lat="49.53904" lon="5.6916">
        <ele>350</ele>
        <time>2011-07-03T09:31:25.000Z</time>
      </trkpt>
      <trkpt lat="49.539" lon="5.6917">
        <ele>350</ele>
        <time>2011-07-03T09:31:26.000Z</time>
      </trkpt>
      <trkpt lat="49.53875" lon="5.69235">
        <ele>350</ele>
        <time>2011-07-03T09:31:33.000Z</time>
      </trkpt>
      <trkpt lat="49.53873" lon="5.69244">
        <ele>350</ele>
        <time>2011-07-03T09:31:34.000Z</time>
      </trkpt>
      <trkpt lat="49.53855" lon="5.69291">
        <ele>348</ele>
        <time>2011-07-03T09:31:40.000Z</time>
      </trkpt>
      <trkpt lat="49.53843" lon="5.69295">
        <ele>347</ele>
        <time>2011-07-03T09:31:43.000Z</time>
      </trkpt>
      <trkpt lat="49.53797" lon="5.69305">
        <ele>343</ele>
        <time>2011-07-03T09:31:50.000Z</time>
      </trkpt>
      <trkpt lat="49.5379" lon="5.69307">
        <ele>342</ele>
        <time>2011-07-03T09:31:51.000Z</time>
      </trkpt>
      <trkpt lat="49.53738" lon="5.69319">
        <ele>334</ele>
        <time>2011-07-03T09:31:58.000Z</time>
      </trkpt>
      <trkpt lat="49.5373" lon="5.6932">
        <ele>333</ele>
        <time>2011-07-03T09:31:59.000Z</time>
      </trkpt>
      <trkpt lat="49.53689" lon="5.69325">
        <ele>324</ele>
        <time>2011-07-03T09:32:05.000Z</time>
      </trkpt>
      <trkpt lat="49.53683" lon="5.69326">
        <ele>323</ele>
        <time>2011-07-03T09:32:06.000Z</time>
      </trkpt>
      <trkpt lat="49.5366" lon="5.69323">
        <ele>318</ele>
        <time>2011-07-03T09:32:11.000Z</time>
      </trkpt>
      <trkpt lat="49.53648" lon="5.69317">
        <ele>315</ele>
        <time>2011-07-03T09:32:14.000Z</time>
      </trkpt>
      <trkpt lat="49.53623" lon="5.69295">
        <ele>308</ele>
        <time>2011-07-03T09:32:20.000Z</time>
      </trkpt>
      <trkpt lat="49.53611" lon="5.69278">
        <ele>305</ele>
        <time>2011-07-03T09:32:23.000Z</time>
      </trkpt>
      <trkpt lat="49.53606" lon="5.69255">
        <ele>302</ele>
        <time>2011-07-03T09:32:26.000Z</time>
      </trkpt>
      <trkpt lat="49.53608" lon="5.69182">
        <ele>300</ele>
        <time>2011-07-03T09:32:35.000Z</time>
      </trkpt>
      <trkpt lat="49.53608" lon="5.69174">
        <ele>300</ele>
        <time>2011-07-03T09:32:36.000Z</time>
      </trkpt>
      <trkpt lat="49.5362" lon="5.69099">
        <ele>298</ele>
        <time>2011-07-03T09:32:45.000Z</time>
      </trkpt>
      <trkpt lat="49.5362" lon="5.69093">
        <ele>298</ele>
        <time>2011-07-03T09:32:46.000Z</time>
      </trkpt>
      <trkpt lat="49.53619" lon="5.69087">
        <ele>297</ele>
        <time>2011-07-03T09:32:47.000Z</time>
      </trkpt>
      <trkpt lat="49.53604" lon="5.69077">
        <ele>296</ele>
        <time>2011-07-03T09:32:50.000Z</time>
      </trkpt>
      <trkpt lat="49.53557" lon="5.69043">
        <ele>288</ele>
        <time>2011-07-03T09:32:58.000Z</time>
      </trkpt>
      <trkpt lat="49.53551" lon="5.69038">
        <ele>286</ele>
        <time>2011-07-03T09:32:59.000Z</time>
      </trkpt>
      <trkpt lat="49.53534" lon="5.69021">
        <ele>280</ele>
        <time>2011-07-03T09:33:02.000Z</time>
      </trkpt>
      <trkpt lat="49.5353" lon="5.69003">
        <ele>275</ele>
        <time>2011-07-03T09:33:04.000Z</time>
      </trkpt>
      <trkpt lat="49.53529" lon="5.6897">
        <ele>267</ele>
        <time>2011-07-03T09:33:08.000Z</time>
      </trkpt>
      <trkpt lat="49.53531" lon="5.68944">
        <ele>263</ele>
        <time>2011-07-03T09:33:15.000Z</time>
      </trkpt>
      <trkpt lat="49.53527" lon="5.68934">
        <ele>276</ele>
        <time>2011-07-03T09:33:34.000Z</time>
      </trkpt>
      <trkpt lat="49.53528" lon="5.68921">
        <ele>278</ele>
        <time>2011-07-03T09:33:38.000Z</time>
      </trkpt>
      <trkpt lat="49.53537" lon="5.68845">
        <ele>277</ele>
        <time>2011-07-03T09:33:49.000Z</time>
      </trkpt>
      <trkpt lat="49.53539" lon="5.68838">
        <ele>277</ele>
        <time>2011-07-03T09:33:50.000Z</time>
      </trkpt>
      <trkpt lat="49.53542" lon="5.68824">
        <ele>276</ele>
        <time>2011-07-03T09:33:52.000Z</time>
      </trkpt>
      <trkpt lat="49.53559" lon="5.68773">
        <ele>273</ele>
        <time>2011-07-03T09:34:00.000Z</time>
      </trkpt>
      <trkpt lat="49.53559" lon="5.68764">
        <ele>271</ele>
        <time>2011-07-03T09:34:03.000Z</time>
      </trkpt>
      <trkpt lat="49.53553" lon="5.68767">
        <ele>271</ele>
        <time>2011-07-03T09:34:05.000Z</time>
      </trkpt>
      <trkpt lat="49.53541" lon="5.68782">
        <ele>269</ele>
        <time>2011-07-03T09:34:09.000Z</time>
      </trkpt>
      <trkpt lat="49.53532" lon="5.68797">
        <ele>269</ele>
        <time>2011-07-03T09:34:12.000Z</time>
      </trkpt>
      <trkpt lat="49.53505" lon="5.68857">
        <ele>269</ele>
        <time>2011-07-03T09:34:24.000Z</time>
      </trkpt>
      <trkpt lat="49.53504" lon="5.68863">
        <ele>269</ele>
        <time>2011-07-03T09:34:25.000Z</time>
      </trkpt>
      <trkpt lat="49.53495" lon="5.68888">
        <ele>269</ele>
        <time>2011-07-03T09:34:29.000Z</time>
      </trkpt>
      <trkpt lat="49.5347" lon="5.68946">
        <ele>270</ele>
        <time>2011-07-03T09:34:38.000Z</time>
      </trkpt>
      <trkpt lat="49.53467" lon="5.68953">
        <ele>270</ele>
        <time>2011-07-03T09:34:39.000Z</time>
      </trkpt>
      <trkpt lat="49.5344" lon="5.69015">
        <ele>271</ele>
        <time>2011-07-03T09:34:48.000Z</time>
      </trkpt>
      <trkpt lat="49.53437" lon="5.6902">
        <ele>271</ele>
        <time>2011-07-03T09:34:49.000Z</time>
      </trkpt>
      <trkpt lat="49.53433" lon="5.69024">
        <ele>272</ele>
        <time>2011-07-03T09:34:50.000Z</time>
      </trkpt>
      <trkpt lat="49.53425" lon="5.69024">
        <ele>272</ele>
        <time>2011-07-03T09:34:52.000Z</time>
      </trkpt>
      <trkpt lat="49.53401" lon="5.69011">
        <ele>271</ele>
        <time>2011-07-03T09:34:57.000Z</time>
      </trkpt>
      <trkpt lat="49.53389" lon="5.68998">
        <ele>270</ele>
        <time>2011-07-03T09:35:00.000Z</time>
      </trkpt>
      <trkpt lat="49.53384" lon="5.68979">
        <ele>270</ele>
        <time>2011-07-03T09:35:03.000Z</time>
      </trkpt>
      <trkpt lat="49.53378" lon="5.68949">
        <ele>269</ele>
        <time>2011-07-03T09:35:07.000Z</time>
      </trkpt>
      <trkpt lat="49.53373" lon="5.68935">
        <ele>269</ele>
        <time>2011-07-03T09:35:09.000Z</time>
      </trkpt>
      <trkpt lat="49.53365" lon="5.68918">
        <ele>269</ele>
        <time>2011-07-03T09:35:12.000Z</time>
      </trkpt>
      <trkpt lat="49.53359" lon="5.68922">
        <ele>269</ele>
        <time>2011-07-03T09:35:15.000Z</time>
      </trkpt>
      <trkpt lat="49.53356" lon="5.68928">
        <ele>269</ele>
        <time>2011-07-03T09:35:17.000Z</time>
      </trkpt>
      <trkpt lat="49.53354" lon="5.68937">
        <ele>269</ele>
        <time>2011-07-03T09:35:19.000Z</time>
      </trkpt>
      <trkpt lat="49.53354" lon="5.68947">
        <ele>269</ele>
        <time>2011-07-03T09:35:21.000Z</time>
      </trkpt>
      <trkpt lat="49.53357" lon="5.69022">
        <ele>270</ele>
        <time>2011-07-03T09:35:32.000Z</time>
      </trkpt>
      <trkpt lat="49.53358" lon="5.6903">
        <ele>270</ele>
        <time>2011-07-03T09:35:33.000Z</time>
      </trkpt>
      <trkpt lat="49.53364" lon="5.691">
        <ele>272</ele>
        <time>2011-07-03T09:35:41.000Z</time>
      </trkpt>
      <trkpt lat="49.53364" lon="5.69109">
        <ele>273</ele>
        <time>2011-07-03T09:35:42.000Z</time>
      </trkpt>
      <trkpt lat="49.5337" lon="5.69179">
        <ele>279</ele>
        <time>2011-07-03T09:35:50.000Z</time>
      </trkpt>
      <trkpt lat="49.5337" lon="5.69187">
        <ele>279</ele>
        <time>2011-07-03T09:35:51.000Z</time>
      </trkpt>
      <trkpt lat="49.53369" lon="5.69203">
        <ele>279</ele>
        <time>2011-07-03T09:35:53.000Z</time>
      </trkpt>
      <trkpt lat="49.53365" lon="5.69215">
        <ele>279</ele>
        <time>2011-07-03T09:35:55.000Z</time>
      </trkpt>
      <trkpt lat="49.53352" lon="5.69236">
        <ele>277</ele>
        <time>2011-07-03T09:35:59.000Z</time>
      </trkpt>
      <trkpt lat="49.53334" lon="5.69251">
        <ele>276</ele>
        <time>2011-07-03T09:36:04.000Z</time>
      </trkpt>
      <trkpt lat="49.53309" lon="5.69259">
        <ele>277</ele>
        <time>2011-07-03T09:36:11.000Z</time>
      </trkpt>
      <trkpt lat="49.53277" lon="5.69263">
        <ele>280</ele>
        <time>2011-07-03T09:36:21.000Z</time>
      </trkpt>
      <trkpt lat="49.53258" lon="5.69256">
        <ele>282</ele>
        <time>2011-07-03T09:36:27.000Z</time>
      </trkpt>
      <trkpt lat="49.53246" lon="5.69244">
        <ele>282</ele>
        <time>2011-07-03T09:36:31.000Z</time>
      </trkpt>
      <trkpt lat="49.53234" lon="5.69211">
        <ele>280</ele>
        <time>2011-07-03T09:36:38.000Z</time>
      </trkpt>
      <trkpt lat="49.53216" lon="5.69141">
        <ele>281</ele>
        <time>2011-07-03T09:36:53.000Z</time>
      </trkpt>
      <trkpt lat="49.53215" lon="5.69137">
        <ele>281</ele>
        <time>2011-07-03T09:36:54.000Z</time>
      </trkpt>
      <trkpt lat="49.53215" lon="5.69133">
        <ele>281</ele>
        <time>2011-07-03T09:36:55.000Z</time>
      </trkpt>
      <trkpt lat="49.53209" lon="5.69108">
        <ele>279</ele>
        <time>2011-07-03T09:37:00.000Z</time>
      </trkpt>
      <trkpt lat="49.53197" lon="5.69082">
        <ele>279</ele>
        <time>2011-07-03T09:37:05.000Z</time>
      </trkpt>
      <trkpt lat="49.53185" lon="5.69069">
        <ele>279</ele>
        <time>2011-07-03T09:37:09.000Z</time>
      </trkpt>
      <trkpt lat="49.53175" lon="5.69064">
        <ele>279</ele>
        <time>2011-07-03T09:37:12.000Z</time>
      </trkpt>
      <trkpt lat="49.53131" lon="5.69042">
        <ele>285</ele>
        <time>2011-07-03T09:37:26.000Z</time>
      </trkpt>
      <trkpt lat="49.53111" lon="5.69038">
        <ele>285</ele>
        <time>2011-07-03T09:37:27.000Z</time>
      </trkpt>
      <trkpt lat="49.5308" lon="5.69031">
        <ele>287</ele>
        <time>2011-07-03T09:37:41.000Z</time>
      </trkpt>
      <trkpt lat="49.53077" lon="5.6903">
        <ele>287</ele>
        <time>2011-07-03T09:37:42.000Z</time>
      </trkpt>
      <trkpt lat="49.5307" lon="5.6903">
        <ele>287</ele>
        <time>2011-07-03T09:37:44.000Z</time>
      </trkpt>
      <trkpt lat="49.53061" lon="5.69028">
        <ele>287</ele>
        <time>2011-07-03T09:37:47.000Z</time>
      </trkpt>
      <trkpt lat="49.53038" lon="5.69023">
        <ele>289</ele>
        <time>2011-07-03T09:37:54.000Z</time>
      </trkpt>
      <trkpt lat="49.5299" lon="5.69016">
        <ele>305</ele>
        <time>2011-07-03T09:38:09.000Z</time>
      </trkpt>
      <trkpt lat="49.52988" lon="5.69016">
        <ele>305</ele>
        <time>2011-07-03T09:38:10.000Z</time>
      </trkpt>
      <trkpt lat="49.5297" lon="5.69013">
        <ele>310</ele>
        <time>2011-07-03T09:38:18.000Z</time>
      </trkpt>
      <trkpt lat="49.52921" lon="5.68996">
        <ele>305</ele>
        <time>2011-07-03T09:38:30.000Z</time>
      </trkpt>
      <trkpt lat="49.52913" lon="5.68994">
        <ele>304</ele>
        <time>2011-07-03T09:38:31.000Z</time>
      </trkpt>
      <trkpt lat="49.52862" lon="5.68982">
        <ele>297</ele>
        <time>2011-07-03T09:38:38.000Z</time>
      </trkpt>
      <trkpt lat="49.52855" lon="5.6898">
        <ele>296</ele>
        <time>2011-07-03T09:38:39.000Z</time>
      </trkpt>
      <trkpt lat="49.52813" lon="5.6897">
        <ele>293</ele>
        <time>2011-07-03T09:38:46.000Z</time>
      </trkpt>
      <trkpt lat="49.52809" lon="5.68969">
        <ele>293</ele>
        <time>2011-07-03T09:38:47.000Z</time>
      </trkpt>
      <trkpt lat="49.52761" lon="5.68966">
        <ele>299</ele>
        <time>2011-07-03T09:39:01.000Z</time>
      </trkpt>
      <trkpt lat="49.52757" lon="5.68967">
        <ele>300</ele>
        <time>2011-07-03T09:39:02.000Z</time>
      </trkpt>
      <trkpt lat="49.52714" lon="5.6899">
        <ele>300</ele>
        <time>2011-07-03T09:39:09.000Z</time>
      </trkpt>
      <trkpt lat="49.52707" lon="5.68991">
        <ele>300</ele>
        <time>2011-07-03T09:39:10.000Z</time>
      </trkpt>
      <trkpt lat="49.527" lon="5.68991">
        <ele>299</ele>
        <time>2011-07-03T09:39:11.000Z</time>
      </trkpt>
      <trkpt lat="49.52691" lon="5.68986">
        <ele>299</ele>
        <time>2011-07-03T09:39:13.000Z</time>
      </trkpt>
      <trkpt lat="49.52689" lon="5.68972">
        <ele>297</ele>
        <time>2011-07-03T09:39:16.000Z</time>
      </trkpt>
      <trkpt lat="49.52686" lon="5.68959">
        <ele>293</ele>
        <time>2011-07-03T09:39:20.000Z</time>
      </trkpt>
      <trkpt lat="49.52686" lon="5.68946">
        <ele>290</ele>
        <time>2011-07-03T09:39:23.000Z</time>
      </trkpt>
      <trkpt lat="49.52689" lon="5.68913">
        <ele>286</ele>
        <time>2011-07-03T09:39:29.000Z</time>
      </trkpt>
      <trkpt lat="49.52686" lon="5.6889">
        <ele>287</ele>
        <time>2011-07-03T09:39:36.000Z</time>
      </trkpt>
      <trkpt lat="49.52671" lon="5.6886">
        <ele>292</ele>
        <time>2011-07-03T09:39:46.000Z</time>
      </trkpt>
      <trkpt lat="49.5266" lon="5.68837">
        <ele>297</ele>
        <time>2011-07-03T09:39:54.000Z</time>
      </trkpt>
      <trkpt lat="49.52657" lon="5.6883">
        <ele>299</ele>
        <time>2011-07-03T09:39:56.000Z</time>
      </trkpt>
      <trkpt lat="49.52646" lon="5.68808">
        <ele>301</ele>
        <time>2011-07-03T09:40:09.000Z</time>
      </trkpt>
      <trkpt lat="49.52641" lon="5.68799">
        <ele>298</ele>
        <time>2011-07-03T09:40:22.000Z</time>
      </trkpt>
      <trkpt lat="49.5264" lon="5.68766">
        <ele>301</ele>
        <time>2011-07-03T09:40:45.000Z</time>
      </trkpt>
      <trkpt lat="49.52644" lon="5.68741">
        <ele>301</ele>
        <time>2011-07-03T09:40:57.000Z</time>
      </trkpt>
      <trkpt lat="49.52652" lon="5.68717">
        <ele>300</ele>
        <time>2011-07-03T09:41:05.000Z</time>
      </trkpt>
      <trkpt lat="49.5266" lon="5.68704">
        <ele>299</ele>
        <time>2011-07-03T09:41:09.000Z</time>
      </trkpt>
      <trkpt lat="49.52679" lon="5.68673">
        <ele>299</ele>
        <time>2011-07-03T09:41:16.000Z</time>
      </trkpt>
      <trkpt lat="49.52685" lon="5.68663">
        <ele>299</ele>
        <time>2011-07-03T09:41:18.000Z</time>
      </trkpt>
      <trkpt lat="49.52693" lon="5.68646">
        <ele>299</ele>
        <time>2011-07-03T09:41:21.000Z</time>
      </trkpt>
      <trkpt lat="49.52715" lon="5.68604">
        <ele>299</ele>
        <time>2011-07-03T09:41:29.000Z</time>
      </trkpt>
      <trkpt lat="49.52724" lon="5.68579">
        <ele>299</ele>
        <time>2011-07-03T09:41:34.000Z</time>
      </trkpt>
      <trkpt lat="49.52729" lon="5.68563">
        <ele>300</ele>
        <time>2011-07-03T09:41:39.000Z</time>
      </trkpt>
      <trkpt lat="49.52732" lon="5.68547">
        <ele>302</ele>
        <time>2011-07-03T09:41:45.000Z</time>
      </trkpt>
      <trkpt lat="49.52751" lon="5.68515">
        <ele>304</ele>
        <time>2011-07-03T09:41:58.000Z</time>
      </trkpt>
      <trkpt lat="49.52759" lon="5.68507">
        <ele>304</ele>
        <time>2011-07-03T09:42:01.000Z</time>
      </trkpt>
      <trkpt lat="49.52767" lon="5.68499">
        <ele>305</ele>
        <time>2011-07-03T09:42:04.000Z</time>
      </trkpt>
      <trkpt lat="49.52784" lon="5.6846">
        <ele>308</ele>
        <time>2011-07-03T09:42:14.000Z</time>
      </trkpt>
      <trkpt lat="49.52787" lon="5.68453">
        <ele>308</ele>
        <time>2011-07-03T09:42:16.000Z</time>
      </trkpt>
      <trkpt lat="49.52796" lon="5.68445">
        <ele>309</ele>
        <time>2011-07-03T09:42:20.000Z</time>
      </trkpt>
      <trkpt lat="49.52806" lon="5.6844">
        <ele>309</ele>
        <time>2011-07-03T09:42:24.000Z</time>
      </trkpt>
      <trkpt lat="49.52824" lon="5.6842">
        <ele>312</ele>
        <time>2011-07-03T09:42:32.000Z</time>
      </trkpt>
      <trkpt lat="49.52847" lon="5.68411">
        <ele>315</ele>
        <time>2011-07-03T09:42:41.000Z</time>
      </trkpt>
      <trkpt lat="49.52863" lon="5.68386">
        <ele>317</ele>
        <time>2011-07-03T09:42:50.000Z</time>
      </trkpt>
      <trkpt lat="49.52879" lon="5.68325">
        <ele>320</ele>
        <time>2011-07-03T09:43:10.000Z</time>
      </trkpt>
      <trkpt lat="49.5288" lon="5.68316">
        <ele>320</ele>
        <time>2011-07-03T09:43:13.000Z</time>
      </trkpt>
      <trkpt lat="49.52879" lon="5.68286">
        <ele>323</ele>
        <time>2011-07-03T09:43:25.000Z</time>
      </trkpt>
      <trkpt lat="49.52878" lon="5.68278">
        <ele>324</ele>
        <time>2011-07-03T09:43:29.000Z</time>
      </trkpt>
      <trkpt lat="49.52873" lon="5.68217">
        <ele>331</ele>
        <time>2011-07-03T09:43:59.000Z</time>
      </trkpt>
      <trkpt lat="49.52873" lon="5.68209">
        <ele>330</ele>
        <time>2011-07-03T09:44:03.000Z</time>
      </trkpt>
      <trkpt lat="49.52874" lon="5.68196">
        <ele>331</ele>
        <time>2011-07-03T09:44:10.000Z</time>
      </trkpt>
      <trkpt lat="49.52878" lon="5.68187">
        <ele>331</ele>
        <time>2011-07-03T09:44:16.000Z</time>
      </trkpt>
      <trkpt lat="49.52887" lon="5.68168">
        <ele>334</ele>
        <time>2011-07-03T09:44:25.000Z</time>
      </trkpt>
      <trkpt lat="49.52914" lon="5.6812">
        <ele>331</ele>
        <time>2011-07-03T09:44:39.000Z</time>
      </trkpt>
      <trkpt lat="49.52922" lon="5.68117">
        <ele>331</ele>
        <time>2011-07-03T09:44:42.000Z</time>
      </trkpt>
      <trkpt lat="49.52934" lon="5.68118">
        <ele>331</ele>
        <time>2011-07-03T09:44:45.000Z</time>
      </trkpt>
      <trkpt lat="49.52952" lon="5.68124">
        <ele>331</ele>
        <time>2011-07-03T09:44:49.000Z</time>
      </trkpt>
      <trkpt lat="49.52964" lon="5.68115">
        <ele>331</ele>
        <time>2011-07-03T09:44:52.000Z</time>
      </trkpt>
      <trkpt lat="49.52995" lon="5.68056">
        <ele>327</ele>
        <time>2011-07-03T09:45:02.000Z</time>
      </trkpt>
      <trkpt lat="49.52998" lon="5.68049">
        <ele>327</ele>
        <time>2011-07-03T09:45:03.000Z</time>
      </trkpt>
      <trkpt lat="49.53016" lon="5.67999">
        <ele>327</ele>
        <time>2011-07-03T09:45:10.000Z</time>
      </trkpt>
      <trkpt lat="49.53027" lon="5.67931">
        <ele>323</ele>
        <time>2011-07-03T09:45:19.000Z</time>
      </trkpt>
      <trkpt lat="49.53028" lon="5.67924">
        <ele>322</ele>
        <time>2011-07-03T09:45:20.000Z</time>
      </trkpt>
      <trkpt lat="49.53035" lon="5.67874">
        <ele>323</ele>
        <time>2011-07-03T09:45:27.000Z</time>
      </trkpt>
      <trkpt lat="49.53036" lon="5.67844">
        <ele>325</ele>
        <time>2011-07-03T09:45:32.000Z</time>
      </trkpt>
      <trkpt lat="49.53036" lon="5.67831">
        <ele>327</ele>
        <time>2011-07-03T09:45:35.000Z</time>
      </trkpt>
      <trkpt lat="49.53034" lon="5.67796">
        <ele>337</ele>
        <time>2011-07-03T09:45:45.000Z</time>
      </trkpt>
      <trkpt lat="49.53036" lon="5.67785">
        <ele>339</ele>
        <time>2011-07-03T09:45:50.000Z</time>
      </trkpt>
      <trkpt lat="49.5304" lon="5.67778">
        <ele>340</ele>
        <time>2011-07-03T09:45:54.000Z</time>
      </trkpt>
      <trkpt lat="49.5305" lon="5.67764">
        <ele>342</ele>
        <time>2011-07-03T09:46:03.000Z</time>
      </trkpt>
      <trkpt lat="49.53056" lon="5.67756">
        <ele>342</ele>
        <time>2011-07-03T09:46:07.000Z</time>
      </trkpt>
      <trkpt lat="49.53061" lon="5.67749">
        <ele>342</ele>
        <time>2011-07-03T09:46:11.000Z</time>
      </trkpt>
      <trkpt lat="49.53069" lon="5.67739">
        <ele>344</ele>
        <time>2011-07-03T09:46:17.000Z</time>
      </trkpt>
      <trkpt lat="49.53083" lon="5.67727">
        <ele>344</ele>
        <time>2011-07-03T09:46:26.000Z</time>
      </trkpt>
      <trkpt lat="49.53102" lon="5.67712">
        <ele>349</ele>
        <time>2011-07-03T09:46:38.000Z</time>
      </trkpt>
      <trkpt lat="49.53108" lon="5.67702">
        <ele>349</ele>
        <time>2011-07-03T09:46:44.000Z</time>
      </trkpt>
      <trkpt lat="49.53112" lon="5.67689">
        <ele>349</ele>
        <time>2011-07-03T09:46:50.000Z</time>
      </trkpt>
      <trkpt lat="49.53112" lon="5.6768">
        <ele>349</ele>
        <time>2011-07-03T09:46:55.000Z</time>
      </trkpt>
      <trkpt lat="49.53111" lon="5.6767">
        <ele>350</ele>
        <time>2011-07-03T09:47:01.000Z</time>
      </trkpt>
      <trkpt lat="49.53109" lon="5.67665">
        <ele>355</ele>
        <time>2011-07-03T09:47:08.000Z</time>
      </trkpt>
      <trkpt lat="49.53084" lon="5.67652">
        <ele>358</ele>
        <time>2011-07-03T09:47:31.000Z</time>
      </trkpt>
      <trkpt lat="49.53078" lon="5.67649">
        <ele>356</ele>
        <time>2011-07-03T09:47:36.000Z</time>
      </trkpt>
      <trkpt lat="49.53068" lon="5.67646">
        <ele>361</ele>
        <time>2011-07-03T09:47:44.000Z</time>
      </trkpt>
      <trkpt lat="49.53059" lon="5.67643">
        <ele>357</ele>
        <time>2011-07-03T09:47:55.000Z</time>
      </trkpt>
      <trkpt lat="49.53051" lon="5.67641">
        <ele>366</ele>
        <time>2011-07-03T09:48:06.000Z</time>
      </trkpt>
      <trkpt lat="49.53043" lon="5.67639">
        <ele>377</ele>
        <time>2011-07-03T09:48:13.000Z</time>
      </trkpt>
      <trkpt lat="49.53025" lon="5.6763">
        <ele>391</ele>
        <time>2011-07-03T09:48:30.000Z</time>
      </trkpt>
      <trkpt lat="49.52996" lon="5.6762">
        <ele>381</ele>
        <time>2011-07-03T09:48:56.000Z</time>
      </trkpt>
      <trkpt lat="49.5299" lon="5.67618">
        <ele>384</ele>
        <time>2011-07-03T09:49:02.000Z</time>
      </trkpt>
      <trkpt lat="49.52969" lon="5.67618">
        <ele>385</ele>
        <time>2011-07-03T09:49:14.000Z</time>
      </trkpt>
      <trkpt lat="49.52937" lon="5.67623">
        <ele>374</ele>
        <time>2011-07-03T09:49:30.000Z</time>
      </trkpt>
      <trkpt lat="49.52896" lon="5.67644">
        <ele>381</ele>
        <time>2011-07-03T09:49:51.000Z</time>
      </trkpt>
      <trkpt lat="49.52887" lon="5.67651">
        <ele>378</ele>
        <time>2011-07-03T09:49:57.000Z</time>
      </trkpt>
      <trkpt lat="49.52878" lon="5.67658">
        <ele>377</ele>
        <time>2011-07-03T09:50:02.000Z</time>
      </trkpt>
      <trkpt lat="49.52871" lon="5.67665">
        <ele>380</ele>
        <time>2011-07-03T09:50:07.000Z</time>
      </trkpt>
      <trkpt lat="49.52856" lon="5.67672">
        <ele>379</ele>
        <time>2011-07-03T09:50:15.000Z</time>
      </trkpt>
      <trkpt lat="49.52845" lon="5.67675">
        <ele>378</ele>
        <time>2011-07-03T09:50:21.000Z</time>
      </trkpt>
      <trkpt lat="49.52827" lon="5.67688">
        <ele>378</ele>
        <time>2011-07-03T09:50:31.000Z</time>
      </trkpt>
      <trkpt lat="49.52821" lon="5.67693">
        <ele>383</ele>
        <time>2011-07-03T09:50:35.000Z</time>
      </trkpt>
      <trkpt lat="49.52812" lon="5.67696">
        <ele>390</ele>
        <time>2011-07-03T09:50:39.000Z</time>
      </trkpt>
      <trkpt lat="49.52801" lon="5.67711">
        <ele>399</ele>
        <time>2011-07-03T09:50:47.000Z</time>
      </trkpt>
      <trkpt lat="49.52796" lon="5.67718">
        <ele>400</ele>
        <time>2011-07-03T09:50:50.000Z</time>
      </trkpt>
      <trkpt lat="49.52782" lon="5.67734">
        <ele>400</ele>
        <time>2011-07-03T09:50:56.000Z</time>
      </trkpt>
      <trkpt lat="49.52771" lon="5.67741">
        <ele>398</ele>
        <time>2011-07-03T09:51:00.000Z</time>
      </trkpt>
      <trkpt lat="49.52751" lon="5.67739">
        <ele>392</ele>
        <time>2011-07-03T09:51:07.000Z</time>
      </trkpt>
      <trkpt lat="49.52743" lon="5.6773">
        <ele>390</ele>
        <time>2011-07-03T09:51:11.000Z</time>
      </trkpt>
      <trkpt lat="49.52722" lon="5.67705">
        <ele>397</ele>
        <time>2011-07-03T09:51:20.000Z</time>
      </trkpt>
      <trkpt lat="49.52713" lon="5.67691">
        <ele>402</ele>
        <time>2011-07-03T09:51:26.000Z</time>
      </trkpt>
      <trkpt lat="49.52708" lon="5.67687">
        <ele>404</ele>
        <time>2011-07-03T09:51:28.000Z</time>
      </trkpt>
      <trkpt lat="49.52682" lon="5.67669">
        <ele>407</ele>
        <time>2011-07-03T09:51:36.000Z</time>
      </trkpt>
      <trkpt lat="49.52672" lon="5.67664">
        <ele>407</ele>
        <time>2011-07-03T09:51:40.000Z</time>
      </trkpt>
      <trkpt lat="49.52664" lon="5.67656">
        <ele>406</ele>
        <time>2011-07-03T09:51:43.000Z</time>
      </trkpt>
      <trkpt lat="49.52657" lon="5.67649">
        <ele>405</ele>
        <time>2011-07-03T09:51:46.000Z</time>
      </trkpt>
      <trkpt lat="49.5263" lon="5.6763">
        <ele>404</ele>
        <time>2011-07-03T09:51:55.000Z</time>
      </trkpt>
      <trkpt lat="49.52621" lon="5.67626">
        <ele>403</ele>
        <time>2011-07-03T09:51:58.000Z</time>
      </trkpt>
      <trkpt lat="49.52597" lon="5.67617">
        <ele>407</ele>
        <time>2011-07-03T09:52:05.000Z</time>
      </trkpt>
      <trkpt lat="49.52578" lon="5.67607">
        <ele>409</ele>
        <time>2011-07-03T09:52:11.000Z</time>
      </trkpt>
      <trkpt lat="49.52571" lon="5.67597">
        <ele>411</ele>
        <time>2011-07-03T09:52:15.000Z</time>
      </trkpt>
      <trkpt lat="49.52572" lon="5.67578">
        <ele>412</ele>
        <time>2011-07-03T09:52:21.000Z</time>
      </trkpt>
      <trkpt lat="49.52573" lon="5.67568">
        <ele>412</ele>
        <time>2011-07-03T09:52:24.000Z</time>
      </trkpt>
      <trkpt lat="49.52578" lon="5.67552">
        <ele>412</ele>
        <time>2011-07-03T09:52:28.000Z</time>
      </trkpt>
      <trkpt lat="49.52582" lon="5.6754">
        <ele>412</ele>
        <time>2011-07-03T09:52:31.000Z</time>
      </trkpt>
      <trkpt lat="49.52597" lon="5.67505">
        <ele>413</ele>
        <time>2011-07-03T09:52:38.000Z</time>
      </trkpt>
      <trkpt lat="49.52601" lon="5.67485">
        <ele>412</ele>
        <time>2011-07-03T09:52:42.000Z</time>
      </trkpt>
      <trkpt lat="49.52611" lon="5.6746">
        <ele>408</ele>
        <time>2011-07-03T09:52:47.000Z</time>
      </trkpt>
      <trkpt lat="49.52623" lon="5.6743">
        <ele>401</ele>
        <time>2011-07-03T09:52:53.000Z</time>
      </trkpt>
      <trkpt lat="49.52651" lon="5.67394">
        <ele>398</ele>
        <time>2011-07-03T09:53:02.000Z</time>
      </trkpt>
      <trkpt lat="49.5266" lon="5.67385">
        <ele>399</ele>
        <time>2011-07-03T09:53:05.000Z</time>
      </trkpt>
      <trkpt lat="49.52665" lon="5.67378">
        <ele>400</ele>
        <time>2011-07-03T09:53:07.000Z</time>
      </trkpt>
      <trkpt lat="49.52674" lon="5.67367">
        <ele>401</ele>
        <time>2011-07-03T09:53:11.000Z</time>
      </trkpt>
      <trkpt lat="49.52678" lon="5.67353">
        <ele>400</ele>
        <time>2011-07-03T09:53:15.000Z</time>
      </trkpt>
      <trkpt lat="49.52679" lon="5.67346">
        <ele>401</ele>
        <time>2011-07-03T09:53:17.000Z</time>
      </trkpt>
      <trkpt lat="49.52682" lon="5.67323">
        <ele>403</ele>
        <time>2011-07-03T09:53:21.000Z</time>
      </trkpt>
      <trkpt lat="49.52668" lon="5.67263">
        <ele>409</ele>
        <time>2011-07-03T09:53:33.000Z</time>
      </trkpt>
      <trkpt lat="49.52661" lon="5.67251">
        <ele>410</ele>
        <time>2011-07-03T09:53:36.000Z</time>
      </trkpt>
      <trkpt lat="49.52633" lon="5.67228">
        <ele>412</ele>
        <time>2011-07-03T09:53:46.000Z</time>
      </trkpt>
      <trkpt lat="49.52623" lon="5.67222">
        <ele>413</ele>
        <time>2011-07-03T09:53:49.000Z</time>
      </trkpt>
      <trkpt lat="49.52613" lon="5.67203">
        <ele>411</ele>
        <time>2011-07-03T09:53:54.000Z</time>
      </trkpt>
      <trkpt lat="49.5261" lon="5.67193">
        <ele>409</ele>
        <time>2011-07-03T09:53:56.000Z</time>
      </trkpt>
      <trkpt lat="49.52606" lon="5.67182">
        <ele>407</ele>
        <time>2011-07-03T09:53:59.000Z</time>
      </trkpt>
      <trkpt lat="49.526" lon="5.67175">
        <ele>405</ele>
        <time>2011-07-03T09:54:02.000Z</time>
      </trkpt>
      <trkpt lat="49.52579" lon="5.6717">
        <ele>403</ele>
        <time>2011-07-03T09:54:09.000Z</time>
      </trkpt>
      <trkpt lat="49.52542" lon="5.67121">
        <ele>405</ele>
        <time>2011-07-03T09:54:19.000Z</time>
      </trkpt>
      <trkpt lat="49.52538" lon="5.67116">
        <ele>406</ele>
        <time>2011-07-03T09:54:20.000Z</time>
      </trkpt>
      <trkpt lat="49.52528" lon="5.67098">
        <ele>409</ele>
        <time>2011-07-03T09:54:23.000Z</time>
      </trkpt>
      <trkpt lat="49.52522" lon="5.67075">
        <ele>412</ele>
        <time>2011-07-03T09:54:26.000Z</time>
      </trkpt>
      <trkpt lat="49.5252" lon="5.67062">
        <ele>413</ele>
        <time>2011-07-03T09:54:28.000Z</time>
      </trkpt>
      <trkpt lat="49.52513" lon="5.67034">
        <ele>414</ele>
        <time>2011-07-03T09:54:32.000Z</time>
      </trkpt>
      <trkpt lat="49.52513" lon="5.67025">
        <ele>415</ele>
        <time>2011-07-03T09:54:34.000Z</time>
      </trkpt>
      <trkpt lat="49.52518" lon="5.67018">
        <ele>415</ele>
        <time>2011-07-03T09:54:38.000Z</time>
      </trkpt>
      <trkpt lat="49.52534" lon="5.67002">
        <ele>415</ele>
        <time>2011-07-03T09:54:44.000Z</time>
      </trkpt>
      <trkpt lat="49.52575" lon="5.66979">
        <ele>419</ele>
        <time>2011-07-03T09:54:55.000Z</time>
      </trkpt>
      <trkpt lat="49.52578" lon="5.66976">
        <ele>419</ele>
        <time>2011-07-03T09:54:56.000Z</time>
      </trkpt>
      <trkpt lat="49.52592" lon="5.66966">
        <ele>415</ele>
        <time>2011-07-03T09:55:00.000Z</time>
      </trkpt>
      <trkpt lat="49.52614" lon="5.66948">
        <ele>410</ele>
        <time>2011-07-03T09:55:07.000Z</time>
      </trkpt>
      <trkpt lat="49.52626" lon="5.66937">
        <ele>410</ele>
        <time>2011-07-03T09:55:11.000Z</time>
      </trkpt>
      <trkpt lat="49.52646" lon="5.6692">
        <ele>408</ele>
        <time>2011-07-03T09:55:16.000Z</time>
      </trkpt>
      <trkpt lat="49.52637" lon="5.6687">
        <ele>406</ele>
        <time>2011-07-03T09:55:24.000Z</time>
      </trkpt>
      <trkpt lat="49.52621" lon="5.66805">
        <ele>395</ele>
        <time>2011-07-03T09:55:33.000Z</time>
      </trkpt>
      <trkpt lat="49.5262" lon="5.66796">
        <ele>394</ele>
        <time>2011-07-03T09:55:34.000Z</time>
      </trkpt>
      <trkpt lat="49.52604" lon="5.66727">
        <ele>385</ele>
        <time>2011-07-03T09:55:42.000Z</time>
      </trkpt>
      <trkpt lat="49.52602" lon="5.66719">
        <ele>384</ele>
        <time>2011-07-03T09:55:43.000Z</time>
      </trkpt>
      <trkpt lat="49.52588" lon="5.66672">
        <ele>382</ele>
        <time>2011-07-03T09:55:48.000Z</time>
      </trkpt>
      <trkpt lat="49.52584" lon="5.66645">
        <ele>382</ele>
        <time>2011-07-03T09:55:52.000Z</time>
      </trkpt>
      <trkpt lat="49.52585" lon="5.66636">
        <ele>384</ele>
        <time>2011-07-03T09:55:55.000Z</time>
      </trkpt>
      <trkpt lat="49.52603" lon="5.66613">
        <ele>383</ele>
        <time>2011-07-03T09:56:04.000Z</time>
      </trkpt>
      <trkpt lat="49.5262" lon="5.66595">
        <ele>381</ele>
        <time>2011-07-03T09:56:09.000Z</time>
      </trkpt>
      <trkpt lat="49.52669" lon="5.66562">
        <ele>380</ele>
        <time>2011-07-03T09:56:16.000Z</time>
      </trkpt>
      <trkpt lat="49.52678" lon="5.66557">
        <ele>380</ele>
        <time>2011-07-03T09:56:17.000Z</time>
      </trkpt>
      <trkpt lat="49.52724" lon="5.6653">
        <ele>382</ele>
        <time>2011-07-03T09:56:22.000Z</time>
      </trkpt>
      <trkpt lat="49.52732" lon="5.66526">
        <ele>382</ele>
        <time>2011-07-03T09:56:23.000Z</time>
      </trkpt>
      <trkpt lat="49.52778" lon="5.66495">
        <ele>385</ele>
        <time>2011-07-03T09:56:31.000Z</time>
      </trkpt>
      <trkpt lat="49.52783" lon="5.66492">
        <ele>386</ele>
        <time>2011-07-03T09:56:32.000Z</time>
      </trkpt>
      <trkpt lat="49.52826" lon="5.66461">
        <ele>387</ele>
        <time>2011-07-03T09:56:40.000Z</time>
      </trkpt>
      <trkpt lat="49.5283" lon="5.66458">
        <ele>387</ele>
        <time>2011-07-03T09:56:41.000Z</time>
      </trkpt>
      <trkpt lat="49.52876" lon="5.66433">
        <ele>390</ele>
        <time>2011-07-03T09:56:51.000Z</time>
      </trkpt>
      <trkpt lat="49.52881" lon="5.66429">
        <ele>390</ele>
        <time>2011-07-03T09:56:52.000Z</time>
      </trkpt>
      <trkpt lat="49.52922" lon="5.664">
        <ele>388</ele>
        <time>2011-07-03T09:57:01.000Z</time>
      </trkpt>
      <trkpt lat="49.52926" lon="5.66397">
        <ele>388</ele>
        <time>2011-07-03T09:57:02.000Z</time>
      </trkpt>
      <trkpt lat="49.52969" lon="5.66367">
        <ele>390</ele>
        <time>2011-07-03T09:57:09.000Z</time>
      </trkpt>
      <trkpt lat="49.52974" lon="5.66363">
        <ele>391</ele>
        <time>2011-07-03T09:57:10.000Z</time>
      </trkpt>
      <trkpt lat="49.5302" lon="5.66336">
        <ele>391</ele>
        <time>2011-07-03T09:57:19.000Z</time>
      </trkpt>
      <trkpt lat="49.53025" lon="5.66334">
        <ele>390</ele>
        <time>2011-07-03T09:57:20.000Z</time>
      </trkpt>
      <trkpt lat="49.53069" lon="5.6631">
        <ele>391</ele>
        <time>2011-07-03T09:57:31.000Z</time>
      </trkpt>
      <trkpt lat="49.53072" lon="5.66307">
        <ele>391</ele>
        <time>2011-07-03T09:57:32.000Z</time>
      </trkpt>
      <trkpt lat="49.53117" lon="5.66284">
        <ele>395</ele>
        <time>2011-07-03T09:57:44.000Z</time>
      </trkpt>
      <trkpt lat="49.5312" lon="5.66282">
        <ele>395</ele>
        <time>2011-07-03T09:57:45.000Z</time>
      </trkpt>
      <trkpt lat="49.53132" lon="5.66273">
        <ele>396</ele>
        <time>2011-07-03T09:57:49.000Z</time>
      </trkpt>
      <trkpt lat="49.53177" lon="5.66242">
        <ele>403</ele>
        <time>2011-07-03T09:58:00.000Z</time>
      </trkpt>
      <trkpt lat="49.53183" lon="5.66238">
        <ele>403</ele>
        <time>2011-07-03T09:58:01.000Z</time>
      </trkpt>
      <trkpt lat="49.53225" lon="5.6621">
        <ele>404</ele>
        <time>2011-07-03T09:58:10.000Z</time>
      </trkpt>
      <trkpt lat="49.53229" lon="5.66206">
        <ele>404</ele>
        <time>2011-07-03T09:58:11.000Z</time>
      </trkpt>
      <trkpt lat="49.53247" lon="5.66187">
        <ele>403</ele>
        <time>2011-07-03T09:58:15.000Z</time>
      </trkpt>
      <trkpt lat="49.5327" lon="5.66148">
        <ele>398</ele>
        <time>2011-07-03T09:58:20.000Z</time>
      </trkpt>
      <trkpt lat="49.533" lon="5.66091">
        <ele>389</ele>
        <time>2011-07-03T09:58:26.000Z</time>
      </trkpt>
      <trkpt lat="49.53305" lon="5.66082">
        <ele>388</ele>
        <time>2011-07-03T09:58:27.000Z</time>
      </trkpt>
      <trkpt lat="49.53335" lon="5.66022">
        <ele>383</ele>
        <time>2011-07-03T09:58:34.000Z</time>
      </trkpt>
      <trkpt lat="49.53338" lon="5.66014">
        <ele>384</ele>
        <time>2011-07-03T09:58:35.000Z</time>
      </trkpt>
      <trkpt lat="49.53368" lon="5.65953">
        <ele>384</ele>
        <time>2011-07-03T09:58:43.000Z</time>
      </trkpt>
      <trkpt lat="49.53373" lon="5.65947">
        <ele>385</ele>
        <time>2011-07-03T09:58:44.000Z</time>
      </trkpt>
      <trkpt lat="49.53403" lon="5.65891">
        <ele>386</ele>
        <time>2011-07-03T09:58:52.000Z</time>
      </trkpt>
      <trkpt lat="49.53406" lon="5.65883">
        <ele>386</ele>
        <time>2011-07-03T09:58:53.000Z</time>
      </trkpt>
      <trkpt lat="49.53411" lon="5.65868">
        <ele>386</ele>
        <time>2011-07-03T09:58:55.000Z</time>
      </trkpt>
      <trkpt lat="49.53424" lon="5.65814">
        <ele>390</ele>
        <time>2011-07-03T09:59:04.000Z</time>
      </trkpt>
      <trkpt lat="49.53423" lon="5.658">
        <ele>395</ele>
        <time>2011-07-03T09:59:08.000Z</time>
      </trkpt>
      <trkpt lat="49.53408" lon="5.65786">
        <ele>399</ele>
        <time>2011-07-03T09:59:13.000Z</time>
      </trkpt>
      <trkpt lat="49.53394" lon="5.65781">
        <ele>399</ele>
        <time>2011-07-03T09:59:17.000Z</time>
      </trkpt>
      <trkpt lat="49.53372" lon="5.65771">
        <ele>396</ele>
        <time>2011-07-03T09:59:23.000Z</time>
      </trkpt>
      <trkpt lat="49.53354" lon="5.65756">
        <ele>391</ele>
        <time>2011-07-03T09:59:27.000Z</time>
      </trkpt>
      <trkpt lat="49.53342" lon="5.65736">
        <ele>387</ele>
        <time>2011-07-03T09:59:30.000Z</time>
      </trkpt>
      <trkpt lat="49.53341" lon="5.65723">
        <ele>384</ele>
        <time>2011-07-03T09:59:32.000Z</time>
      </trkpt>
      <trkpt lat="49.53339" lon="5.65712">
        <ele>382</ele>
        <time>2011-07-03T09:59:34.000Z</time>
      </trkpt>
      <trkpt lat="49.53334" lon="5.65709">
        <ele>380</ele>
        <time>2011-07-03T09:59:36.000Z</time>
      </trkpt>
      <trkpt lat="49.5329" lon="5.65731">
        <ele>377</ele>
        <time>2011-07-03T09:59:44.000Z</time>
      </trkpt>
      <trkpt lat="49.53285" lon="5.65735">
        <ele>377</ele>
        <time>2011-07-03T09:59:45.000Z</time>
      </trkpt>
      <trkpt lat="49.53276" lon="5.65744">
        <ele>375</ele>
        <time>2011-07-03T09:59:47.000Z</time>
      </trkpt>
      <trkpt lat="49.53254" lon="5.65767">
        <ele>370</ele>
        <time>2011-07-03T09:59:56.000Z</time>
      </trkpt>
      <trkpt lat="49.53223" lon="5.65759">
        <ele>362</ele>
        <time>2011-07-03T10:00:02.000Z</time>
      </trkpt>
      <trkpt lat="49.53212" lon="5.65752">
        <ele>356</ele>
        <time>2011-07-03T10:00:06.000Z</time>
      </trkpt>
      <trkpt lat="49.5321" lon="5.65746">
        <ele>353</ele>
        <time>2011-07-03T10:00:08.000Z</time>
      </trkpt>
      <trkpt lat="49.53212" lon="5.65726">
        <ele>349</ele>
        <time>2011-07-03T10:00:11.000Z</time>
      </trkpt>
      <trkpt lat="49.53214" lon="5.65705">
        <ele>347</ele>
        <time>2011-07-03T10:00:13.000Z</time>
      </trkpt>
      <trkpt lat="49.53207" lon="5.65629">
        <ele>341</ele>
        <time>2011-07-03T10:00:18.000Z</time>
      </trkpt>
      <trkpt lat="49.53207" lon="5.65614">
        <ele>340</ele>
        <time>2011-07-03T10:00:19.000Z</time>
      </trkpt>
      <trkpt lat="49.53199" lon="5.65536">
        <ele>333</ele>
        <time>2011-07-03T10:00:24.000Z</time>
      </trkpt>
      <trkpt lat="49.53196" lon="5.65522">
        <ele>331</ele>
        <time>2011-07-03T10:00:25.000Z</time>
      </trkpt>
      <trkpt lat="49.53172" lon="5.65451">
        <ele>322</ele>
        <time>2011-07-03T10:00:31.000Z</time>
      </trkpt>
      <trkpt lat="49.53168" lon="5.65439">
        <ele>320</ele>
        <time>2011-07-03T10:00:32.000Z</time>
      </trkpt>
      <trkpt lat="49.53147" lon="5.65366">
        <ele>311</ele>
        <time>2011-07-03T10:00:37.000Z</time>
      </trkpt>
      <trkpt lat="49.53141" lon="5.65352">
        <ele>310</ele>
        <time>2011-07-03T10:00:38.000Z</time>
      </trkpt>
      <trkpt lat="49.53119" lon="5.65288">
        <ele>304</ele>
        <time>2011-07-03T10:00:43.000Z</time>
      </trkpt>
      <trkpt lat="49.53114" lon="5.65275">
        <ele>303</ele>
        <time>2011-07-03T10:00:44.000Z</time>
      </trkpt>
      <trkpt lat="49.53103" lon="5.65247">
        <ele>300</ele>
        <time>2011-07-03T10:00:47.000Z</time>
      </trkpt>
      <trkpt lat="49.53094" lon="5.65229">
        <ele>296</ele>
        <time>2011-07-03T10:00:52.000Z</time>
      </trkpt>
      <trkpt lat="49.53087" lon="5.65225">
        <ele>295</ele>
        <time>2011-07-03T10:00:54.000Z</time>
      </trkpt>
      <trkpt lat="49.53073" lon="5.65227">
        <ele>293</ele>
        <time>2011-07-03T10:00:57.000Z</time>
      </trkpt>
      <trkpt lat="49.53057" lon="5.65228">
        <ele>289</ele>
        <time>2011-07-03T10:01:02.000Z</time>
      </trkpt>
      <trkpt lat="49.53053" lon="5.65224">
        <ele>288</ele>
        <time>2011-07-03T10:01:04.000Z</time>
      </trkpt>
      <trkpt lat="49.53045" lon="5.65214">
        <ele>285</ele>
        <time>2011-07-03T10:01:08.000Z</time>
      </trkpt>
      <trkpt lat="49.53036" lon="5.65174">
        <ele>282</ele>
        <time>2011-07-03T10:01:18.000Z</time>
      </trkpt>
      <trkpt lat="49.53035" lon="5.65165">
        <ele>283</ele>
        <time>2011-07-03T10:01:20.000Z</time>
      </trkpt>
      <trkpt lat="49.53028" lon="5.65148">
        <ele>285</ele>
        <time>2011-07-03T10:01:23.000Z</time>
      </trkpt>
      <trkpt lat="49.52999" lon="5.65094">
        <ele>287</ele>
        <time>2011-07-03T10:01:33.000Z</time>
      </trkpt>
      <trkpt lat="49.52996" lon="5.6509">
        <ele>287</ele>
        <time>2011-07-03T10:01:34.000Z</time>
      </trkpt>
      <trkpt lat="49.52987" lon="5.65069">
        <ele>288</ele>
        <time>2011-07-03T10:01:40.000Z</time>
      </trkpt>
      <trkpt lat="49.52988" lon="5.65039">
        <ele>287</ele>
        <time>2011-07-03T10:01:46.000Z</time>
      </trkpt>
      <trkpt lat="49.52989" lon="5.65028">
        <ele>287</ele>
        <time>2011-07-03T10:01:48.000Z</time>
      </trkpt>
      <trkpt lat="49.52991" lon="5.64998">
        <ele>287</ele>
        <time>2011-07-03T10:01:53.000Z</time>
      </trkpt>
      <trkpt lat="49.52977" lon="5.64927">
        <ele>288</ele>
        <time>2011-07-03T10:02:03.000Z</time>
      </trkpt>
      <trkpt lat="49.52976" lon="5.64922">
        <ele>288</ele>
        <time>2011-07-03T10:02:04.000Z</time>
      </trkpt>
      <trkpt lat="49.5297" lon="5.64907">
        <ele>287</ele>
        <time>2011-07-03T10:02:08.000Z</time>
      </trkpt>
      <trkpt lat="49.52955" lon="5.64914">
        <ele>286</ele>
        <time>2011-07-03T10:02:11.000Z</time>
      </trkpt>
      <trkpt lat="49.52947" lon="5.64914">
        <ele>286</ele>
        <time>2011-07-03T10:02:13.000Z</time>
      </trkpt>
      <trkpt lat="49.52941" lon="5.64907">
        <ele>286</ele>
        <time>2011-07-03T10:02:15.000Z</time>
      </trkpt>
      <trkpt lat="49.52938" lon="5.64887">
        <ele>284</ele>
        <time>2011-07-03T10:02:18.000Z</time>
      </trkpt>
      <trkpt lat="49.5294" lon="5.64809">
        <ele>279</ele>
        <time>2011-07-03T10:02:27.000Z</time>
      </trkpt>
      <trkpt lat="49.52939" lon="5.648">
        <ele>279</ele>
        <time>2011-07-03T10:02:28.000Z</time>
      </trkpt>
      <trkpt lat="49.52936" lon="5.64783">
        <ele>278</ele>
        <time>2011-07-03T10:02:30.000Z</time>
      </trkpt>
      <trkpt lat="49.52926" lon="5.64711">
        <ele>276</ele>
        <time>2011-07-03T10:02:38.000Z</time>
      </trkpt>
      <trkpt lat="49.52925" lon="5.64701">
        <ele>275</ele>
        <time>2011-07-03T10:02:39.000Z</time>
      </trkpt>
      <trkpt lat="49.52915" lon="5.64628">
        <ele>276</ele>
        <time>2011-07-03T10:02:47.000Z</time>
      </trkpt>
      <trkpt lat="49.52915" lon="5.64618">
        <ele>276</ele>
        <time>2011-07-03T10:02:48.000Z</time>
      </trkpt>
      <trkpt lat="49.52907" lon="5.64541">
        <ele>277</ele>
        <time>2011-07-03T10:02:56.000Z</time>
      </trkpt>
      <trkpt lat="49.52907" lon="5.64533">
        <ele>277</ele>
        <time>2011-07-03T10:02:57.000Z</time>
      </trkpt>
      <trkpt lat="49.52907" lon="5.64508">
        <ele>276</ele>
        <time>2011-07-03T10:03:00.000Z</time>
      </trkpt>
      <trkpt lat="49.52908" lon="5.64438">
        <ele>274</ele>
        <time>2011-07-03T10:03:09.000Z</time>
      </trkpt>
      <trkpt lat="49.52908" lon="5.64431">
        <ele>274</ele>
        <time>2011-07-03T10:03:10.000Z</time>
      </trkpt>
      <trkpt lat="49.52909" lon="5.64355">
        <ele>274</ele>
        <time>2011-07-03T10:03:19.000Z</time>
      </trkpt>
      <trkpt lat="49.52909" lon="5.64345">
        <ele>274</ele>
        <time>2011-07-03T10:03:20.000Z</time>
      </trkpt>
      <trkpt lat="49.52911" lon="5.64273">
        <ele>271</ele>
        <time>2011-07-03T10:03:27.000Z</time>
      </trkpt>
      <trkpt lat="49.52911" lon="5.64262">
        <ele>270</ele>
        <time>2011-07-03T10:03:28.000Z</time>
      </trkpt>
      <trkpt lat="49.52913" lon="5.64189">
        <ele>267</ele>
        <time>2011-07-03T10:03:38.000Z</time>
      </trkpt>
      <trkpt lat="49.52913" lon="5.64184">
        <ele>267</ele>
        <time>2011-07-03T10:03:39.000Z</time>
      </trkpt>
      <trkpt lat="49.52911" lon="5.64179">
        <ele>267</ele>
        <time>2011-07-03T10:03:40.000Z</time>
      </trkpt>
      <trkpt lat="49.52901" lon="5.64168">
        <ele>267</ele>
        <time>2011-07-03T10:03:44.000Z</time>
      </trkpt>
      <trkpt lat="49.52895" lon="5.64147">
        <ele>267</ele>
        <time>2011-07-03T10:03:49.000Z</time>
      </trkpt>
      <trkpt lat="49.52889" lon="5.64139">
        <ele>267</ele>
        <time>2011-07-03T10:03:53.000Z</time>
      </trkpt>
      <trkpt lat="49.52884" lon="5.64137">
        <ele>267</ele>
        <time>2011-07-03T10:04:12.000Z</time>
      </trkpt>
      <trkpt lat="49.52879" lon="5.64139">
        <ele>261</ele>
        <time>2011-07-03T10:06:05.000Z</time>
      </trkpt>
      <trkpt lat="49.52878" lon="5.64146">
        <ele>263</ele>
        <time>2011-07-03T10:06:12.000Z</time>
      </trkpt>
      <trkpt lat="49.52882" lon="5.64145">
        <ele>263</ele>
        <time>2011-07-03T10:06:21.000Z</time>
      </trkpt>
      <trkpt lat="49.5289" lon="5.64162">
        <ele>262</ele>
        <time>2011-07-03T10:06:33.000Z</time>
      </trkpt>
      <trkpt lat="49.5289" lon="5.64171">
        <ele>262</ele>
        <time>2011-07-03T10:06:38.000Z</time>
      </trkpt>
      <trkpt lat="49.52885" lon="5.64173">
        <ele>261</ele>
        <time>2011-07-03T10:06:46.000Z</time>
      </trkpt>
      <trkpt lat="49.52872" lon="5.64174">
        <ele>262</ele>
        <time>2011-07-03T10:06:54.000Z</time>
      </trkpt>
      <trkpt lat="49.52866" lon="5.64175">
        <ele>263</ele>
        <time>2011-07-03T10:06:58.000Z</time>
      </trkpt>
      <trkpt lat="49.52864" lon="5.64183">
        <ele>264</ele>
        <time>2011-07-03T10:07:02.000Z</time>
      </trkpt>
      <trkpt lat="49.52866" lon="5.64187">
        <ele>263</ele>
        <time>2011-07-03T10:08:06.000Z</time>
      </trkpt>
      <trkpt lat="49.52865" lon="5.64192">
        <ele>264</ele>
        <time>2011-07-03T10:09:23.000Z</time>
      </trkpt>
      <trkpt lat="49.52866" lon="5.64191">
        <ele>265</ele>
        <time>2011-07-03T10:09:50.000Z</time>
      </trkpt>
    </trkseg>
  </trk>
</gpx>